[[{"header":{"parameterUnit":"m.s-1","parameterCategory":1,"la1":31.0,"la2":29.5877,"lo1":-88.7671,"lo2":-86.6584,"dy":0.0162,"dx":0.0185,"nx":115,"ny":88,"refTime":"2023-05-10T12:00:00:Z","depth":0,"parameterNumber":2,"parameterNumberName":"U-component_of_WINDS"},"data":[0.0,0.0,0.0,0.0,0.0,0.0,0.0,0.0,0.0,0.0,0.0,0.0,0.0,0.0,0.0,0.0,0.0,0.0,0.0,0.0,0.0,0.0,0.0,0.0,0.0,0.0,0.0,0.0,0.0,0.0,0.0,0.0,0.0,0.0,0.0,0.0,0.0,0.0,0.0,0.0,0.0,0.0,0.0,0.0,0.0,0.0,0.0,0.0,0.0,0.0,0.0,0.0,0.0,0.0,0.0,0.0,0.0,0.0,0.0,0.0,0.0,0.0,0.0,0.0,0.0,0.0,0.0,0.0,0.0,0.0,0.0,0.0,0.0,0.0,0.0,0.0,0.0,0.0,0.0,0.0,0.0,0.0,0.0,0.0,0.0,0.0,0.0,0.0,0.0,0.0,0.0,0.0,0.0,0.0,0.0,0.0,0.0,0.0,0.0,0.0,0.0,0.0,0.0,0.0,0.0,0.0,0.0,0.0,0.0,0.0,0.0,0.0,0.0,0.0,0.0,0.0,0.0,0.0,0.0,0.0,0.0,0.0,0.0,0.0,0.0,0.0,0.0,0.0,0.0,0.0,0.0,0.0,0.0,0.0,0.0,0.0,0.0,0.0,0.0,0.0,0.0,0.0,0.0,0.0,0.0,0.0,0.0,0.0,0.0,0.0,0.0,0.0,0.0,0.0,0.0,0.0,0.0,0.0,0.0,0.0,0.0,0.0,0.0,0.0,0.0,0.0,0.0,0.0,0.0,0.0,0.0,0.0,0.0,0.0,0.0,0.0,0.0,0.0,0.0,0.0,0.0,0.0,0.0,0.0,0.0,0.0,0.0,0.0,0.0,0.0,0.0,0.0,0.0,0.0,0.0,0.0,0.0,0.0,0.0,0.0,0.0,0.0,0.0,0.0,0.0,0.0,0.0,0.0,0.0,0.0,0.0,0.0,0.0,0.0,0.0,0.0,0.0,0.0,0.0,0.0,0.0,0.0,0.0,0.0,0.0,0.0,0.0,0.0,0.0,0.0,0.0,0.0,0.0,0.0,0.0,0.0,0.0,0.0,0.0,0.0,0.0,0.0,0.0,0.0,0.0,0.0,0.0,0.0,0.0,0.0,0.0,0.0,0.0,0.0,0.0,0.0,0.0,0.0,0.0,0.0,0.0,0.0,0.0,0.0,0.0,0.0,0.0,0.0,0.0,0.0,0.0,0.0,0.0,0.0,0.0,0.0,0.0,0.0,0.0,0.0,0.0,0.0,0.0,0.0,0.0,0.0,0.0,0.0,0.0,0.0,0.0,0.0,0.0,0.0,0.0,0.0,0.0,0.0,0.0,0.0,0.0,0.0,0.0,0.0,0.0,0.0,0.0,0.0,0.0,0.0,0.0,0.0,0.0,0.0,0.0,0.0,0.0,0.0,0.0,0.0,0.0,0.0,0.0,0.0,0.0,0.0,0.0,0.0,0.0,0.0,0.0,0.0,0.0,0.0,0.0,0.0,0.0,0.0,0.0,0.0,0.0,0.0,0.0,0.0,0.0,0.0,0.0,0.0,0.0,0.0,0.0,0.0,0.0,0.0,0.0,0.0,0.0,0.0,0.0,0.0,0.0,0.0,0.0,0.0,0.0,0.0,0.0,0.0,0.0,0.0,0.0,0.0,0.0,0.0,0.0,0.0,0.0,0.0,0.0,0.0,0.0,0.0,0.0,0.0,0.0,0.0,0.0,0.0,0.0,0.0,0.0,0.0,0.0,0.0,0.0,0.0,0.0,0.0,0.0,0.0,0.0,0.0,0.0,0.0,0.0,0.0,0.0,0.0,0.0,0.0,0.0,0.0,0.0,0.0,0.0,0.0,0.0,0.0,0.0,0.0,0.0,0.0,0.0,0.0,0.0,0.0,0.0,0.0,0.0,0.0,0.0,0.0,0.0,0.0,0.0,0.0,0.0,0.0,0.0,0.0,0.0,0.0,0.0,0.0,0.0,0.0,0.0,0.0,0.0,0.0,0.0,0.0,0.0,0.0,0.0,0.0,0.0,0.0,0.0,0.0,0.0,0.0,0.0,0.0,0.0,0.0,0.0,0.0,0.0,0.0,0.0,0.0,0.0,0.0,0.0,0.0,0.0,0.0,0.0,0.0,0.0,0.0,0.0,0.0,0.0,0.0,0.0,0.0,0.0,0.0,0.0,0.0,0.0,0.0,0.0,0.0,0.0,0.0,0.0,0.0,0.0,0.0,0.0,0.0,0.0,0.0,0.0,0.0,0.0,0.0,0.0,0.0,0.0,0.0,0.0,0.0,0.0,0.0,0.0,0.0,0.0,0.0,0.0,0.0,0.0,0.0,0.0,0.0,0.0,0.0,0.0,0.0,0.0,0.0,0.0,0.0,0.0,0.0,0.0,0.0,0.0,0.0,0.0,0.0,0.0,0.0,0.0,0.0,0.0,0.0,0.0,0.0,0.0,0.0,0.0,0.0,0.0,0.0,0.0,0.0,0.0,0.0,0.0,0.0,0.0,0.0,0.0,0.0,0.0,0.0,0.0,0.0,0.0,0.0,0.0,0.0,0.0,0.0,0.0,0.0,0.0,0.0,0.0,0.0,0.0,0.0,0.0,0.0,0.0,0.0,0.0,0.0,0.0,0.0,0.0,0.0,0.0,0.0,0.0,0.0,0.0,0.0,0.0,0.0,0.0,0.0,0.0,0.0,0.0,0.0,0.0,0.0,0.0,0.0,0.0,0.0,0.0,0.0,0.0,0.0,0.0,0.0,0.0,0.0,0.0,0.0,0.0,0.0,0.0,0.0,0.0,0.0,0.0,0.0,0.0,0.0,0.0,0.0,0.0,0.0,0.0,0.0,0.0,0.0,0.0,0.0,0.0,0.0,0.0,0.0,0.0,0.0,0.0,0.0,0.0,0.0,0.0,0.0,0.0,0.0,0.0,0.0,0.0,0.0,0.0,0.0,0.0,0.0,0.0,0.0,0.0,0.0,0.0,0.0,0.0,0.0,0.0,0.0,0.0,0.0,0.0,0.0,0.0,0.0,0.0,0.0,0.0,0.0,0.0,0.0,0.0,0.0,0.0,0.0,0.0,0.0,0.0,0.0,0.0,0.0,0.0,0.0,0.0,0.0,0.0,0.0,0.0,0.0,0.0,0.0,0.0,0.0,0.0,0.0,0.0,0.0,0.0,0.0,0.0,0.0,0.0,0.0,0.0,0.0,0.0,0.0,0.0,0.0,0.0,0.0,0.0,0.0,0.0,0.0,0.0,0.0,0.0,0.0,0.0,0.0,0.0,0.0,0.0,0.0,0.0,0.0,0.0,0.0,0.0,0.0,0.0,0.0,0.0,0.0,0.0,0.0,0.0,0.0,0.0,0.0,0.0,0.0,0.0,0.0,0.0,0.0,0.0,0.0,0.0,0.0,0.0,0.0,0.0,0.0,0.0,0.0,0.0,0.0,0.0,0.0,0.0,0.0,0.0,0.0,0.0,0.0,0.0,0.0,0.0,0.0,0.0,0.0,0.0,0.0,0.0,0.0,0.0,0.0,0.0,0.0,0.0,0.0,0.0,0.0,0.0,0.0,0.0,0.0,0.0,0.0,0.0,0.0,0.0,0.0,0.0,0.0,0.0,0.0,0.0,0.0,0.0,0.0,0.0,0.0,0.0,0.0,0.0,0.0,0.0,0.0,0.0,0.0,0.0,0.0,0.0,0.0,0.0,0.0,0.0,0.0,0.0,0.0,0.0,0.0,0.0,0.0,0.0,0.0,0.0,0.0,0.0,0.0,0.0,0.0,0.0,0.0,0.0,0.0,0.0,0.0,0.0,0.0,0.0,0.0,0.0,0.0,0.0,0.0,0.0,0.0,0.0,0.0,0.0,0.0,0.0,0.0,0.0,0.0,0.0,0.0,0.0,0.0,0.0,0.0,0.0,0.0,0.0,0.0,0.0,0.0,0.0,0.0,0.0,0.0,0.0,0.0,0.0,0.0,0.0,0.0,0.0,0.0,0.0,0.0,0.0,0.0,0.0,0.0,0.0,0.0,0.0,0.0,0.0,0.0,0.0,0.0,0.0,0.0,0.0,0.0,0.0,0.0,0.0,0.0,0.0,0.0,0.0,0.0,0.0,0.0,0.0,0.0,0.0,0.0,0.0,0.0,0.0,0.0,0.0,0.0,0.0,0.0,0.0,0.0,0.0,0.0,0.0,0.0,0.0,0.0,0.0,0.0,0.0,0.0,0.0,0.0,0.0,0.0,0.0,0.0,0.0,0.0,0.0,0.0,0.0,0.0,-2.0307,0.0,0.0,0.0,0.0,0.0,0.0,0.0,0.0,0.0,0.0,0.0,0.0,0.0,0.0,0.0,0.0,0.0,0.0,0.0,0.0,0.0,0.0,0.0,0.0,0.0,0.0,0.0,0.0,0.0,0.0,0.0,0.0,0.0,0.0,0.0,0.0,0.0,0.0,0.0,0.0,0.0,0.0,0.0,0.0,0.0,0.0,0.0,0.0,0.0,0.0,0.0,0.0,0.0,0.0,0.0,0.0,0.0,0.0,0.0,0.0,0.0,0.0,0.0,0.0,0.0,0.0,0.0,0.0,0.0,0.0,0.0,0.0,0.0,0.0,0.0,0.0,0.0,0.0,0.0,0.0,0.0,0.0,0.0,0.0,0.0,0.0,0.0,0.0,0.0,0.0,0.0,0.0,0.0,0.0,0.0,0.0,0.0,0.0,0.0,0.0,0.0,0.0,0.0,0.0,0.0,0.0,0.0,0.0,0.0,0.0,-2.0591,-2.0975,-2.0223,-2.0018,-2.0486,0.0,0.0,0.0,0.0,0.0,0.0,0.0,0.0,0.0,0.0,0.0,0.0,0.0,0.0,0.0,0.0,0.0,0.0,0.0,0.0,0.0,0.0,0.0,0.0,0.0,0.0,0.0,0.0,0.0,0.0,0.0,0.0,0.0,0.0,0.0,0.0,0.0,0.0,0.0,0.0,0.0,0.0,0.0,0.0,0.0,0.0,0.0,0.0,0.0,0.0,0.0,0.0,0.0,0.0,0.0,0.0,0.0,0.0,0.0,0.0,0.0,0.0,0.0,0.0,0.0,0.0,0.0,0.0,0.0,0.0,0.0,0.0,0.0,0.0,0.0,0.0,0.0,0.0,0.0,0.0,0.0,0.0,0.0,0.0,0.0,0.0,0.0,0.0,0.0,0.0,0.0,0.0,0.0,0.0,0.0,0.0,0.0,0.0,0.0,0.0,0.0,0.0,0.0,0.0,0.0,0.0,0.0,0.0,0.0,0.0,0.0,0.0,-2.074,-2.0618,-2.1252,0.0,0.0,0.0,0.0,0.0,0.0,0.0,0.0,0.0,0.0,0.0,0.0,0.0,0.0,0.0,0.0,0.0,0.0,0.0,0.0,0.0,0.0,0.0,0.0,0.0,0.0,0.0,0.0,0.0,0.0,0.0,0.0,0.0,0.0,0.0,0.0,0.0,0.0,0.0,0.0,0.0,0.0,0.0,0.0,0.0,0.0,0.0,0.0,0.0,0.0,0.0,0.0,0.0,0.0,0.0,0.0,0.0,0.0,0.0,0.0,0.0,0.0,0.0,0.0,0.0,0.0,0.0,0.0,0.0,0.0,0.0,0.0,0.0,0.0,0.0,0.0,0.0,0.0,0.0,0.0,0.0,0.0,0.0,0.0,0.0,0.0,0.0,0.0,0.0,0.0,0.0,0.0,0.0,0.0,0.0,0.0,0.0,0.0,0.0,0.0,0.0,0.0,0.0,0.0,0.0,0.0,0.0,0.0,0.0,0.0,-2.1852,-2.4815,-2.408,0.0,-2.3604,0.0,0.0,0.0,0.0,0.0,0.0,0.0,0.0,0.0,0.0,0.0,0.0,0.0,0.0,0.0,0.0,0.0,0.0,0.0,0.0,0.0,0.0,0.0,0.0,0.0,0.0,0.0,0.0,0.0,0.0,0.0,0.0,0.0,0.0,0.0,0.0,0.0,0.0,0.0,0.0,0.0,0.0,0.0,0.0,0.0,0.0,0.0,0.0,0.0,0.0,0.0,0.0,0.0,0.0,0.0,0.0,0.0,0.0,0.0,0.0,0.0,0.0,0.0,0.0,0.0,0.0,0.0,0.0,0.0,0.0,0.0,0.0,0.0,0.0,0.0,0.0,0.0,0.0,0.0,0.0,0.0,0.0,0.0,0.0,0.0,0.0,0.0,0.0,0.0,0.0,0.0,0.0,0.0,0.0,0.0,0.0,0.0,0.0,0.0,0.0,0.0,0.0,0.0,0.0,0.0,0.0,0.0,0.0,0.0,0.0,-2.2721,-2.4594,-2.4339,-2.367,0.0,0.0,0.0,0.0,0.0,0.0,0.0,0.0,0.0,0.0,0.0,0.0,0.0,0.0,0.0,0.0,0.0,0.0,0.0,0.0,0.0,0.0,0.0,0.0,0.0,0.0,0.0,0.0,0.0,0.0,0.0,0.0,0.0,0.0,0.0,0.0,0.0,0.0,0.0,0.0,0.0,0.0,0.0,0.0,0.0,0.0,0.0,0.0,0.0,0.0,0.0,0.0,0.0,0.0,0.0,0.0,0.0,0.0,0.0,0.0,0.0,0.0,0.0,0.0,0.0,0.0,0.0,0.0,0.0,0.0,0.0,0.0,0.0,0.0,0.0,0.0,0.0,0.0,0.0,0.0,0.0,0.0,0.0,0.0,0.0,0.0,0.0,0.0,0.0,0.0,0.0,0.0,0.0,0.0,0.0,0.0,0.0,0.0,0.0,0.0,0.0,0.0,0.0,0.0,0.0,0.0,0.0,0.0,0.0,0.0,-2.2889,-2.3801,-2.4996,-2.4034,-2.307,-2.225,0.0,0.0,0.0,0.0,0.0,0.0,0.0,0.0,0.0,0.0,0.0,0.0,0.0,0.0,0.0,0.0,0.0,0.0,0.0,0.0,0.0,0.0,0.0,0.0,0.0,0.0,0.0,0.0,0.0,0.0,0.0,0.0,0.0,0.0,0.0,0.0,0.0,0.0,0.0,0.0,0.0,0.0,0.0,0.0,0.0,0.0,0.0,0.0,0.0,0.0,0.0,0.0,0.0,0.0,0.0,0.0,0.0,0.0,0.0,0.0,0.0,0.0,0.0,0.0,0.0,0.0,0.0,0.0,0.0,0.0,0.0,0.0,0.0,0.0,0.0,0.0,0.0,0.0,0.0,0.0,0.0,0.0,0.0,0.0,0.0,0.0,0.0,0.0,0.0,0.0,0.0,0.0,0.0,0.0,0.0,0.0,0.0,0.0,0.0,0.0,0.0,0.0,0.0,0.0,0.0,0.0,0.0,0.0,-2.7123,-2.5247,-2.5249,-2.7425,-2.3734,-2.2314,0.0,0.0,0.0,0.0,0.0,0.0,0.0,0.0,0.0,0.0,0.0,0.0,0.0,0.0,0.0,0.0,0.0,0.0,0.0,0.0,0.0,0.0,0.0,0.0,0.0,0.0,0.0,0.0,0.0,0.0,0.0,0.0,0.0,0.0,0.0,0.0,0.0,0.0,0.0,0.0,0.0,0.0,0.0,0.0,0.0,0.0,0.0,0.0,0.0,0.0,0.0,0.0,0.0,0.0,0.0,0.0,0.0,0.0,0.0,0.0,0.0,0.0,0.0,0.0,0.0,0.0,0.0,0.0,0.0,0.0,0.0,0.0,0.0,0.0,0.0,0.0,0.0,0.0,0.0,0.0,0.0,0.0,0.0,0.0,0.0,0.0,0.0,0.0,0.0,0.0,0.0,0.0,0.0,0.0,0.0,0.0,0.0,0.0,0.0,0.0,0.0,0.0,0.0,0.0,0.0,0.0,0.0,0.0,0.0,-2.4478,-2.4829,-2.5936,-2.7791,-2.4849,-2.3437,0.0,0.0,0.0,0.0,0.0,0.0,0.0,0.0,0.0,0.0,0.0,0.0,0.0,0.0,0.0,0.0,0.0,0.0,0.0,0.0,0.0,0.0,0.0,0.0,0.0,0.0,0.0,0.0,0.0,0.0,0.0,0.0,0.0,0.0,0.0,0.0,0.0,0.0,0.0,0.0,0.0,0.0,0.0,0.0,0.0,0.0,0.0,0.0,0.0,0.0,0.0,0.0,0.0,0.0,0.0,0.0,0.0,0.0,0.0,0.0,0.0,0.0,0.0,0.0,0.0,0.0,0.0,0.0,0.0,0.0,0.0,0.0,0.0,0.0,0.0,0.0,0.0,0.0,0.0,0.0,0.0,0.0,0.0,0.0,0.0,0.0,0.0,0.0,0.0,0.0,0.0,0.0,0.0,0.0,0.0,0.0,0.0,0.0,0.0,0.0,0.0,0.0,0.0,0.0,0.0,0.0,0.0,0.0,0.0,-2.4474,0.0,-2.6893,-2.7136,-2.4949,-2.3325,0.0,0.0,0.0,0.0,0.0,0.0,0.0,0.0,0.0,0.0,0.0,0.0,0.0,0.0,0.0,0.0,0.0,0.0,0.0,0.0,0.0,0.0,0.0,0.0,0.0,0.0,0.0,0.0,0.0,0.0,0.0,0.0,0.0,0.0,0.0,0.0,0.0,0.0,0.0,0.0,0.0,0.0,0.0,0.0,0.0,0.0,0.0,0.0,0.0,0.0,0.0,0.0,0.0,0.0,0.0,0.0,0.0,0.0,0.0,0.0,0.0,0.0,0.0,0.0,0.0,0.0,0.0,0.0,0.0,0.0,0.0,0.0,0.0,0.0,0.0,0.0,0.0,0.0,0.0,0.0,0.0,0.0,0.0,0.0,0.0,0.0,0.0,0.0,0.0,0.0,0.0,0.0,0.0,0.0,0.0,0.0,0.0,0.0,0.0,0.0,0.0,0.0,0.0,0.0,0.0,0.0,0.0,0.0,-2.5404,-2.7861,-2.8771,-2.8055,-2.5654,-2.3891,-2.1791,0.0,0.0,0.0,0.0,0.0,0.0,0.0,0.0,0.0,0.0,0.0,0.0,0.0,0.0,0.0,0.0,0.0,0.0,0.0,0.0,0.0,0.0,0.0,0.0,0.0,0.0,0.0,0.0,0.0,0.0,0.0,0.0,0.0,0.0,0.0,0.0,0.0,0.0,0.0,0.0,0.0,0.0,0.0,0.0,0.0,0.0,0.0,0.0,0.0,0.0,0.0,0.0,0.0,0.0,0.0,0.0,0.0,0.0,0.0,0.0,0.0,0.0,0.0,0.0,0.0,0.0,0.0,0.0,0.0,0.0,0.0,0.0,0.0,0.0,0.0,0.0,0.0,0.0,0.0,0.0,0.0,0.0,0.0,0.0,0.0,0.0,0.0,0.0,0.0,0.0,0.0,0.0,0.0,0.0,0.0,0.0,0.0,0.0,0.0,0.0,0.0,0.0,0.0,0.0,0.0,0.0,0.0,0.0,0.0,-2.5498,-2.6929,-2.7886,-2.817,-2.4253,-2.2839,0.0,0.0,0.0,0.0,0.0,0.0,0.0,0.0,0.0,0.0,0.0,0.0,0.0,0.0,0.0,0.0,0.0,0.0,0.0,0.0,0.0,0.0,0.0,0.0,0.0,0.0,0.0,0.0,0.0,0.0,0.0,0.0,0.0,0.0,0.0,0.0,0.0,0.0,0.0,0.0,0.0,0.0,0.0,0.0,0.0,0.0,0.0,0.0,0.0,0.0,0.0,0.0,0.0,0.0,0.0,0.0,0.0,0.0,0.0,0.0,0.0,0.0,0.0,0.0,0.0,0.0,0.0,0.0,0.0,0.0,0.0,0.0,0.0,0.0,0.0,0.0,0.0,0.0,0.0,0.0,0.0,0.0,0.0,0.0,0.0,0.0,0.0,0.0,0.0,0.0,0.0,0.0,0.0,0.0,0.0,0.0,0.0,0.0,0.0,0.0,0.0,0.0,0.0,0.0,0.0,0.0,0.0,0.0,0.0,-2.6369,-2.7943,-2.8768,-2.8632,-2.5405,-2.3926,-2.4421,0.0,0.0,0.0,0.0,0.0,0.0,0.0,0.0,0.0,0.0,0.0,0.0,0.0,0.0,0.0,0.0,0.0,0.0,0.0,0.0,0.0,0.0,0.0,0.0,0.0,0.0,0.0,0.0,0.0,0.0,0.0,0.0,0.0,0.0,0.0,0.0,0.0,0.0,0.0,0.0,0.0,0.0,0.0,0.0,0.0,0.0,0.0,0.0,0.0,0.0,0.0,0.0,0.0,0.0,0.0,0.0,0.0,0.0,0.0,0.0,0.0,0.0,0.0,0.0,0.0,0.0,0.0,0.0,0.0,0.0,0.0,0.0,0.0,0.0,0.0,0.0,0.0,0.0,0.0,0.0,0.0,0.0,0.0,0.0,0.0,0.0,0.0,0.0,0.0,0.0,0.0,0.0,0.0,0.0,0.0,0.0,0.0,0.0,0.0,0.0,0.0,0.0,0.0,0.0,0.0,0.0,0.0,0.0,-2.9589,-3.1307,-3.0679,-2.7576,-2.7126,-2.5078,0.0,0.0,0.0,0.0,0.0,0.0,0.0,0.0,0.0,0.0,0.0,0.0,0.0,0.0,0.0,0.0,0.0,0.0,0.0,0.0,0.0,0.0,0.0,0.0,0.0,0.0,0.0,0.0,0.0,0.0,0.0,0.0,0.0,0.0,0.0,0.0,0.0,0.0,0.0,0.0,0.0,0.0,0.0,0.0,0.0,0.0,0.0,0.0,0.0,0.0,0.0,0.0,0.0,0.0,0.0,0.0,0.0,0.0,0.0,0.0,0.0,0.0,0.0,0.0,0.0,0.0,0.0,0.0,0.0,0.0,0.0,0.0,0.0,0.0,0.0,0.0,0.0,0.0,0.0,0.0,0.0,0.0,0.0,0.0,0.0,0.0,0.0,0.0,0.0,0.0,0.0,0.0,0.0,0.0,0.0,0.0,0.0,0.0,0.0,0.0,0.0,0.0,0.0,0.0,0.0,0.0,0.0,0.0,0.0,-3.0544,-3.2808,-3.3273,-3.1724,-2.8666,-2.6464,0.0,0.0,0.0,0.0,0.0,0.0,0.0,0.0,0.0,0.0,0.0,0.0,0.0,0.0,0.0,0.0,0.0,0.0,0.0,0.0,0.0,0.0,0.0,0.0,0.0,0.0,0.0,0.0,0.0,0.0,0.0,0.0,0.0,0.0,0.0,0.0,0.0,0.0,0.0,0.0,0.0,0.0,0.0,0.0,0.0,0.0,0.0,0.0,0.0,0.0,0.0,0.0,0.0,0.0,0.0,0.0,0.0,0.0,0.0,0.0,0.0,0.0,0.0,0.0,0.0,0.0,0.0,0.0,0.0,0.0,0.0,0.0,0.0,0.0,0.0,0.0,0.0,0.0,0.0,0.0,0.0,0.0,0.0,0.0,0.0,0.0,0.0,0.0,0.0,0.0,0.0,0.0,0.0,0.0,0.0,0.0,0.0,0.0,0.0,0.0,0.0,0.0,0.0,0.0,0.0,0.0,0.0,0.0,-3.0,-3.2454,-3.4291,-3.5186,-3.5037,-3.1218,-2.8297,0.0,0.0,0.0,0.0,0.0,0.0,0.0,0.0,0.0,0.0,0.0,0.0,0.0,0.0,0.0,0.0,0.0,0.0,0.0,0.0,0.0,0.0,0.0,0.0,0.0,0.0,0.0,0.0,0.0,0.0,0.0,0.0,0.0,0.0,0.0,0.0,0.0,0.0,0.0,0.0,0.0,0.0,0.0,0.0,0.0,0.0,0.0,0.0,0.0,0.0,0.0,0.0,0.0,0.0,0.0,0.0,0.0,0.0,0.0,0.0,0.0,0.0,0.0,0.0,0.0,0.0,0.0,0.0,0.0,0.0,0.0,0.0,0.0,0.0,0.0,0.0,0.0,0.0,0.0,0.0,0.0,0.0,0.0,0.0,0.0,0.0,0.0,0.0,0.0,0.0,0.0,0.0,0.0,0.0,0.0,0.0,0.0,0.0,0.0,0.0,0.0,0.0,0.0,0.0,0.0,0.0,0.0,0.0,-3.1171,-3.4349,-3.5463,-3.6358,-3.7028,-3.3788,-3.005,0.0,0.0,0.0,0.0,0.0,0.0,0.0,0.0,0.0,0.0,0.0,0.0,0.0,0.0,0.0,0.0,0.0,0.0,0.0,0.0,0.0,0.0,0.0,0.0,0.0,0.0,0.0,0.0,0.0,0.0,0.0,0.0,0.0,0.0,0.0,0.0,0.0,0.0,0.0,0.0,0.0,0.0,0.0,0.0,0.0,0.0,0.0,0.0,0.0,0.0,0.0,0.0,0.0,0.0,0.0,0.0,0.0,0.0,0.0,0.0,0.0,0.0,0.0,0.0,0.0,0.0,0.0,0.0,0.0,0.0,0.0,0.0,0.0,0.0,0.0,0.0,0.0,0.0,0.0,0.0,0.0,0.0,0.0,0.0,0.0,0.0,0.0,0.0,0.0,0.0,0.0,0.0,0.0,0.0,0.0,0.0,0.0,0.0,0.0,0.0,0.0,0.0,0.0,0.0,0.0,0.0,0.0,0.0,-3.0605,-3.261,-3.4838,-3.6084,-3.6265,-3.291,-2.9695,0.0,0.0,0.0,0.0,0.0,0.0,0.0,0.0,0.0,0.0,0.0,0.0,0.0,0.0,0.0,0.0,0.0,0.0,0.0,0.0,0.0,0.0,0.0,0.0,0.0,0.0,0.0,0.0,0.0,0.0,0.0,0.0,0.0,0.0,0.0,0.0,0.0,0.0,0.0,0.0,0.0,0.0,0.0,0.0,0.0,0.0,0.0,0.0,-1.5275,0.0,0.0,0.0,0.0,0.0,0.0,0.0,0.0,0.0,0.0,0.0,0.0,0.0,0.0,0.0,0.0,0.0,0.0,0.0,0.0,0.0,0.0,0.0,0.0,0.0,0.0,0.0,0.0,0.0,0.0,0.0,0.0,0.0,0.0,0.0,0.0,0.0,0.0,0.0,0.0,0.0,0.0,0.0,0.0,0.0,0.0,0.0,0.0,0.0,0.0,0.0,0.0,0.0,0.0,0.0,0.0,0.0,0.0,0.0,-3.08,-3.3274,-3.5072,-3.6006,-3.5876,-3.2635,-2.9616,0.0,0.0,0.0,0.0,0.0,0.0,0.0,0.0,0.0,0.0,0.0,0.0,0.0,0.0,0.0,0.0,0.0,0.0,0.0,0.0,0.0,0.0,0.0,0.0,0.0,0.0,0.0,0.0,0.0,0.0,0.0,0.0,0.0,0.0,0.0,0.0,0.0,0.0,0.0,0.0,0.0,0.0,0.0,0.0,0.0,0.0,0.0,0.0,0.0,0.0,0.0,0.0,0.0,0.0,0.0,0.0,0.0,0.0,0.0,0.0,0.0,0.0,0.0,0.0,0.0,0.0,0.0,0.0,0.0,0.0,0.0,0.0,0.0,0.0,0.0,0.0,0.0,0.0,0.0,0.0,0.0,0.0,0.0,0.0,0.0,0.0,0.0,0.0,0.0,0.0,0.0,0.0,0.0,0.0,0.0,0.0,0.0,0.0,0.0,0.0,0.0,0.0,0.0,0.0,0.0,0.0,0.0,-2.8687,-3.0995,-3.4154,-3.5151,-3.5538,-3.5369,-3.2285,-2.9421,-2.6909,0.0,0.0,0.0,0.0,0.0,0.0,0.0,0.0,0.0,0.0,0.0,0.0,0.0,0.0,0.0,0.0,0.0,0.0,0.0,0.0,0.0,0.0,0.0,0.0,0.0,0.0,0.0,0.0,0.0,0.0,0.0,0.0,0.0,0.0,0.0,0.0,0.0,0.0,-1.6157,-1.5601,0.0,0.0,0.0,0.0,0.0,0.0,0.0,0.0,-1.4864,0.0,0.0,0.0,0.0,0.0,0.0,0.0,0.0,0.0,0.0,0.0,0.0,0.0,0.0,0.0,0.0,0.0,0.0,0.0,0.0,0.0,0.0,0.0,0.0,0.0,0.0,0.0,0.0,0.0,0.0,0.0,0.0,0.0,0.0,0.0,0.0,0.0,0.0,0.0,0.0,0.0,0.0,0.0,0.0,0.0,0.0,0.0,0.0,0.0,0.0,0.0,0.0,0.0,0.0,0.0,0.0,-2.9,-2.8708,-2.9824,-3.2439,-3.3377,-3.3492,-3.2741,-3.0827,-2.8581,-2.6042,0.0,0.0,0.0,0.0,0.0,0.0,0.0,0.0,0.0,0.0,0.0,0.0,0.0,0.0,0.0,0.0,0.0,0.0,0.0,0.0,0.0,0.0,0.0,0.0,0.0,0.0,0.0,0.0,0.0,0.0,0.0,0.0,0.0,0.0,0.0,0.0,0.0,0.0,0.0,-1.481,-1.4565,0.0,0.0,0.0,0.0,0.0,0.0,0.0,0.0,-1.3331,0.0,0.0,0.0,0.0,0.0,0.0,0.0,0.0,0.0,0.0,0.0,0.0,0.0,0.0,0.0,0.0,0.0,0.0,0.0,0.0,0.0,0.0,0.0,0.0,0.0,0.0,0.0,0.0,0.0,0.0,0.0,0.0,0.0,0.0,0.0,0.0,0.0,0.0,0.0,0.0,0.0,0.0,0.0,0.0,0.0,0.0,0.0,0.0,0.0,0.0,0.0,0.0,0.0,0.0,0.0,-2.8576,-2.8494,-2.9531,-3.201,-3.2948,-3.279,-3.1496,-2.9815,-2.7705,0.0,0.0,0.0,0.0,0.0,0.0,0.0,0.0,0.0,0.0,0.0,0.0,0.0,0.0,0.0,0.0,0.0,0.0,0.0,0.0,0.0,0.0,0.0,0.0,0.0,0.0,0.0,0.0,0.0,0.0,0.0,0.0,0.0,0.0,0.0,0.0,0.0,0.0,0.0,0.0,-1.5989,-1.5253,-1.4783,0.0,0.0,0.0,0.0,0.0,0.0,-1.4383,-1.4064,0.0,0.0,0.0,0.0,0.0,0.0,0.0,0.0,0.0,0.0,0.0,0.0,0.0,0.0,0.0,0.0,0.0,0.0,0.0,0.0,0.0,0.0,0.0,0.0,0.0,0.0,0.0,0.0,0.0,0.0,0.0,0.0,0.0,0.0,0.0,0.0,0.0,0.0,0.0,0.0,0.0,0.0,0.0,0.0,0.0,0.0,0.0,0.0,0.0,0.0,0.0,0.0,0.0,0.0,0.0,-2.8096,-2.8261,-2.9453,-3.1757,-3.2362,-3.199,-3.064,-2.8608,-2.6536,0.0,0.0,0.0,0.0,0.0,0.0,0.0,0.0,0.0,0.0,0.0,0.0,0.0,0.0,0.0,0.0,0.0,0.0,0.0,0.0,0.0,0.0,0.0,0.0,0.0,0.0,0.0,0.0,0.0,0.0,0.0,0.0,0.0,0.0,0.0,0.0,0.0,0.0,0.0,0.0,0.0,-1.6289,-1.439,-1.4646,0.0,0.0,0.0,0.0,-1.505,-1.4796,0.0,0.0,0.0,0.0,0.0,0.0,0.0,0.0,0.0,0.0,0.0,0.0,0.0,0.0,0.0,0.0,0.0,0.0,0.0,0.0,0.0,0.0,0.0,0.0,0.0,0.0,0.0,0.0,0.0,0.0,0.0,0.0,0.0,0.0,0.0,0.0,0.0,0.0,0.0,0.0,0.0,0.0,0.0,0.0,0.0,0.0,0.0,0.0,0.0,0.0,0.0,0.0,0.0,0.0,0.0,0.0,-2.8203,-2.8301,-2.918,-3.0898,-3.0391,-2.9961,-2.9705,-2.6561,-2.4724,0.0,0.0,0.0,0.0,0.0,0.0,0.0,0.0,0.0,0.0,0.0,0.0,0.0,0.0,0.0,0.0,0.0,0.0,0.0,0.0,0.0,0.0,0.0,0.0,0.0,0.0,0.0,0.0,0.0,0.0,0.0,0.0,0.0,0.0,0.0,0.0,0.0,0.0,0.0,0.0,0.0,-1.693,-1.4445,-1.4131,-1.4055,0.0,0.0,-1.3409,-1.4871,-1.3847,0.0,0.0,0.0,0.0,0.0,0.0,0.0,0.0,0.0,0.0,0.0,0.0,0.0,0.0,0.0,0.0,0.0,0.0,0.0,0.0,0.0,0.0,0.0,0.0,0.0,0.0,0.0,0.0,0.0,0.0,0.0,0.0,0.0,0.0,0.0,0.0,0.0,0.0,0.0,0.0,0.0,0.0,0.0,0.0,0.0,0.0,0.0,0.0,0.0,0.0,0.0,0.0,0.0,0.0,0.0,-2.5053,-2.8125,-2.7324,-2.791,-3.0059,-2.9785,-2.8887,-2.7422,-2.5448,-2.3963,0.0,0.0,0.0,0.0,0.0,0.0,0.0,0.0,0.0,0.0,0.0,0.0,0.0,0.0,0.0,0.0,0.0,0.0,0.0,0.0,0.0,0.0,0.0,0.0,0.0,0.0,0.0,0.0,0.0,0.0,0.0,0.0,0.0,0.0,0.0,0.0,0.0,0.0,0.0,0.0,0.0,0.0,-1.5737,-1.5472,0.0,0.0,0.0,-1.482,-1.5068,0.0,0.0,0.0,0.0,0.0,0.0,0.0,0.0,0.0,0.0,0.0,0.0,0.0,0.0,0.0,0.0,0.0,0.0,0.0,0.0,0.0,0.0,0.0,0.0,0.0,0.0,0.0,0.0,0.0,0.0,0.0,0.0,0.0,0.0,0.0,0.0,0.0,0.0,0.0,0.0,0.0,0.0,0.0,0.0,0.0,0.0,0.0,0.0,0.0,0.0,0.0,0.0,0.0,0.0,0.0,0.0,0.0,-2.7851,-2.6465,-2.6855,-2.9141,-2.8848,-2.7695,-2.5762,-2.4258,0.0,0.0,0.0,0.0,0.0,0.0,0.0,0.0,0.0,0.0,0.0,0.0,0.0,0.0,0.0,0.0,0.0,0.0,0.0,0.0,0.0,0.0,0.0,0.0,0.0,0.0,0.0,-1.924,0.0,0.0,0.0,0.0,0.0,0.0,0.0,0.0,0.0,0.0,0.0,0.0,0.0,0.0,-1.8288,-1.6512,-1.659,-1.6205,0.0,0.0,-1.5704,-1.4653,-1.3927,-1.3373,0.0,0.0,0.0,0.0,0.0,0.0,0.0,0.0,0.0,0.0,0.0,0.0,0.0,0.0,0.0,0.0,0.0,0.0,0.0,0.0,0.0,0.0,0.0,0.0,0.0,0.0,0.0,0.0,0.0,0.0,0.0,0.0,0.0,0.0,0.0,0.0,0.0,0.0,0.0,0.0,0.0,0.0,0.0,0.0,0.0,0.0,0.0,0.0,0.0,0.0,0.0,0.0,0.0,0.0,0.0,-2.6973,-2.6172,-2.6543,-2.8262,-2.6797,-2.5898,-2.5664,-2.2539,-2.1211,0.0,0.0,0.0,0.0,0.0,0.0,0.0,0.0,0.0,0.0,0.0,0.0,0.0,0.0,0.0,0.0,0.0,0.0,0.0,0.0,0.0,0.0,0.0,0.0,0.0,0.0,0.0,0.0,0.0,0.0,0.0,0.0,0.0,0.0,0.0,0.0,0.0,0.0,0.0,0.0,0.0,-1.997,-1.5959,-1.671,-1.7089,0.0,0.0,-1.4634,-1.3026,-1.2737,-1.2931,-1.3593,0.0,0.0,0.0,0.0,0.0,0.0,0.0,0.0,0.0,0.0,0.0,0.0,0.0,0.0,0.0,0.0,0.0,0.0,0.0,0.0,0.0,0.0,0.0,0.0,0.0,0.0,0.0,0.0,0.0,0.0,0.0,0.0,0.0,0.0,0.0,0.0,0.0,0.0,0.0,0.0,0.0,0.0,0.0,0.0,0.0,0.0,0.0,0.0,0.0,0.0,0.0,0.0,0.0,-2.411,-2.6914,-2.5078,-2.5195,-2.7344,-2.6328,-2.5195,-2.4102,-2.2344,-2.1308,0.0,0.0,0.0,0.0,0.0,0.0,0.0,0.0,0.0,0.0,0.0,0.0,0.0,0.0,0.0,0.0,0.0,0.0,0.0,0.0,0.0,0.0,0.0,0.0,0.0,0.0,0.0,0.0,-1.3285,-1.304,-1.4394,0.0,0.0,0.0,0.0,0.0,0.0,0.0,0.0,0.0,0.0,-1.9306,-1.7144,-1.7352,0.0,0.0,-1.5863,-1.5384,-1.4258,-1.3624,-1.3192,-1.2981,-1.1797,0.0,0.0,0.0,0.0,0.0,0.0,0.0,0.0,0.0,0.0,0.0,0.0,0.0,0.0,0.0,0.0,0.0,0.0,0.0,0.0,0.0,0.0,0.0,0.0,0.0,0.0,0.0,0.0,0.0,0.0,0.0,0.0,0.0,0.0,0.0,0.0,0.0,0.0,0.0,0.0,0.0,0.0,0.0,0.0,0.0,0.0,0.0,0.0,0.0,0.0,0.0,0.0,-2.3563,-2.6562,-2.4316,-2.4258,-2.6562,-2.5527,-2.4375,-2.3144,-2.207,-2.123,0.0,0.0,0.0,0.0,0.0,0.0,0.0,0.0,0.0,0.0,0.0,0.0,0.0,0.0,0.0,0.0,0.0,0.0,0.0,0.0,0.0,0.0,0.0,0.0,0.0,0.0,0.0,0.0,-1.2785,-1.3121,-1.4368,0.0,0.0,0.0,0.0,0.0,0.0,0.0,0.0,0.0,0.0,-1.8366,-1.751,-1.7539,-1.7375,-1.6531,-1.6514,-1.6143,-1.487,-1.4152,-1.3599,-1.3202,0.0,0.0,0.0,0.0,0.0,0.0,0.0,0.0,0.0,0.0,0.0,0.0,0.0,0.0,0.0,0.0,0.0,0.0,0.0,0.0,0.0,0.0,0.0,0.0,0.0,0.0,0.0,0.0,0.0,0.0,0.0,0.0,0.0,0.0,0.0,0.0,0.0,0.0,0.0,0.0,0.0,0.0,0.0,0.0,0.0,0.0,0.0,0.0,0.0,0.0,0.0,0.0,0.0,-2.3855,-2.5684,-2.4043,-2.4004,-2.5644,-2.4121,-2.3262,-2.3066,-2.1523,-2.0625,-2.0605,0.0,0.0,0.0,0.0,0.0,0.0,0.0,0.0,0.0,0.0,0.0,0.0,0.0,0.0,0.0,0.0,0.0,0.0,0.0,0.0,0.0,0.0,0.0,0.0,0.0,0.0,-1.6017,-1.568,-1.5201,0.0,0.0,0.0,0.0,0.0,0.0,0.0,0.0,0.0,0.0,-1.6176,-1.742,-1.6561,-1.709,-1.7289,-1.6574,-1.7003,-1.6615,-1.4309,-1.3892,-1.4023,0.0,0.0,0.0,0.0,0.0,0.0,0.0,0.0,0.0,0.0,0.0,0.0,0.0,0.0,0.0,0.0,0.0,0.0,0.0,0.0,0.0,0.0,0.0,0.0,0.0,0.0,0.0,-2.4637,-2.4915,0.0,0.0,0.0,0.0,0.0,0.0,0.0,0.0,0.0,0.0,0.0,-2.5576,-2.5964,0.0,0.0,0.0,0.0,0.0,0.0,0.0,0.0,0.0,0.0,0.0,0.0,-2.3298,-2.548,-2.3476,-2.3437,-2.5586,-2.459,-2.3711,-2.3105,-2.2031,-2.1191,-2.0625,0.0,0.0,0.0,0.0,0.0,0.0,0.0,0.0,0.0,0.0,0.0,0.0,0.0,0.0,0.0,0.0,0.0,0.0,0.0,0.0,0.0,0.0,0.0,0.0,0.0,-1.4808,0.0,0.0,0.0,0.0,0.0,0.0,0.0,0.0,0.0,0.0,0.0,-1.6276,-1.5645,-1.6824,-1.7247,-1.5802,-1.6341,-1.6563,0.0,0.0,0.0,0.0,0.0,0.0,0.0,0.0,0.0,0.0,0.0,0.0,0.0,0.0,-1.4837,-1.616,-1.6565,-1.6747,-1.6884,0.0,0.0,0.0,0.0,0.0,0.0,0.0,0.0,0.0,0.0,0.0,0.0,0.0,0.0,0.0,0.0,-2.5746,0.0,0.0,0.0,0.0,0.0,0.0,0.0,0.0,-2.6084,-2.6568,-2.6425,-2.6844,-2.6891,0.0,-2.7276,-2.6577,0.0,0.0,0.0,0.0,0.0,0.0,0.0,0.0,-2.3389,-2.4935,-2.3547,-2.3728,-2.5565,-2.4843,-2.4004,-2.3144,-2.2031,-2.1035,-2.0195,-1.9883,-1.9746,0.0,0.0,0.0,0.0,0.0,0.0,0.0,0.0,0.0,0.0,0.0,0.0,0.0,0.0,0.0,0.0,0.0,0.0,0.0,0.0,0.0,0.0,0.0,-1.4757,0.0,0.0,0.0,0.0,0.0,0.0,0.0,0.0,0.0,-1.6965,-1.6174,-1.562,-1.5495,-1.6557,-1.6918,-1.5777,0.0,0.0,0.0,0.0,0.0,0.0,0.0,-1.5937,-1.5386,-1.5479,-1.552,-1.5207,-1.4826,-1.4862,-1.5681,0.0,0.0,-1.5783,-1.6114,-1.6204,-1.6064,-1.6108,-1.6089,-1.5874,-1.5949,-1.5967,0.0,0.0,0.0,0.0,0.0,0.0,0.0,0.0,-2.578,-2.6993,0.0,-2.646,0.0,0.0,0.0,0.0,0.0,0.0,0.0,0.0,-2.8231,-2.858,-2.6569,-2.742,-2.737,-2.6657,-2.8415,-2.7954,-2.5498,-2.4664,0.0,0.0,0.0,0.0,0.0,0.0,-2.4124,-2.4025,-2.423,-2.4807,-2.557,-2.4841,-2.3984,-2.3144,-2.1504,-2.0234,-1.9434,-2.0117,-1.9785,-1.8203,-1.9628,0.0,0.0,0.0,0.0,0.0,0.0,0.0,0.0,0.0,0.0,0.0,0.0,0.0,0.0,0.0,0.0,0.0,0.0,0.0,0.0,-1.4487,0.0,0.0,0.0,0.0,0.0,0.0,0.0,0.0,0.0,0.0,-1.5504,-1.5989,-1.5859,-1.4262,0.0,0.0,0.0,0.0,-1.7103,-1.5519,-1.6558,-1.7195,-1.6445,-1.6262,-1.618,-1.6149,0.0,0.0,-1.5635,-1.5129,-1.4833,-1.5521,-1.4971,-1.4405,-1.4447,-1.4971,-1.5311,-1.5209,-1.5632,-1.5833,-1.5228,-1.5517,-1.5799,-3.3555,0.0,0.0,0.0,0.0,-2.9389,-3.0023,-3.0864,-3.0245,-3.0057,-3.0057,-2.8124,0.0,0.0,0.0,0.0,0.0,0.0,-2.7333,-2.7373,-2.9002,-2.9777,-2.993,-3.0197,-2.9947,-2.928,-2.9254,-2.8222,-2.6365,-2.553,-2.5143,-2.5124,0.0,0.0,0.0,0.0,-2.4494,-2.5065,-2.46,-2.4378,-2.4475,-2.4442,-2.3707,-2.2324,-2.1172,-2.0488,-2.0234,-1.9883,-1.9727,-1.9824,-1.914,0.0,0.0,0.0,0.0,0.0,0.0,0.0,0.0,0.0,0.0,0.0,0.0,0.0,0.0,0.0,0.0,0.0,0.0,0.0,-1.8028,-1.5022,-1.4196,0.0,0.0,0.0,0.0,0.0,0.0,0.0,0.0,0.0,-1.7874,-1.6538,-1.604,0.0,0.0,-1.74,-1.7331,-1.705,-1.6474,-1.5386,0.0,0.0,0.0,-1.5884,-1.6048,-1.537,-1.4991,-1.4836,-1.5068,-1.4851,-1.4746,-1.4961,-1.4742,-1.4509,-1.4416,-1.4427,-1.4468,-1.4442,-1.4544,-1.4556,-1.4379,-1.4493,-1.4569,-3.7429,-3.5008,-3.2778,-3.1905,-3.2035,-3.2035,-3.2395,-3.2971,-3.2481,-3.237,-3.2407,-3.0437,-2.9471,-2.9248,-2.7798,0.0,0.0,0.0,-2.8774,-2.9364,-3.0208,-3.0988,-3.1603,-3.1738,-3.1409,-3.0681,-3.035,-2.9331,-2.7687,-2.7232,-2.6829,-2.6442,0.0,0.0,-2.4989,-2.4812,-2.4775,-2.4885,-2.4804,-2.4745,-2.4635,-2.4153,-2.3254,-2.1934,-2.1055,-2.0605,-2.0605,-2.0098,-1.9902,-2.0078,-1.9082,-1.7812,0.0,0.0,0.0,0.0,0.0,0.0,0.0,0.0,0.0,0.0,0.0,-2.0754,-2.11,0.0,0.0,0.0,-1.698,-1.6682,-1.6122,-1.465,0.0,0.0,0.0,0.0,0.0,0.0,0.0,-1.8459,-1.8727,-1.8985,-1.8974,-1.7963,-1.7639,-1.8797,-1.8284,-1.7782,-1.7716,0.0,-1.6355,-1.5823,-1.5494,-1.5367,-1.5562,-1.5696,-1.557,-1.4966,-1.4822,-1.4799,-1.4794,-1.4766,-1.4728,-1.4737,-1.4702,-1.4645,-1.4541,-1.4374,-1.4225,-1.4163,-1.41,-1.4051,-1.4051,-1.4033,-1.4023,-4.0661,-4.0416,-3.7368,-3.5497,-3.4606,-3.4643,-3.4216,-3.3398,-3.3484,-3.4246,-3.5306,-3.302,-3.237,-3.286,-3.0679,0.0,0.0,-3.0648,-3.1044,-3.12,-3.1848,-3.219,-3.2233,-3.2392,-3.2072,-3.1322,-3.1635,-3.0967,-2.9434,-2.939,-2.8951,-2.8043,-2.5688,-2.4463,-2.4447,-2.5198,-2.5043,-2.3979,-2.4979,-2.5459,-2.5368,-2.3816,-2.2627,-2.1797,-2.1016,-2.0605,-2.0605,-2.0605,-2.0195,-1.9355,-1.9297,-1.8105,-1.5605,0.0,0.0,0.0,0.0,0.0,0.0,0.0,0.0,0.0,0.0,0.0,0.0,0.0,0.0,0.0,-1.4009,0.0,-1.1774,-1.39,0.0,0.0,0.0,-1.8792,-1.7986,-1.7883,-1.7861,-1.7803,0.0,0.0,-1.9093,0.0,-2.001,-1.9204,-1.8471,-1.7982,-1.7915,-1.7331,-1.6783,-1.6724,-1.6062,-1.5799,-1.6444,-1.5863,-1.516,-1.4877,-1.4804,-1.4799,-1.4799,-1.4799,-1.4794,-1.4794,-1.4794,-1.4776,-1.4717,-1.4581,-1.4458,-1.4256,-1.4163,-1.4096,-1.4103,-1.4114,-1.4093,-4.3089,-4.302,-4.1627,-3.9844,-3.8005,-3.8655,-3.8079,-3.6816,-3.7392,-3.6835,-3.5417,-3.4191,-3.3398,-3.2953,-3.2395,-3.2481,-3.3099,-3.3285,-3.3371,-3.3431,-3.3606,-3.3791,-3.395,-3.3375,-3.3138,-3.3211,-3.2709,-3.1988,-3.111,-3.0502,-2.978,-2.8897,-2.7639,-2.6725,-2.6145,-2.6315,-2.599,-2.5101,-2.5352,-2.4884,-2.3631,-2.2623,-2.1689,-2.0852,-2.0618,-2.0544,-2.0605,-2.0605,-2.0195,-1.9355,-1.9297,-1.8105,-1.5566,-1.793,0.0,0.0,0.0,0.0,0.0,0.0,0.0,0.0,0.0,-2.0986,-2.1841,0.0,-1.9846,0.0,-1.4541,-1.2944,-1.4283,-1.5438,0.0,0.0,-1.905,-1.982,-1.9571,-1.9528,-1.9519,-1.9506,-1.9731,-1.9923,-1.998,-2.0171,-2.0213,-2.001,-1.9867,-1.9747,-1.9673,-1.9006,-1.8266,-1.7709,-1.7379,-1.7325,-1.7326,-1.6635,-1.5762,-1.4997,-1.4854,-1.4799,-1.4818,-1.4799,-1.4799,-1.4799,-1.4799,-1.4771,-1.4759,-1.4658,-1.4592,-1.4398,-1.4269,-1.4177,-1.4183,-1.4159,-1.4163,-4.3929,-4.3905,-4.3506,-4.2537,-4.1256,-4.1033,-4.0211,-3.9078,-3.9491,-3.8507,-3.6513,-3.5696,-3.5052,-3.4643,-3.4637,-3.4884,-3.5293,-3.5312,-3.5312,-3.5324,-3.5312,-3.5212,-3.4988,-3.4611,-3.4134,-3.3626,-3.3287,-3.2768,-3.2102,-3.1674,-3.1096,-3.0301,-2.9817,-2.898,-2.7835,-2.7095,-2.6466,-2.6029,-2.5681,-2.4844,-2.3587,-2.2744,-2.2128,-2.1664,-2.0897,-2.0731,-2.1152,-2.078,-2.0507,-2.0449,-2.0078,-1.8867,-1.6738,-1.8008,-1.7598,0.0,0.0,0.0,0.0,0.0,0.0,0.0,0.0,0.0,0.0,0.0,-1.9468,0.0,-1.6077,-1.4673,-1.6781,-1.7314,-1.7787,-1.831,-1.9122,-1.9607,-1.9581,-1.9557,-1.9706,-2.006,-2.0165,-2.0212,-2.0287,-2.0334,-2.0331,-2.0331,-2.041,-2.0255,-1.9748,-1.9054,-1.8528,-1.8488,-1.816,-1.7717,-1.7304,-1.7096,-1.6624,-1.574,-1.578,-1.5979,-1.594,-1.5906,-1.5911,-1.5906,-1.5906,-1.5901,-1.5865,-1.5833,-1.5668,-1.5179,-1.4983,-1.4738,-1.4347,-1.4249,-1.4229,-4.3976,-4.3915,-4.3958,-4.3989,-4.3893,-4.25,-4.1441,-4.0698,-4.0698,-3.9765,-3.8154,-3.7243,-3.6891,-3.7015,-3.6983,-3.7002,-3.7002,-3.7127,-3.7071,-3.6866,-3.6866,-3.6439,-3.5671,-3.5729,-3.5008,-3.365,-3.3694,-3.3371,-3.2748,-3.2798,-3.2462,-3.1845,-3.1715,-3.0948,-2.9496,-2.7754,-2.6754,-2.6547,-2.5952,-2.5243,-2.4367,-2.3558,-2.3123,-2.3036,-2.1402,-2.0872,-2.166,-2.0932,-2.0873,-2.166,-2.1016,-1.9922,-1.8437,-1.7715,-1.7363,0.0,-1.746,0.0,0.0,0.0,0.0,0.0,0.0,0.0,0.0,-1.9763,-1.9117,-2.0915,-1.7891,-1.6648,-1.8603,-1.9013,-1.8862,-1.8148,-1.8651,-1.9072,-1.9075,-1.9075,-1.9335,-2.0035,-2.0259,-2.0381,-2.032,-2.0447,-2.0551,-2.0429,-2.046,-2.0203,-1.9381,-1.8769,-1.8665,-1.9269,-1.8723,-1.8161,-1.7357,-1.7542,-1.7594,-1.6734,-1.6926,-1.7468,-1.7264,-1.7256,-1.7283,-1.7248,-1.7168,-1.7224,-1.7299,-1.7199,-1.6922,-1.6211,-1.6013,-1.5606,-1.4635,-1.4319,-1.4336,-4.4358,-4.3915,-4.3913,-4.3942,-4.3968,-4.367,-4.3076,-4.2352,-4.2352,-4.1441,-3.9839,-3.8321,-3.8037,-3.8618,-3.8655,-3.8655,-3.8692,-3.9394,-3.8985,-3.7671,-3.7671,-3.7243,-3.6458,-3.5857,-3.5476,-3.5293,-3.469,-3.4071,-3.3419,-3.3428,-3.3086,-3.2426,-3.1776,-3.1379,-3.1116,0.0,0.0,0.0,-2.6223,-2.6076,-2.5255,-2.4427,-2.367,-2.2999,-2.1327,0.0,-2.0732,-2.0595,-2.06,-2.082,-2.0684,0.0,0.0,0.0,0.0,0.0,0.0,0.0,0.0,0.0,0.0,0.0,-1.8765,-1.8421,-2.2307,-2.1675,-2.0025,-1.7833,-1.8636,-1.8691,-1.7173,-1.8861,-1.9973,-1.9769,-1.988,-1.9945,-1.9943,-1.9958,-2.002,-2.0164,-2.0862,-2.109,-2.0605,-2.0978,-2.1166,-2.0612,-2.0463,-2.041,-2.0188,-2.0011,-2.0061,-2.0199,-1.9983,-1.9646,-1.8831,-1.8709,-1.849,-1.7708,-1.7451,-1.76,-1.7572,-1.7525,-1.7452,-1.7388,-1.7299,-1.7356,-1.7356,-1.7288,-1.7298,-1.6991,-1.6944,-1.6415,-1.4769,-1.4386,-1.4551,-4.3845,0.0,-4.3865,-4.3913,0.0,-4.3989,-4.3763,-4.3373,-4.2965,-4.211,-4.0954,-4.0085,-3.9733,-3.9733,-3.9751,-3.951,-3.912,-3.9565,-3.9287,-3.8507,-3.8488,-3.8079,-3.7281,-3.6866,-3.6521,-3.6204,-3.5432,-3.4941,-3.4682,-3.4297,-3.3762,-3.3088,-3.2359,-3.1857,-3.1482,-2.9115,-2.7104,-2.5479,-2.5854,-2.5858,-2.5444,-2.4621,-2.4217,-2.4182,0.0,0.0,0.0,0.0,0.0,0.0,0.0,0.0,0.0,0.0,0.0,-2.1933,-2.2285,-2.2519,-2.2519,-2.2128,-2.242,-2.3586,-2.1703,-2.0457,-2.0524,-2.1217,-2.1151,-1.99,-2.0882,-2.1043,-1.9827,-2.0777,-2.15,-2.1477,-2.1088,-2.0849,-2.0847,-2.0869,-2.0881,-2.0993,-2.1713,-2.211,-2.1737,-2.1621,-2.1745,-2.1632,-2.098,-2.0655,-2.0911,-2.0728,-2.0507,-2.0507,-2.0507,-2.0194,-1.9444,-1.9541,-1.938,-1.8609,-1.8654,-1.8862,-1.8792,-1.8726,-1.8646,-1.8607,-1.8571,-1.8543,-1.8543,-1.8543,-1.8406,-1.7965,-1.7841,-1.7432,-1.6083,-1.5698,-1.5721,-4.3725,-4.3716,-4.3935,-4.3994,-4.3899,-4.3942,-4.3971,-4.3949,0.0,0.0,0.0,-4.1664,-4.1219,-4.062,-4.0754,-4.0271,-3.9361,-3.9472,-3.9398,-3.9101,-3.9101,-3.8729,-3.8116,-3.7949,-3.7541,-3.6891,-3.6105,-3.5733,-3.5724,-3.5079,-3.4419,-3.3772,-3.294,-3.2,-3.0916,-2.9045,-2.7334,-2.5918,-2.5708,-2.5621,-2.5608,-2.4829,-2.4757,-2.5476,-2.3806,-2.3295,-2.4084,-2.2718,-2.2324,-2.3124,-2.2519,-2.2402,-2.3047,-2.3144,-2.293,-2.2402,-2.2344,-2.2656,-2.3359,-2.2754,-2.3143,-2.5042,-2.4641,-2.2756,-1.9074,-2.0743,-2.2221,-2.2898,-2.292,-2.2866,-2.2835,-2.2806,-2.2797,-2.2778,-2.2158,-2.1727,-2.1737,-2.1795,-2.1823,-2.1926,-2.2639,-2.3148,-2.2959,-2.2529,-2.2335,-2.2668,-2.185,-2.1151,-2.1636,-2.109,-2.0507,-2.0507,-2.0507,-2.0233,-1.974,-1.991,-2.0059,-1.9433,-1.9812,-2.025,-2.0148,-2.0031,-1.9946,-1.9755,-1.9847,-1.9769,-1.977,-1.9688,-1.9557,-1.8868,-1.8718,-1.8538,-1.7868,-1.7497,-1.7323,-4.5533,-4.407,-4.4488,-4.4346,-4.382,-4.3899,-4.3961,-4.3949,-4.315,-4.2742,-4.2593,-4.1887,-4.1534,-4.1456,-4.2147,-4.1627,-4.0304,-4.0936,-4.0476,0.0,-3.9101,-3.9045,-3.8897,-3.8228,-3.7856,-3.7671,-3.6904,-3.6173,-3.5578,-3.5429,-3.5065,-3.4323,-3.2917,-3.1219,-2.9386,-2.8918,-2.8357,-2.756,-2.6872,-2.651,-2.6491,-2.5661,-2.5284,-2.5335,-2.3809,-2.2956,-2.309,-2.2931,-2.2898,-2.3104,-2.2986,-2.2988,-2.3086,-2.3125,-2.3379,-2.3984,-2.4062,-2.4102,-2.4219,-2.4121,-2.3867,-2.3533,-2.4021,-2.3784,-2.2546,-2.2699,-2.2948,-2.3075,-2.3024,-2.2891,-2.2877,-2.2886,-2.2917,-2.2855,-2.2701,-2.262,-2.2624,-2.267,-2.2733,-2.2753,-2.3542,-2.3827,-2.3378,-2.3555,-2.3581,-2.3156,-2.2804,-2.2649,-2.2454,-2.1481,-2.0624,-2.0507,-2.0507,-2.0449,-2.0369,-2.0325,-2.0313,-2.023,-2.0255,-2.035,-2.0277,-2.0207,-2.0092,-1.9931,-1.9893,-1.987,-1.9819,-1.9801,-1.9713,-1.9532,-1.9501,-1.9438,-1.9251,-1.9144,-1.8844,-4.4811,-4.4098,-4.4327,-4.4124,-4.3703,-4.3802,-4.3867,-4.3862,-4.3511,-4.3407,-4.341,-4.3039,-4.2667,-4.2259,-4.2166,-4.1497,-4.0416,-4.029,-3.9825,-3.912,-3.9101,-3.9101,-3.9064,-3.8729,-3.8544,-3.8488,-3.7726,-3.6941,-3.6197,-3.5714,-3.5144,-3.4318,-3.2847,-3.1421,-3.0144,-2.9289,-2.8734,-2.8434,-2.7722,-2.7113,-2.666,-2.6265,-2.5851,-2.5412,-2.4599,-2.4237,-2.4284,-2.3841,-2.3628,-2.3762,-2.3326,-2.3297,-2.3769,-2.3789,-2.3984,-2.4375,-2.4414,-2.4414,-2.4414,-2.4844,-2.4726,-2.3925,-2.4609,-2.496,-2.4548,-2.407,-2.378,-2.3777,-2.4107,-2.4324,-2.4272,-2.4223,-2.4197,-2.4159,-2.3793,-2.3531,-2.3562,-2.3621,-2.3645,-2.3745,-2.449,-2.4892,-2.4516,-2.4377,-2.4413,-2.4305,-2.4067,-2.3559,-2.3098,-2.2357,-2.1852,-2.1772,-2.1109,-2.076,-2.1015,-2.0738,-2.048,-2.04,-2.0388,-2.0383,-2.036,-2.0324,-2.0239,-2.0146,-2.006,-1.9986,-1.9917,-1.9858,-1.9848,-1.9807,-1.9801,-1.9801,-1.9789,-1.9699,-1.939,-4.4259,-4.3958,-4.4237,-4.4017,-4.3497,-4.3583,-4.3617,-4.3651,-4.3736,-4.3851,-4.3961,-4.3961,-4.3624,-4.3008,-4.2396,-4.1705,-4.0921,-4.0234,-3.9751,-3.9417,-3.938,-3.9287,-3.912,-3.9101,-3.9101,-3.9027,-3.8451,-3.7745,-3.6978,-3.616,-3.5138,-3.3961,-3.2825,-3.187,-3.103,-2.9962,-2.9315,-2.9153,-2.8691,-2.7848,-2.6659,-2.6616,-2.6208,-2.5442,-2.5322,-2.535,-2.541,-2.4768,-2.4429,-2.4514,-2.3989,-2.397,-2.4627,-2.4707,-2.4687,-2.4687,-2.4687,-2.4687,-2.4727,-2.5312,-2.541,-2.4766,-2.5312,-2.5703,-2.5644,-2.5095,-2.4675,-2.4708,-2.5161,-2.5493,-2.5396,-2.539,-2.5383,-2.5297,-2.4791,-2.4443,-2.4467,-2.4548,-2.4591,-2.4686,-2.527,-2.5665,-2.5513,-2.5027,-2.4868,-2.5259,-2.4857,-2.4075,-2.3652,-2.32,-2.2843,-2.3115,-2.2008,-2.1092,-2.1558,-2.1228,-2.0837,-2.0694,-2.0922,-2.0856,-2.0682,-2.0492,-2.0469,-2.0383,-2.0208,-2.0101,-2.005,-1.9974,-1.9909,-1.9867,-1.9825,-1.9801,-1.9795,-1.9725,-1.9594,-4.5508,-4.4087,-4.4686,-4.4299,-4.3105,-4.3069,-4.3105,-4.3212,-4.3599,-4.3786,-4.3802,-4.382,-4.3814,-4.3786,-4.3672,-4.3166,-4.2519,-4.2482,-4.1627,-4.0378,-4.0285,-3.9844,-3.9194,-3.912,-3.9101,-3.9082,-3.8971,-3.8488,-3.7708,-3.6904,-3.5417,-3.3361,-3.2969,-3.2243,-3.1007,-3.0861,-3.0581,-3.0013,-3.0113,-2.9006,-2.6774,-2.6621,-2.6197,-2.5332,-2.5308,-2.5293,-2.5322,-2.5298,-2.5281,-2.5308,-2.5307,-2.5368,-2.5472,-2.5544,-2.5566,-2.5566,-2.5566,-2.5586,-2.5566,-2.5664,-2.5664,-2.5605,-2.5625,-2.5703,-2.5703,-2.5624,-2.5563,-2.5534,-2.5552,-2.559,-2.5568,-2.5546,-2.5467,-2.5414,-2.5339,-2.535,-2.5258,-2.5399,-2.5481,-2.5463,-2.5585,-2.5689,-2.5645,-2.5473,-2.5479,-2.5531,-2.497,-2.4608,-2.4861,-2.3541,-2.3001,-2.4222,-2.3229,-2.185,-2.183,-2.1697,-2.1597,-2.1634,-2.2228,-2.1931,-2.1147,-2.1039,-2.1345,-2.045,-2.0301,-2.0235,-2.0127,-2.0031,-1.9998,-1.9953,-1.9889,-1.9807,-1.9801,-1.9782,-1.9706,-4.5572,-4.3845,-4.42,-4.3664,-4.2589,-4.2521,-4.2694,-4.2995,-4.3196,-4.341,-4.3618,-4.3617,-4.3684,-4.3816,-4.3317,-4.2939,-4.2721,-4.2239,-4.1713,-4.1126,-4.1122,-4.0657,-3.9918,-3.9863,-3.9621,-3.912,-3.9101,-3.8692,-3.7801,-3.6612,-3.5473,-3.4451,-3.354,-3.2683,-3.2112,-3.1823,-3.1343,-3.0741,-3.0892,-3.0049,-2.8321,-2.8082,-2.7428,-2.6231,-2.6058,-2.5808,-2.5365,-2.5326,-2.5363,-2.5394,-2.5471,-2.5568,-2.5595,-2.5658,-2.5703,-2.5703,-2.5703,-2.5703,-2.5703,-2.5703,-2.5703,-2.5703,-2.5703,-2.5703,-2.5703,-2.5703,-2.5703,-2.57,-2.5673,-2.5641,-2.5613,-2.5572,-2.5539,-2.5483,-2.5489,-2.5507,-2.5521,-2.5576,-2.5607,-2.5668,-2.5697,-2.5698,-2.5689,-2.5634,-2.5601,-2.5582,-2.5243,-2.5237,-2.5457,-2.4628,-2.434,-2.4536,-2.3847,-2.3365,-2.3151,-2.2765,-2.2552,-2.2513,-2.2743,-2.2466,-2.1667,-2.1373,-2.1396,-2.0573,-2.0471,-2.0386,-2.0245,-2.0135,-2.0055,-2.0017,-1.9971,-1.9883,-1.982,-1.9801,-1.9776,-4.5425,-4.3731,-4.3214,-4.2705,-4.2213,-4.2216,-4.2458,-4.2882,-4.3013,-4.3214,-4.3479,-4.3479,-4.3583,-4.361,-4.3056,-4.2881,-4.2905,-4.2387,-4.2026,-4.1932,-4.1895,-4.1464,-4.0787,-4.0471,-4.01,-3.951,-3.9194,-3.8692,-3.7856,-3.6811,-3.6067,-3.5659,-3.4383,-3.3559,-3.3273,-3.2719,-3.1966,-3.1107,-3.1259,-3.0736,-2.9543,-2.9431,-2.8544,-2.6794,-2.637,-2.5942,-2.5346,-2.5308,-2.5331,-2.5364,-2.5441,-2.549,-2.5572,-2.5628,-2.568,-2.5702,-2.5703,-2.5703,-2.5703,-2.5703,-2.5703,-2.5703,-2.5703,-2.5703,-2.5703,-2.5703,-2.5703,-2.5703,-2.5702,-2.5677,-2.5638,-2.5632,-2.5595,-2.5544,-2.5544,-2.5565,-2.5598,-2.5607,-2.5647,-2.5684,-2.5706,-2.5704,-2.5696,-2.5647,-2.5619,-2.5619,-2.5614,-2.5627,-2.5552,-2.5366,-2.4975,-2.4702,-2.4477,-2.4255,-2.4255,-2.3772,-2.3387,-2.3445,-2.3562,-2.3484,-2.2435,-2.2238,-2.1886,-2.1418,-2.1002,-2.0584,-2.0401,-2.0257,-2.0118,-2.0086,-2.0041,-1.9969,-1.986,-1.9843,-1.9819,-4.5294,-4.317,-4.1643,-4.1553,-4.2195,-4.2175,-4.2438,-4.2825,-4.3214,-4.3463,-4.3444,-4.3462,-4.3479,-4.3513,-4.349,-4.361,-4.3712,-4.3601,-4.3225,-4.2693,-4.2656,-4.2257,-4.1534,-4.0787,-4.0416,-4.029,-3.9658,-3.8859,-3.8042,-3.7801,-3.7424,-3.6612,-3.5751,-3.4952,-3.4215,-3.3605,-3.2449,-3.1233,-3.1311,-3.0985,-3.0174,-3.0209,-2.9052,-2.6923,-2.5865,-2.5519,-2.5346,-2.5308,-2.5293,-2.5298,-2.5375,-2.5441,-2.5507,-2.559,-2.5645,-2.5699,-2.5702,-2.5702,-2.5702,-2.5703,-2.5703,-2.5703,-2.5703,-2.5703,-2.5703,-2.5703,-2.5703,-2.5703,-2.5703,-2.5703,-2.5699,-2.5677,-2.567,-2.5602,-2.5637,-2.5655,-2.5607,-2.5651,-2.5684,-2.5687,-2.5687,-2.5706,-2.5706,-2.5686,-2.5683,-2.5682,-2.5696,-2.5687,-2.5602,-2.4994,-2.4856,-2.5116,-2.4885,-2.4316,-2.4316,-2.4316,-2.4277,-2.4316,-2.4533,-2.4785,-2.4047,-2.3328,-2.2782,-2.2216,-2.1692,-2.1182,-2.0686,-2.0362,-2.0223,-2.016,-2.012,-2.0021,-1.9915,-1.9896,-1.987,-4.5268,-4.3138,-4.205,-4.1539,-4.1386,-4.1373,-4.1618,-4.2011,-4.216,-4.2578,-4.305,-4.3123,-4.3268,-4.3479,-4.3532,-4.36,-4.3667,-4.3667,-4.357,-4.3412,-4.3439,-4.3061,-4.2332,-4.2025,-4.1646,-4.1163,-4.0847,-4.029,-3.9449,-3.8451,-3.7764,-3.7405,-3.6649,-3.5844,-3.5132,-3.4821,-3.3956,-3.2524,-3.2062,-3.1535,-3.0856,-2.9958,-2.8995,-2.8236,-2.739,-2.6697,-2.6154,-2.5596,-2.5308,-2.5308,-2.535,-2.5414,-2.5453,-2.5537,-2.5609,-2.5625,-2.5677,-2.5701,-2.5701,-2.5701,-2.5702,-2.5703,-2.5703,-2.5703,-2.5703,-2.5703,-2.5703,-2.5703,-2.5703,-2.5703,-2.5703,-2.5702,-2.57,-2.5673,-2.5672,-2.5691,-2.5684,-2.5685,-2.5687,-2.5687,-2.5687,-2.5687,-2.5687,-2.5687,-2.5687,-2.5707,-2.5704,-2.5698,-2.5671,-2.5348,-2.5274,-2.5455,-2.5357,-2.5145,-2.5143,-2.5143,-2.5132,-2.519,-2.5271,-2.4938,-2.4355,-2.4097,-2.3628,-2.2835,-2.2317,-2.184,-2.1335,-2.0692,-2.0508,-2.0284,-2.0229,-2.0102,-1.999,-1.995,-1.9892,-4.4958,-4.3517,-4.2423,-4.1795,-4.1452,-4.1198,-4.1328,-4.1692,-4.1717,-4.2074,-4.2616,-4.2825,-4.3068,-4.3286,-4.3286,-4.3339,-4.341,-4.3496,-4.3634,-4.3736,-4.3783,-4.3536,-4.3138,-4.2869,-4.2507,-4.1999,-4.1683,-4.1196,-4.0383,-3.9263,-3.8581,-3.8265,-3.7466,-3.6835,-3.629,-3.5789,-3.484,-3.368,-3.2858,-3.209,-3.1214,-3.0235,-2.9607,-2.9339,-2.87,-2.7736,-2.6659,-2.6024,-2.5558,-2.5356,-2.5335,-2.5382,-2.5403,-2.5518,-2.5574,-2.5586,-2.5609,-2.5645,-2.5671,-2.5654,-2.5677,-2.5701,-2.5702,-2.5703,-2.5703,-2.5703,-2.5703,-2.5703,-2.5703,-2.5703,-2.5703,-2.5703,-2.5702,-2.5701,-2.5699,-2.5696,-2.5694,-2.5691,-2.5689,-2.5688,-2.5687,-2.5687,-2.5687,-2.5687,-2.5687,-2.5687,-2.5687,-2.5704,-2.5698,-2.5692,-2.5686,-2.5632,-2.5595,-2.552,-2.5491,-2.5415,-2.5413,-2.5471,-2.5485,-2.5151,-2.4932,-2.4735,-2.4332,-2.3534,-2.2934,-2.2478,-2.1891,-2.1208,-2.0835,-2.0591,-2.0311,-2.0168,-2.0073,-1.9991,-1.9926,-4.4363,-4.4052,-4.2664,-4.2285,-4.2369,-4.1763,-4.1766,-4.2008,-4.2053,-4.2053,-4.2218,-4.2616,-4.2806,-4.2882,-4.2882,-4.29,-4.2957,-4.3214,-4.3426,-4.3548,-4.3546,-4.3647,-4.3668,-4.3106,-4.2854,-4.2745,-4.2017,-4.1289,-4.0624,-4.0378,-3.9881,-3.9101,-3.8377,-3.7926,-3.7819,-3.6328,-3.5138,-3.4269,-3.3549,-3.2477,-3.1101,-3.1075,-3.0784,-3.0115,-2.9448,-2.836,-2.6802,-2.6596,-2.612,-2.5404,-2.5293,-2.5317,-2.5398,-2.5463,-2.5485,-2.5487,-2.5502,-2.5535,-2.559,-2.5608,-2.5644,-2.5676,-2.5701,-2.5702,-2.5703,-2.5703,-2.5703,-2.5703,-2.5703,-2.5703,-2.5703,-2.5703,-2.5703,-2.5702,-2.5702,-2.57,-2.5696,-2.5694,-2.5692,-2.5688,-2.5687,-2.5687,-2.5687,-2.5687,-2.5687,-2.5687,-2.5687,-2.5707,-2.5705,-2.5698,-2.5692,-2.5687,-2.5655,-2.5621,-2.5604,-2.5608,-2.559,-2.5593,-2.5585,-2.5446,-2.5359,-2.5214,-2.4959,-2.4293,-2.3736,-2.3253,-2.2508,-2.1884,-2.1644,-2.1361,-2.0893,-2.0462,-2.0382,-2.0321,-1.9996,-4.4751,-4.4276,-4.3793,-4.3022,-4.2267,-4.1955,-4.1667,-4.13,-4.1283,-4.1445,-4.1713,-4.1885,-4.2115,-4.2378,-4.2418,-4.2418,-4.2438,-4.2577,-4.2789,-4.3069,-4.316,-4.3249,-4.33,-4.3391,-4.3497,-4.341,-4.2786,-4.2314,-4.198,-4.1479,-4.0791,-4.0048,-3.9733,-3.899,-3.7949,-3.6853,-3.5919,-3.5045,-3.3748,-3.2843,-3.2391,-3.1506,-3.0906,-3.0736,-3.0152,-2.9251,-2.8217,-2.7168,-2.6212,-2.5365,-2.5308,-2.5303,-2.535,-2.5402,-2.5425,-2.5436,-2.5483,-2.5513,-2.5537,-2.5591,-2.5636,-2.5636,-2.569,-2.5699,-2.5702,-2.5703,-2.5703,-2.5703,-2.5703,-2.5703,-2.5703,-2.5703,-2.5742,-2.5703,-2.5703,-2.5702,-2.57,-2.5697,-2.5694,-2.5691,-2.5689,-2.5687,-2.5687,-2.5687,-2.5687,-2.5687,-2.5687,-2.5687,-2.5707,-2.5704,-2.5702,-2.5701,-2.5671,-2.5639,-2.5648,-2.563,-2.561,-2.5607,-2.5613,-2.5601,-2.5592,-2.5522,-2.5284,-2.5008,-2.4482,-2.395,-2.3182,-2.2665,-2.241,-2.2102,-2.1669,-2.1299,-2.0982,-2.0665,-2.0351,-4.5147,-4.4682,-4.4414,-4.3603,-4.2447,-4.2171,-4.1602,-4.0963,-4.0894,-4.1041,-4.126,-4.1445,-4.1648,-4.1906,-4.1948,-4.1948,-4.1927,-4.1796,-4.1966,-4.2418,-4.2827,-4.2958,-4.3032,-4.3355,-4.3563,-4.3555,-4.316,-4.2884,-4.2779,-4.2187,-4.1538,-4.0925,-4.0426,-3.9795,-3.8711,-3.7411,-3.642,-3.5739,-3.4339,-3.3376,-3.2977,-3.1958,-3.1195,-3.0938,-3.0356,-2.9663,-2.8891,-2.7929,-2.6938,-2.5946,-2.5495,-2.5308,-2.5293,-2.535,-2.5361,-2.5354,-2.543,-2.5568,-2.5871,-2.6022,-2.6023,-2.605,-2.6079,-2.5948,-2.5767,-2.5656,-2.5661,-2.5703,-2.5703,-2.5703,-2.5723,-2.6055,-2.6152,-2.6191,-2.5879,-2.5722,-2.5702,-2.57,-2.5696,-2.5694,-2.5691,-2.5689,-2.5688,-2.5687,-2.5687,-2.5687,-2.5687,-2.5687,-2.5687,-2.5687,-2.5687,-2.5706,-2.5682,-2.5675,-2.5687,-2.5673,-2.563,-2.5625,-2.5599,-2.5607,-2.5598,-2.5517,-2.5356,-2.5232,-2.4836,-2.476,-2.4101,-2.3477,-2.3077,-2.2748,-2.2532,-2.2106,-2.1708,-2.111,-2.0764,-4.5466,-4.5363,-4.4665,-4.3966,-4.3189,-4.2465,-4.174,-4.1067,-4.0912,-4.0918,-4.0995,-4.1283,-4.1428,-4.1468,-4.1472,-4.149,-4.1401,-4.1163,-4.1209,-4.167,-4.2279,-4.2732,-4.2865,-4.2996,-4.3069,-4.3104,-4.3139,-4.3016,-4.2749,-4.2541,-4.2147,-4.1416,-4.0627,-4.0084,-3.9678,-3.7927,-3.6877,-3.6376,-3.5052,-3.3949,-3.3192,-3.2473,-3.1829,-3.1071,-3.04,-2.9755,-2.9276,-2.8706,-2.7936,-2.6715,-2.5731,-2.5308,-2.5308,-2.5308,-2.5298,-2.5317,-2.5327,-2.587,-2.6468,-2.6567,-2.6695,-2.6848,-2.6723,-2.6568,-2.6075,-2.6119,-2.6118,-2.6129,-2.6093,-2.6016,-2.6172,-2.6621,-2.7012,-2.6953,-2.6406,-2.5977,-2.5898,-2.5916,-2.5933,-2.5892,-2.5792,-2.5733,-2.5749,-2.5689,-2.5688,-2.5688,-2.5688,-2.5687,-2.5687,-2.5687,-2.5687,-2.5706,-2.5705,-2.5703,-2.5696,-2.5686,-2.5669,-2.5636,-2.5627,-2.5604,-2.5592,-2.5503,-2.5423,-2.5308,-2.5205,-2.5186,-2.4992,-2.4296,-2.3957,-2.385,-2.3478,-2.2946,-2.2267,-2.1602,-2.0923,-4.6276,-4.6199,-4.5432,-4.4682,-4.3966,-4.3207,-4.243,-4.1688,-4.1136,-4.0998,-4.0959,-4.0995,-4.1105,-4.1047,-4.1065,-4.1065,-4.1041,-4.0965,-4.0935,-4.1134,-4.16,-4.2074,-4.236,-4.2465,-4.2506,-4.2602,-4.2849,-4.2941,-4.2614,-4.274,-4.2321,-4.1343,-4.13,-4.0726,-3.9708,-3.8803,-3.7766,-3.6682,-3.5713,-3.4717,-3.3912,-3.3111,-3.2691,-3.2378,-3.1202,-3.0518,-3.0118,-2.8745,-2.7573,-2.6657,-2.5769,-2.5308,-2.5308,-2.5308,-2.5327,-2.5442,-2.5885,-2.6337,-2.6588,-2.6706,-2.7024,-2.7547,-2.7228,-2.7006,-2.7437,-2.7468,-2.75,-2.754,-2.7592,-2.7558,-2.7617,-2.7793,-2.793,-2.7851,-2.7266,-2.6934,-2.7246,-2.7031,-2.6659,-2.6658,-2.6676,-2.6401,-2.6029,-2.585,-2.5829,-2.579,-2.5788,-2.5707,-2.5726,-2.5687,-2.5687,-2.5687,-2.5707,-2.5706,-2.5703,-2.5694,-2.5686,-2.566,-2.564,-2.5605,-2.5559,-2.5495,-2.541,-2.5317,-2.5225,-2.519,-2.5193,-2.4885,-2.4841,-2.4669,-2.4077,-2.337,-2.259,-2.1868,-2.1027,-4.6889,-4.6579,-4.6086,-4.5285,-4.4328,-4.3828,-4.3207,-4.2534,-4.2068,-4.1654,-4.1429,-4.136,-4.1188,-4.0912,-4.0894,-4.0894,-4.0894,-4.0894,-4.0894,-4.0965,-4.1351,-4.167,-4.1885,-4.1955,-4.1979,-4.208,-4.2366,-4.2485,-4.2505,-4.262,-4.2273,-4.1821,-4.1535,-4.0926,-4.0078,-3.9033,-3.8195,-3.7054,-3.6062,-3.513,-3.4649,-3.3512,-3.2974,-3.272,-3.1767,-3.1109,-3.0612,-2.9091,-2.7707,-2.6699,-2.5808,-2.5308,-2.5308,-2.5308,-2.5462,-2.5788,-2.6038,-2.6423,-2.74,-2.7412,-2.761,-2.8198,-2.7974,-2.79,-2.8,-2.8094,-2.8137,-2.814,-2.8242,-2.8276,-2.8378,-2.8613,-2.9004,-2.9238,-2.8613,-2.8164,-2.834,-2.7461,-2.7285,-2.7401,-2.7518,-2.74,-2.6833,-2.6772,-2.6575,-2.6397,-2.6317,-2.6061,-2.5805,-2.5747,-2.5687,-2.5687,-2.5687,-2.5707,-2.5706,-2.5701,-2.5694,-2.5671,-2.5657,-2.5609,-2.5557,-2.549,-2.541,-2.5317,-2.5253,-2.521,-2.5216,-2.5216,-2.5134,-2.4822,-2.432,-2.3779,-2.3043,-2.2121,-2.1294,-4.7441,-4.6793,-4.6665,-4.5803,-4.4673,-4.438,-4.388,-4.3379,-4.3103,-4.2706,-4.2223,-4.205,-4.1619,-4.1015,-4.0981,-4.0894,-4.0894,-4.0894,-4.0894,-4.1012,-4.1232,-4.1423,-4.1445,-4.1578,-4.1583,-4.1626,-4.1644,-4.1927,-4.2098,-4.2015,-4.2098,-4.1887,-4.1262,-4.0908,-4.0456,-3.9304,-3.8345,-3.7675,-3.6528,-3.5618,-3.5101,-3.4023,-3.3377,-3.2982,-3.2339,-3.1461,-3.0696,-2.9529,-2.8338,-2.6935,-2.5956,-2.5654,-2.5596,-2.5596,-2.5885,-2.6544,-2.65,-2.7044,-2.8453,-2.8305,-2.8382,-2.9022,-2.9118,-2.8948,-2.8574,-2.855,-2.8623,-2.8734,-2.8464,-2.8706,-2.8842,-2.9315,-2.9902,-3.0293,-2.9941,-2.9238,-2.8613,-2.7793,-2.7578,-2.8261,-2.8417,-2.8436,-2.8319,-2.824,-2.7985,-2.7163,-2.6946,-2.6514,-2.6121,-2.5866,-2.5787,-2.5687,-2.5687,-2.5687,-2.5687,-2.5707,-2.5702,-2.5696,-2.5663,-2.5621,-2.5583,-2.5509,-2.5421,-2.5337,-2.5296,-2.5248,-2.5225,-2.522,-2.5222,-2.5071,-2.465,-2.4167,-2.3569,-2.2538,-2.1606,-4.8465,-4.8224,-4.7069,-4.6424,-4.5941,-4.4829,-4.4225,-4.4035,-4.3465,-4.3189,-4.2844,-4.2327,-4.1981,-4.174,-4.1274,-4.0894,-4.1015,-4.0998,-4.0894,-4.0894,-4.0965,-4.1018,-4.1094,-4.1328,-4.1328,-4.1255,-4.1401,-4.1445,-4.1356,-4.1534,-4.1468,-4.1253,-4.135,-4.1209,-4.0783,-4.0257,-3.9511,-3.86,-3.7612,-3.6533,-3.5596,-3.495,-3.4281,-3.3702,-3.297,-3.1961,-3.083,-2.9908,-2.9126,-2.8274,-2.719,-2.6638,-2.6942,-2.6621,-2.6774,-2.7428,-2.8005,-2.8434,-2.8934,-2.8992,-2.9204,-2.9852,-2.9544,-2.9344,-2.9919,-2.9834,-2.9905,-2.9997,-3.0053,-2.9944,-3.0012,-3.0274,-3.0533,-3.0576,-3.0173,-2.9823,-2.9975,-2.9492,-2.9082,-2.9219,-2.9297,-2.9082,-2.8476,-2.8515,-2.8299,-2.7947,-2.7516,-2.7006,-2.6535,-2.6083,-2.5847,-2.5689,-2.5687,-2.5687,-2.5687,-2.5687,-2.5705,-2.5702,-2.5672,-2.5639,-2.5607,-2.5568,-2.5489,-2.5412,-2.5327,-2.5292,-2.5269,-2.5231,-2.5228,-2.5101,-2.4899,-2.4249,-2.3518,-2.2663,-2.1894,-4.9137,-4.8672,-4.7569,-4.6941,-4.6458,-4.5337,-4.482,-4.4734,-4.4406,-4.4052,-4.369,-4.3241,-4.2896,-4.2568,-4.2171,-4.1999,-4.1878,-4.155,-4.1222,-4.0998,-4.0894,-4.0894,-4.0918,-4.1088,-4.1088,-4.0959,-4.1111,-4.1065,-4.1035,-4.1088,-4.1134,-4.0918,-4.1134,-4.0968,-4.0801,-4.0711,-4.0149,-3.9199,-3.8499,-3.7683,-3.6971,-3.5676,-3.4773,-3.3983,-3.3191,-3.2253,-3.121,-3.0472,-2.986,-2.9194,-2.8287,-2.7664,-2.7802,-2.7505,-2.7678,-2.8357,-2.8396,-2.9069,-2.9371,-2.939,-2.9448,-3.0327,-2.9923,-3.0038,-3.0275,-3.0433,-3.0472,-3.0495,-3.0506,-3.0555,-3.0631,-3.0639,-3.0691,-3.0678,-3.0398,-3.0364,-3.0581,-3.0117,-2.9805,-3.0039,-3.0195,-3.0019,-2.9687,-2.9316,-2.9082,-2.8983,-2.8182,-2.7614,-2.6714,-2.6263,-2.5869,-2.5691,-2.5689,-2.5687,-2.5687,-2.5687,-2.5687,-2.5705,-2.5682,-2.5673,-2.5658,-2.5628,-2.5571,-2.5489,-2.54,-2.5332,-2.5311,-2.5269,-2.5206,-2.5088,-2.4771,-2.4134,-2.3427,-2.2606,-2.1899,-4.9482,-4.8896,-4.8051,-4.731,-4.6717,-4.5931,-4.5483,-4.5336,-4.5414,-4.4811,-4.4371,-4.4268,-4.3707,-4.3276,-4.312,-4.312,-4.2758,-4.2292,-4.1585,-4.0963,-4.0894,-4.0894,-4.0894,-4.0918,-4.0942,-4.0894,-4.0942,-4.0894,-4.0894,-4.0894,-4.0942,-4.0894,-4.0894,-4.0908,-4.0691,-4.066,-4.0513,-3.9769,-3.896,-3.8562,-3.8065,-3.6333,-3.4852,-3.3905,-3.3392,-3.2643,-3.1892,-3.1281,-3.0645,-2.9959,-2.939,-2.8826,-2.8368,-2.814,-2.8453,-2.9204,-2.8871,-2.9198,-2.9904,-2.9794,-2.9698,-3.0365,-3.0365,-3.0365,-3.039,-3.0435,-3.0557,-3.0693,-3.0796,-3.0845,-3.0785,-3.0895,-3.0917,-3.0942,-3.0939,-3.0937,-3.0874,-3.0311,-3.0273,-3.0625,-3.0684,-3.0508,-3.0586,-3.0449,-3.0215,-2.9863,-2.9004,-2.8183,-2.7322,-2.6519,-2.6146,-2.5733,-2.5693,-2.5688,-2.5687,-2.5687,-2.5687,-2.5687,-2.5706,-2.5702,-2.5694,-2.5658,-2.5607,-2.5549,-2.5467,-2.5412,-2.5351,-2.5302,-2.5222,-2.5091,-2.4828,-2.4383,-2.3561,-2.2568,-2.1937,-4.9223,-4.9683,-4.8275,-4.7603,-4.7396,-4.6707,-4.5912,-4.5343,-4.5327,-4.4914,-4.4242,-4.426,-4.394,-4.3448,-4.3224,-4.2896,-4.2585,-4.2292,-4.1774,-4.1101,-4.0998,-4.0998,-4.0894,-4.0894,-4.0894,-4.0894,-4.0894,-4.0894,-4.0894,-4.0894,-4.0894,-4.0894,-4.0894,-4.0938,-4.0971,-4.0813,-4.0671,-4.0356,-3.9373,-3.8776,-3.8095,-3.6793,-3.5093,-3.4137,-3.3763,-3.3237,-3.2655,-3.2373,-3.1834,-3.0615,-3.0375,-3.0043,-2.9607,-2.9149,-2.9375,-2.9802,-2.9969,-3.0084,-3.0263,-3.0346,-3.0231,-3.0365,-3.0404,-3.0404,-3.0404,-3.05,-3.087,-3.1338,-3.1507,-3.1532,-3.1592,-3.159,-3.1647,-3.1731,-3.1748,-3.1739,-3.1662,-3.1282,-3.0754,-3.1055,-3.1035,-3.0918,-3.0918,-3.0918,-3.0684,-3.0254,-2.9609,-2.8926,-2.8202,-2.7283,-2.6521,-2.609,-2.5696,-2.5692,-2.5687,-2.5687,-2.5687,-2.5687,-2.5687,-2.5687,-2.5701,-2.5694,-2.5652,-2.5588,-2.554,-2.5485,-2.5418,-2.536,-2.5288,-2.5198,-2.4963,-2.4708,-2.379,-2.2873,-2.2128,-4.9411,-4.9722,-4.8695,-4.8034,-4.7603,-4.6924,-4.6067,-4.5272,-4.5257,-4.5032,-4.4721,-4.4697,-4.4604,-4.4311,-4.4311,-4.3906,-4.3327,-4.3189,-4.2551,-4.174,-4.1481,-4.1222,-4.0963,-4.0912,-4.0894,-4.0894,-4.0894,-4.0894,-4.0894,-4.0894,-4.0894,-4.0894,-4.0894,-4.0995,-4.1157,-4.1051,-4.0909,-4.0711,-3.9808,-3.8798,-3.8156,-3.695,-3.5915,-3.483,-3.4348,-3.3829,-3.2868,-3.2678,-3.2243,-3.1447,-3.1203,-3.093,-3.054,-3.0258,-3.0121,-3.0407,-3.0753,-3.0765,-3.0585,-3.0668,-3.0847,-3.0436,-3.0442,-3.0404,-3.0538,-3.0846,-3.1462,-3.2064,-3.2314,-3.2338,-3.2356,-3.2367,-3.2416,-3.2496,-3.2534,-3.2584,-3.2536,-3.227,-3.1906,-3.1495,-3.1172,-3.1035,-3.0918,-3.0918,-3.0918,-3.0586,-3.0098,-2.9551,-2.8965,-2.8085,-2.7109,-2.6502,-2.605,-2.5793,-2.5749,-2.5689,-2.5689,-2.5688,-2.5687,-2.5687,-2.5706,-2.5701,-2.5692,-2.565,-2.5595,-2.5551,-2.5466,-2.5406,-2.536,-2.5297,-2.5119,-2.4776,-2.4001,-2.3212,-2.2491,-4.9482,-4.9627,-4.8988,-4.8277,-4.7554,-4.6986,-4.6106,-4.526,-4.5167,-4.4949,-4.4773,-4.4966,-4.5013,-4.4988,-4.505,-4.4914,-4.4285,-4.4121,-4.3241,-4.2396,-4.1774,-4.1412,-4.124,-4.0946,-4.0894,-4.0894,-4.0894,-4.0894,-4.0894,-4.0894,-4.0894,-4.0894,-4.0894,-4.0894,-4.0937,-4.1122,-4.1112,-4.0795,-4.0119,-3.9006,-3.7851,-3.7338,-3.6754,-3.5371,-3.5114,-3.4362,-3.344,-3.3049,-3.2637,-3.2149,-3.189,-3.1685,-3.1193,-3.1063,-3.0928,-3.0799,-3.1257,-3.1071,-3.1028,-3.1367,-3.1629,-3.1251,-3.0988,-3.0936,-3.1192,-3.1891,-3.2526,-3.3032,-3.316,-3.316,-3.3185,-3.3167,-3.3207,-3.3267,-3.3352,-3.3402,-3.3361,-3.3147,-3.2722,-3.2198,-3.1548,-3.1152,-3.1035,-3.0918,-3.0918,-3.0879,-3.041,-2.9941,-2.9355,-2.8672,-2.7792,-2.703,-2.6481,-2.6029,-2.585,-2.5711,-2.5691,-2.569,-2.5689,-2.5687,-2.5687,-2.5706,-2.5679,-2.5669,-2.5652,-2.5595,-2.5517,-2.5448,-2.5378,-2.5313,-2.525,-2.4979,-2.4446,-2.3709,-2.2931,-4.8771,-4.9462,-4.8744,-4.7991,-4.7324,-4.7119,-4.6231,-4.4954,-4.4978,-4.4514,-4.4021,-4.4626,-4.469,-4.446,-4.4971,-4.4836,-4.4328,-4.3897,-4.3475,-4.2923,-4.1964,-4.1585,-4.1671,-4.1153,-4.0946,-4.0894,-4.0894,-4.0894,-4.0894,-4.0894,-4.0894,-4.0894,-4.0894,-4.0894,-4.0918,-4.0995,-4.0943,-4.0756,-4.0085,-3.894,-3.7683,-3.7206,-3.675,-3.608,-3.5467,-3.4885,-3.4358,-3.3821,-3.3235,-3.2647,-3.2544,-3.2231,-3.1723,-3.1611,-3.1712,-3.1637,-3.1572,-3.1378,-3.1529,-3.2184,-3.2556,-3.2333,-3.2366,-3.2551,-3.2667,-3.3122,-3.3705,-3.3975,-3.4052,-3.4045,-3.4052,-3.4052,-3.4082,-3.411,-3.4135,-3.4191,-3.4197,-3.4039,-3.3603,-3.2979,-3.2335,-3.1598,-3.1152,-3.1016,-3.0918,-3.0859,-3.0723,-3.0273,-2.9785,-2.9141,-2.8359,-2.7558,-2.6873,-2.6422,-2.6048,-2.589,-2.5712,-2.5712,-2.5691,-2.5688,-2.5687,-2.5687,-2.5687,-2.568,-2.5668,-2.5655,-2.5587,-2.551,-2.5421,-2.5348,-2.5284,-2.522,-2.5115,-2.4287,-2.3307,-4.8897,-4.9252,-4.8672,-4.7933,-4.7187,-4.6754,-4.5902,-4.5001,-4.4858,-4.4633,-4.4313,-4.4616,-4.4736,-4.4612,-4.5037,-4.5022,-4.4688,-4.4415,-4.4113,-4.3631,-4.2674,-4.212,-4.1809,-4.1291,-4.0912,-4.0894,-4.0894,-4.0894,-4.0894,-4.0894,-4.0894,-4.0894,-4.0894,-4.0894,-4.0894,-4.0894,-4.0891,-4.0563,-3.9742,-3.8679,-3.799,-3.7596,-3.7145,-3.6335,-3.5933,-3.5411,-3.4801,-3.4161,-3.3683,-3.3293,-3.3293,-3.2928,-3.241,-3.2201,-3.2156,-3.1826,-3.2173,-3.2213,-3.2208,-3.2974,-3.3156,-3.2964,-3.294,-3.2979,-3.3493,-3.3962,-3.4487,-3.4911,-3.4923,-3.4911,-3.4891,-3.4949,-3.4956,-3.4956,-3.4852,-3.4903,-3.4892,-3.4801,-3.4487,-3.3803,-3.313,-3.2422,-3.1726,-3.1348,-3.1152,-3.0898,-3.0879,-3.0664,-3.0234,-2.9746,-2.8906,-2.8007,-2.7382,-2.6815,-2.6442,-2.6147,-2.5794,-2.5734,-2.5694,-2.5691,-2.5688,-2.5687,-2.5688,-2.5688,-2.5681,-2.5673,-2.5645,-2.5561,-2.5473,-2.5395,-2.533,-2.5178,-2.4974,-2.4396,-2.3335,-4.9063,-4.9101,-4.8507,-4.7817,-4.705,-4.6317,-4.5529,-4.4799,-4.4765,-4.4709,-4.4654,-4.4692,-4.4831,-4.4923,-4.5015,-4.5025,-4.4981,-4.5022,-4.4791,-4.4207,-4.3503,-4.2787,-4.2236,-4.1588,-4.1119,-4.0912,-4.0894,-4.0894,-4.0894,-4.0894,-4.0894,-4.0894,-4.0894,-4.0894,-4.0894,-4.0877,-4.0874,-4.0751,-3.9262,-3.8494,-3.8302,-3.7914,-3.7416,-3.6873,-3.6405,-3.597,-3.5302,-3.4637,-3.4315,-3.4087,-3.41,-3.3733,-3.3081,-3.291,-3.2796,-3.263,-3.2946,-3.3156,-3.3193,-3.3533,-3.368,-3.3497,-3.3364,-3.3792,-3.4174,-3.4419,-3.4647,-3.5325,-3.5385,-3.5423,-3.5481,-3.5442,-3.5398,-3.5374,-3.5412,-3.5483,-3.5489,-3.5255,-3.5063,-3.4629,-3.3969,-3.3385,-3.2665,-3.1948,-3.1465,-3.1035,-3.0918,-3.0937,-3.0625,-3.0215,-2.9629,-2.8769,-2.8359,-2.7637,-2.6835,-2.6463,-2.609,-2.5854,-2.5813,-2.5733,-2.577,-2.5729,-2.5689,-2.5689,-2.5688,-2.5685,-2.5677,-2.5598,-2.5502,-2.547,-2.5364,-2.5023,-2.4686,-2.4197,-2.3698,-4.9001,-4.8934,-4.8254,-4.7492,-4.6777,-4.6036,-4.5309,-4.4643,-4.4626,-4.4626,-4.4615,-4.4643,-4.4709,-4.4803,-4.4858,-4.4913,-4.4944,-4.4287,-4.4468,-4.4323,-4.364,-4.3065,-4.2601,-4.2159,-4.1526,-4.1043,-4.0929,-4.0894,-4.0894,-4.0888,-4.0912,-4.0894,-4.0912,-4.0894,-4.0894,-4.0894,-4.0901,-4.0562,-3.9205,-3.8616,-3.8437,-3.8027,-3.7356,-3.7487,-3.693,-3.6547,-3.7116,-3.5985,-3.5256,-3.4903,-3.4784,-3.4509,-3.3862,-3.3587,-3.3406,-3.3453,-3.3605,-3.377,-3.3877,-3.4057,-3.4367,-3.4498,-3.4538,-3.4558,-3.4742,-3.5113,-3.5345,-3.5386,-3.5453,-3.5474,-3.5474,-3.55,-3.55,-3.5494,-3.5502,-3.5502,-3.5515,-3.5476,-3.5316,-3.5226,-3.4714,-3.396,-3.3509,-3.2762,-3.2194,-3.1777,-3.125,-3.125,-3.0957,-3.0586,-3.0254,-2.9726,-2.9473,-2.8672,-2.7363,-2.6933,-2.6835,-2.6482,-2.6247,-2.605,-2.589,-2.583,-2.5711,-2.5689,-2.5688,-2.5688,-2.5685,-2.5621,-2.5587,-2.5556,-2.5399,-2.5146,-2.4779,-2.4347,-2.405,-4.9018,-4.8934,-4.8193,-4.7479,-4.6735,-4.6007,-4.528,-4.4666,-4.4598,-4.4598,-4.4598,-4.4598,-4.4626,-4.4682,-4.4765,-4.4776,-4.4759,-4.4712,-4.4736,-4.4514,-4.3987,-4.3588,-4.3177,-4.2499,-4.168,-4.1378,-4.1116,-4.084,-4.0793,-4.084,-4.084,-4.084,-4.0864,-4.0912,-4.0894,-4.0894,-4.0894,-4.0595,-3.9692,-3.9104,-3.8538,-3.8143,-3.7448,-3.6865,-3.672,-3.6416,-3.6562,-3.6061,-3.5827,-3.5652,-3.5302,-3.4894,-3.4417,-3.4064,-3.3825,-3.3807,-3.3952,-3.3991,-3.4043,-3.426,-3.4508,-3.4551,-3.4656,-3.4832,-3.4964,-3.5115,-3.5219,-3.53,-3.5398,-3.5405,-3.5427,-3.5467,-3.55,-3.55,-3.55,-3.55,-3.55,-3.55,-3.5468,-3.5348,-3.4864,-3.422,-3.3901,-3.3573,-3.3048,-3.2539,-3.1992,-3.1543,-3.1367,-3.1152,-3.0898,-3.0566,-3.0273,-2.9707,-2.8457,-2.8008,-2.7676,-2.7206,-2.6737,-2.6541,-2.6303,-2.5811,-2.5711,-2.571,-2.5689,-2.5688,-2.5685,-2.5677,-2.5642,-2.5595,-2.5507,-2.5372,-2.4961,-2.4521,-2.432,-4.9018,-4.8951,-4.8413,-4.7817,-4.7039,-4.6109,-4.5415,-4.4942,-4.4699,-4.4598,-4.4598,-4.4598,-4.4598,-4.4626,-4.4682,-4.4692,-4.4682,-4.4742,-4.4742,-4.4599,-4.4364,-4.4053,-4.3577,-4.298,-4.2328,-4.1856,-4.1391,-4.1064,-4.0648,-4.0745,-4.0745,-4.0745,-4.0793,-4.0823,-4.0894,-4.0894,-4.0894,-4.0722,-4.0095,-3.9508,-3.8943,-3.8204,-3.8017,-3.713,-3.6779,-3.6767,-3.6898,-3.6751,-3.6439,-3.627,-3.5974,-3.5445,-3.489,-3.4357,-3.3899,-3.3807,-3.3807,-3.3807,-3.3908,-3.4049,-3.4277,-3.4249,-3.4761,-3.4905,-3.5023,-3.5172,-3.5419,-3.5556,-3.5468,-3.5339,-3.5407,-3.5427,-3.5474,-3.5474,-3.5481,-3.55,-3.55,-3.55,-3.55,-3.5437,-3.4988,-3.4747,-3.4696,-3.4439,-3.3812,-3.3297,-3.278,-3.2419,-3.2285,-3.2051,-3.1777,-3.1406,-3.0996,-3.0351,-2.9609,-2.9082,-2.8516,-2.789,-2.746,-2.7167,-2.6834,-2.6343,-2.5852,-2.5696,-2.5694,-2.569,-2.5687,-2.5683,-2.5655,-2.5644,-2.5537,-2.5429,-2.5258,-2.4864,-2.4667,-4.9018,-4.9018,-4.8968,-4.8528,-4.772,-4.6346,-4.572,-4.5483,-4.4857,-4.4598,-4.4598,-4.4598,-4.4598,-4.4615,-4.4626,-4.4626,-4.4598,-4.4626,-4.4626,-4.4614,-4.4595,-4.4249,-4.3912,-4.3464,-4.2826,-4.1886,-4.1594,-4.1311,-4.0527,-4.073,-4.0737,-4.0666,-4.0697,-4.0776,-4.0871,-4.0894,-4.0894,-4.0791,-4.0095,-3.9819,-3.9324,-3.8442,-3.8352,-3.8115,-3.7217,-3.7064,-3.7619,-3.7398,-3.7089,-3.6935,-3.689,-3.6244,-3.5257,-3.4449,-3.3972,-3.3807,-3.3807,-3.3807,-3.382,-3.3829,-3.3895,-3.4039,-3.4631,-3.5169,-3.5379,-3.5611,-3.5853,-3.6026,-3.575,-3.546,-3.5423,-3.5482,-3.56,-3.5621,-3.5666,-3.55,-3.55,-3.55,-3.55,-3.5501,-3.5494,-3.545,-3.5477,-3.5311,-3.4639,-3.4077,-3.3548,-3.3255,-3.3083,-3.2831,-3.2499,-3.2168,-3.1758,-3.1406,-3.0762,-3.0,-2.9355,-2.8711,-2.8262,-2.8047,-2.7656,-2.7225,-2.6677,-2.6012,-2.5893,-2.6065,-2.5888,-2.569,-2.5683,-2.5651,-2.5559,-2.547,-2.5339,-2.5197,-2.4974,-4.9018,-4.9018,-4.9018,-4.8866,-4.8511,-4.7597,-4.665,-4.5686,-4.4959,-4.4598,-4.4598,-4.4598,-4.4598,-4.4598,-4.4598,-4.4598,-4.4598,-4.4598,-4.4598,-4.4598,-4.4654,-4.4535,-4.4251,-4.3824,-4.3214,-4.2508,-4.2176,-4.1588,-4.0396,-4.0804,-4.0753,-4.0631,-4.0624,-4.0769,-4.0847,-4.0894,-4.0894,-4.0877,-4.0584,-4.025,-3.9715,-3.9203,-3.8891,-3.8894,-3.7733,-3.7586,-3.8289,-3.785,-3.7578,-3.7564,-3.7554,-3.6876,-3.5885,-3.5041,-3.4344,-3.399,-3.3807,-3.3807,-3.3807,-3.382,-3.382,-3.4123,-3.4673,-3.5299,-3.541,-3.6025,-3.6344,-3.6588,-3.6448,-3.6407,-3.6757,-3.6415,-3.6358,-3.6195,-3.6056,-3.5628,-3.55,-3.55,-3.5488,-3.5502,-3.5515,-3.5554,-3.559,-3.5911,-3.5461,-3.4917,-3.4413,-3.3863,-3.3584,-3.3376,-3.3104,-3.2831,-3.2519,-3.2344,-3.1914,-3.1055,-3.0762,-3.0488,-2.9766,-2.9121,-2.8691,-2.8105,-2.7382,-2.6659,-2.652,-2.6421,-2.6027,-2.5691,-2.5689,-2.5655,-2.5593,-2.5504,-2.5399,-2.532,-2.5236,-4.8781,-4.8968,-4.8731,-4.8612,-4.8562,-4.8091,-4.7208,-4.6024,-4.5089,-4.4733,-4.4874,-4.475,-4.4598,-4.4598,-4.4598,-4.4598,-4.4598,-4.4598,-4.4598,-4.4598,-4.4598,-4.4547,-4.4406,-4.4128,-4.3624,-4.3056,-4.2726,-4.2175,-4.0756,-4.1172,-4.0976,-4.0533,-4.0576,-4.0721,-4.0817,-4.0847,-4.0894,-4.0877,-4.0756,-4.0636,-4.0181,-3.9802,-3.9537,-3.9198,-3.8594,-3.8161,-3.83,-3.8161,-3.7824,-3.8006,-3.7894,-3.7433,-3.6637,-3.5691,-3.4885,-3.4362,-3.3917,-3.388,-3.3807,-3.4211,-3.4284,-3.4339,-3.4986,-3.5469,-3.5816,-3.649,-3.6915,-3.7169,-3.7257,-3.7295,-3.7317,-3.6997,-3.6985,-3.6818,-3.6723,-3.6322,-3.6291,-3.6349,-3.6344,-3.6252,-3.6061,-3.5958,-3.5794,-3.6151,-3.6287,-3.5775,-3.5266,-3.4706,-3.4215,-3.4132,-3.3942,-3.365,-3.3417,-3.3262,-3.2773,-3.1973,-3.1875,-3.2148,-3.125,-3.0117,-2.9473,-2.8848,-2.8066,-2.7304,-2.6932,-2.652,-2.5969,-2.5692,-2.5691,-2.5682,-2.5637,-2.5537,-2.5439,-2.5394,-2.5359,-4.8376,-4.8849,-4.8223,-4.7939,-4.7906,-4.7821,-4.7411,-4.6684,-4.5326,-4.5043,-4.5618,-4.4886,-4.4598,-4.4598,-4.4598,-4.4598,-4.4598,-4.4598,-4.4598,-4.4598,-4.4598,-4.4598,-4.4598,-4.4462,-4.3904,-4.3555,-4.3244,-4.2722,-4.1339,-4.1002,-4.0697,-4.0466,-4.0527,-4.0648,-4.0721,-4.0817,-4.0847,-4.0871,-4.0877,-4.0784,-4.052,-4.0158,-4.0105,-3.9806,-3.9313,-3.8952,-3.8856,-3.8546,-3.8259,-3.8282,-3.8384,-3.7916,-3.7161,-3.6076,-3.5461,-3.4899,-3.4325,-3.4082,-3.4082,-3.4582,-3.4766,-3.4876,-3.5789,-3.617,-3.6566,-3.7088,-3.7585,-3.7632,-3.764,-3.7542,-3.7429,-3.7546,-3.7623,-3.7646,-3.7726,-3.7616,-3.7613,-3.7621,-3.7606,-3.7463,-3.7173,-3.6907,-3.6408,-3.655,-3.6965,-3.6198,-3.5698,-3.5469,-3.5134,-3.5334,-3.5088,-3.4683,-3.445,-3.4197,-3.3632,-3.2949,-3.2812,-3.3027,-3.1894,-3.082,-3.0215,-2.9609,-2.8809,-2.8027,-2.7226,-2.66,-2.5953,-2.5696,-2.5693,-2.5683,-2.5653,-2.5589,-2.5486,-2.5422,-2.5361,-4.8815,-4.8917,-4.8193,-4.7906,-4.7821,-4.7344,-4.7276,-4.7361,-4.6041,-4.5551,-4.5652,-4.4936,-4.4615,-4.4598,-4.4598,-4.4598,-4.4598,-4.4598,-4.4598,-4.4598,-4.4598,-4.4598,-4.4598,-4.4547,-4.4079,-4.3876,-4.3639,-4.32,-4.1508,-4.0865,-4.0553,-4.0347,-4.0387,-4.0527,-4.0648,-4.0745,-4.0817,-4.0847,-4.0871,-4.0847,-4.0817,-4.0459,-4.0491,-4.022,-3.9733,-3.9459,-3.9255,-3.8874,-3.851,-3.8123,-3.8557,-3.8203,-3.6827,-3.6635,-3.6474,-3.5776,-3.5145,-3.4674,-3.4692,-3.4876,-3.5114,-3.55,-3.6376,-3.7015,-3.7382,-3.7783,-3.8275,-3.8169,-3.815,-3.8145,-3.8157,-3.8237,-3.8319,-3.8394,-3.841,-3.8297,-3.8314,-3.8337,-3.8314,-3.8143,-3.7867,-3.7831,-3.7296,-3.7319,-3.7559,-3.6671,-3.6118,-3.6004,-3.5815,-3.5953,-3.5875,-3.5433,-3.517,-3.484,-3.4645,-3.406,-3.3924,-3.3691,-3.248,-3.1601,-3.1289,-3.0605,-2.9629,-2.8633,-2.7617,-2.6679,-2.5819,-2.5758,-2.5951,-2.5733,-2.5685,-2.5609,-2.5532,-2.5457,-2.5374,-4.8578,-4.8446,-4.7767,-4.7479,-4.7394,-4.6989,-4.7073,-4.7208,-4.621,-4.5703,-4.5618,-4.4925,-4.4598,-4.4598,-4.4598,-4.4598,-4.4598,-4.4598,-4.4598,-4.4598,-4.4598,-4.4598,-4.4598,-4.4564,-4.4316,-4.4198,-4.4045,-4.3724,-4.2066,-4.0967,-4.0544,-4.0213,-4.0238,-4.0379,-4.0502,-4.06,-4.0655,-4.0752,-4.0817,-4.084,-4.0793,-4.0721,-4.0607,-4.0407,-3.9939,-3.9853,-3.9651,-3.9261,-3.8789,-3.8322,-3.8783,-3.8177,-3.722,-3.7375,-3.6817,-3.6123,-3.5725,-3.5443,-3.5494,-3.5903,-3.5958,-3.627,-3.7081,-3.7719,-3.8065,-3.8355,-3.8539,-3.8584,-3.8755,-3.8896,-3.8931,-3.8971,-3.9055,-3.9147,-3.8975,-3.8802,-3.8837,-3.8889,-3.8797,-3.8637,-3.8604,-3.8685,-3.86,-3.8549,-3.8257,-3.7539,-3.7049,-3.6822,-3.6412,-3.6038,-3.6009,-3.5736,-3.5567,-3.5384,-3.517,-3.4937,-3.4626,-3.4022,-3.2832,-3.2148,-3.2109,-3.1348,-3.0137,-2.8965,-2.7851,-2.705,-2.6405,-2.6249,-2.6286,-2.605,-2.5767,-2.5634,-2.5566,-2.5495,-2.5399,-4.7757,-4.7736,-4.7039,-4.6718,-4.6718,-4.6667,-4.6684,-4.6633,-4.5991,-4.5703,-4.5551,-4.4908,-4.4598,-4.4598,-4.4598,-4.4598,-4.4598,-4.4598,-4.4598,-4.4598,-4.4598,-4.4598,-4.4598,-4.4581,-4.4496,-4.4547,-4.4395,-4.3927,-4.3047,-4.1796,-4.0671,-4.013,-4.0213,-4.0305,-4.0362,-4.0436,-4.051,-4.0607,-4.0704,-4.0752,-4.0745,-4.0697,-4.06,-4.0485,-4.0368,-4.0326,-4.0092,-3.9766,-3.9385,-3.9095,-3.8772,-3.8251,-3.7981,-3.7749,-3.6933,-3.6528,-3.6282,-3.6211,-3.6333,-3.6673,-3.7048,-3.7418,-3.8062,-3.8303,-3.8447,-3.8514,-3.8606,-3.8692,-3.8792,-3.8851,-3.8873,-3.9011,-3.9114,-3.93,-3.9321,-3.9334,-3.9452,-3.9527,-3.951,-3.941,-3.9465,-3.949,-3.9149,-3.9016,-3.8723,-3.8243,-3.7797,-3.751,-3.7225,-3.6595,-3.6203,-3.6067,-3.5845,-3.5729,-3.5653,-3.5402,-3.5073,-3.4313,-3.3299,-3.2676,-3.2617,-3.1699,-3.0527,-2.9394,-2.8301,-2.7832,-2.7324,-2.7168,-2.6836,-2.6286,-2.6003,-2.5735,-2.5615,-2.554,-2.5421,-4.6602,-4.6989,-4.6261,-4.5957,-4.5957,-4.5974,-4.5974,-4.5957,-4.5805,-4.5669,-4.5551,-4.4959,-4.4598,-4.4598,-4.4598,-4.4598,-4.4598,-4.4598,-4.4598,-4.4598,-4.4598,-4.4598,-4.4598,-4.4598,-4.4598,-4.4598,-4.4412,-4.3887,-4.2709,-4.1677,-4.0832,-4.018,-4.0163,-4.0188,-4.0263,-4.0337,-4.0387,-4.0461,-4.0534,-4.0558,-4.0461,-4.0412,-4.0337,-4.0263,-4.0213,-4.0213,-4.0078,-4.0035,-3.9551,-3.9139,-3.9238,-3.879,-3.8179,-3.7792,-3.7522,-3.7284,-3.6955,-3.6867,-3.6994,-3.7192,-3.7353,-3.7585,-3.7935,-3.8264,-3.8462,-3.8528,-3.8575,-3.8658,-3.8704,-3.8765,-3.8822,-3.8974,-3.9151,-3.9395,-3.9616,-3.9796,-3.9967,-4.0081,-4.0155,-4.021,-4.0274,-4.0043,-3.9676,-3.9386,-3.9095,-3.8658,-3.8124,-3.7844,-3.7912,-3.7491,-3.6742,-3.6482,-3.6103,-3.5953,-3.5917,-3.5825,-3.5498,-3.5189,-3.441,-3.3787,-3.3163,-3.1875,-3.0625,-2.9746,-2.8867,-2.8516,-2.8262,-2.8066,-2.7637,-2.6953,-2.6421,-2.6227,-2.5823,-2.5651,-2.5466,-4.5813,-4.5861,-4.5756,-4.5517,-4.5297,-4.5551,-4.5517,-4.5229,-4.5196,-4.5196,-4.5179,-4.4801,-4.4598,-4.4598,-4.4598,-4.4598,-4.4598,-4.4598,-4.4598,-4.4598,-4.4598,-4.4598,-4.4598,-4.4598,-4.4598,-4.4564,-4.4113,-4.3403,-4.2337,-4.1559,-4.0849,-4.0231,-4.0096,-4.0121,-4.0213,-4.0213,-4.0263,-4.0337,-4.032,-4.0288,-4.0238,-4.0238,-4.0263,-4.0188,-4.0138,-4.0113,-4.0113,-4.0113,-3.9893,-3.9406,-3.9247,-3.8537,-3.7899,-3.7443,-3.7431,-3.7399,-3.7325,-3.7263,-3.7464,-3.7511,-3.7493,-3.7742,-3.7936,-3.8352,-3.8417,-3.8465,-3.8481,-3.8546,-3.8673,-3.8735,-3.8735,-3.8848,-3.8989,-3.9205,-3.9376,-3.9526,-3.9848,-4.0109,-4.0186,-4.0271,-4.0308,-4.025,-3.998,-3.9949,-3.9717,-3.9742,-3.9106,-3.8626,-3.8604,-3.8452,-3.7677,-3.6981,-3.6661,-3.6172,-3.5927,-3.5944,-3.5884,-3.5615,-3.5306,-3.4371,-3.3379,-3.1973,-3.0742,-3.0391,-2.9961,-2.9453,-2.9219,-2.8965,-2.8437,-2.7773,-2.7225,-2.6753,-2.6303,-2.5837,-2.5604,-4.4898,-4.4663,-4.5152,-4.5122,-4.4767,-4.5246,-4.5196,-4.4671,-4.4485,-4.4446,-4.4451,-4.4446,-4.4485,-4.457,-4.4598,-4.4598,-4.4598,-4.4598,-4.4598,-4.4598,-4.4598,-4.4598,-4.4598,-4.4598,-4.4598,-4.4316,-4.3876,-4.3166,-4.2313,-4.1559,-4.0865,-4.0265,-4.0113,-4.0113,-4.0113,-4.0113,-4.0138,-4.0163,-4.0146,-4.0138,-4.0163,-4.0213,-4.0238,-4.0213,-4.0188,-4.0113,-4.0113,-4.0113,-4.0113,-3.9738,-3.9201,-3.8511,-3.7887,-3.745,-3.7338,-3.7362,-3.719,-3.7362,-3.7648,-3.7595,-3.7804,-3.8065,-3.8188,-3.8256,-3.8303,-3.8368,-3.8385,-3.8467,-3.8596,-3.8658,-3.8673,-3.8719,-3.8862,-3.8989,-3.9142,-3.9337,-3.9728,-4.0078,-4.0186,-4.0282,-4.032,-4.0319,-4.0337,-4.0298,-4.0297,-4.0362,-4.0226,-3.987,-3.9512,-3.925,-3.876,-3.798,-3.7415,-3.6872,-3.6131,-3.5938,-3.5986,-3.5863,-3.5458,-3.4584,-3.3672,-3.2676,-3.1973,-3.1719,-3.1269,-3.0566,-3.0098,-2.9805,-2.9219,-2.8594,-2.8281,-2.7772,-2.6768,-2.6293,-2.5819,-4.2892,-4.3744,-4.3876,-4.4164,-4.4575,-4.4756,-4.4733,-4.4485,-4.396,-4.3722,-4.3722,-4.3781,-4.3972,-4.457,-4.4598,-4.4598,-4.457,-4.4542,-4.457,-4.4598,-4.4598,-4.4598,-4.4598,-4.4598,-4.4598,-4.4248,-4.3758,-4.3031,-4.2422,-4.1644,-4.0865,-4.0231,-4.0146,-4.013,-4.0113,-4.0113,-4.0113,-4.0113,-4.0113,-4.0113,-4.0113,-4.0138,-4.0121,-4.0121,-4.0113,-4.0113,-4.0113,-4.0113,-4.0113,-3.985,-3.9357,-3.8734,-3.8218,-3.7669,-3.7459,-3.7286,-3.7105,-3.7083,-3.7278,-3.7226,-3.7359,-3.7738,-3.7827,-3.7949,-3.8069,-3.8307,-3.8322,-3.8338,-3.8451,-3.8546,-3.8578,-3.8658,-3.8777,-3.8848,-3.8979,-3.9337,-3.9705,-3.9933,-4.0076,-4.0214,-4.0339,-4.0387,-4.0453,-4.0386,-4.0291,-4.0337,-4.0345,-4.0029,-3.9999,-3.9868,-3.9703,-3.8924,-3.8112,-3.7123,-3.619,-3.5947,-3.5921,-3.5887,-3.5766,-3.5147,-3.4487,-3.3728,-3.3163,-3.2811,-3.2207,-3.1484,-3.1074,-3.0527,-3.0078,-2.9531,-2.9414,-2.8886,-2.773,-2.6861,-2.6482]},{"header":{"parameterUnit":"m.s-1","parameterCategory":1,"la1":31.0,"la2":29.5877,"lo1":-88.7671,"lo2":-86.6584,"dy":0.0162,"dx":0.0185,"nx":115,"ny":88,"refTime":"2023-05-10T12:00:00:Z","depth":0,"parameterNumber":3,"parameterNumberName":"V-component_of_WINDS"},"data":[0.0,0.0,0.0,0.0,0.0,0.0,0.0,0.0,0.0,0.0,0.0,0.0,0.0,0.0,0.0,0.0,0.0,0.0,0.0,0.0,0.0,0.0,0.0,0.0,0.0,0.0,0.0,0.0,0.0,0.0,0.0,0.0,0.0,0.0,0.0,0.0,0.0,0.0,0.0,0.0,0.0,0.0,0.0,0.0,0.0,0.0,0.0,0.0,0.0,0.0,0.0,0.0,0.0,0.0,0.0,0.0,0.0,0.0,0.0,0.0,0.0,0.0,0.0,0.0,0.0,0.0,0.0,0.0,0.0,0.0,0.0,0.0,0.0,0.0,0.0,0.0,0.0,0.0,0.0,0.0,0.0,0.0,0.0,0.0,0.0,0.0,0.0,0.0,0.0,0.0,0.0,0.0,0.0,0.0,0.0,0.0,0.0,0.0,0.0,0.0,0.0,0.0,0.0,0.0,0.0,0.0,0.0,0.0,0.0,0.0,0.0,0.0,0.0,0.0,0.0,0.0,0.0,0.0,0.0,0.0,0.0,0.0,0.0,0.0,0.0,0.0,0.0,0.0,0.0,0.0,0.0,0.0,0.0,0.0,0.0,0.0,0.0,0.0,0.0,0.0,0.0,0.0,0.0,0.0,0.0,0.0,0.0,0.0,0.0,0.0,0.0,0.0,0.0,0.0,0.0,0.0,0.0,0.0,0.0,0.0,0.0,0.0,0.0,0.0,0.0,0.0,0.0,0.0,0.0,0.0,0.0,0.0,0.0,0.0,0.0,0.0,0.0,0.0,0.0,0.0,0.0,0.0,0.0,0.0,0.0,0.0,0.0,0.0,0.0,0.0,0.0,0.0,0.0,0.0,0.0,0.0,0.0,0.0,0.0,0.0,0.0,0.0,0.0,0.0,0.0,0.0,0.0,0.0,0.0,0.0,0.0,0.0,0.0,0.0,0.0,0.0,0.0,0.0,0.0,0.0,0.0,0.0,0.0,0.0,0.0,0.0,0.0,0.0,0.0,0.0,0.0,0.0,0.0,0.0,0.0,0.0,0.0,0.0,0.0,0.0,0.0,0.0,0.0,0.0,0.0,0.0,0.0,0.0,0.0,0.0,0.0,0.0,0.0,0.0,0.0,0.0,0.0,0.0,0.0,0.0,0.0,0.0,0.0,0.0,0.0,0.0,0.0,0.0,0.0,0.0,0.0,0.0,0.0,0.0,0.0,0.0,0.0,0.0,0.0,0.0,0.0,0.0,0.0,0.0,0.0,0.0,0.0,0.0,0.0,0.0,0.0,0.0,0.0,0.0,0.0,0.0,0.0,0.0,0.0,0.0,0.0,0.0,0.0,0.0,0.0,0.0,0.0,0.0,0.0,0.0,0.0,0.0,0.0,0.0,0.0,0.0,0.0,0.0,0.0,0.0,0.0,0.0,0.0,0.0,0.0,0.0,0.0,0.0,0.0,0.0,0.0,0.0,0.0,0.0,0.0,0.0,0.0,0.0,0.0,0.0,0.0,0.0,0.0,0.0,0.0,0.0,0.0,0.0,0.0,0.0,0.0,0.0,0.0,0.0,0.0,0.0,0.0,0.0,0.0,0.0,0.0,0.0,0.0,0.0,0.0,0.0,0.0,0.0,0.0,0.0,0.0,0.0,0.0,0.0,0.0,0.0,0.0,0.0,0.0,0.0,0.0,0.0,0.0,0.0,0.0,0.0,0.0,0.0,0.0,0.0,0.0,0.0,0.0,0.0,0.0,0.0,0.0,0.0,0.0,0.0,0.0,0.0,0.0,0.0,0.0,0.0,0.0,0.0,0.0,0.0,0.0,0.0,0.0,0.0,0.0,0.0,0.0,0.0,0.0,0.0,0.0,0.0,0.0,0.0,0.0,0.0,0.0,0.0,0.0,0.0,0.0,0.0,0.0,0.0,0.0,0.0,0.0,0.0,0.0,0.0,0.0,0.0,0.0,0.0,0.0,0.0,0.0,0.0,0.0,0.0,0.0,0.0,0.0,0.0,0.0,0.0,0.0,0.0,0.0,0.0,0.0,0.0,0.0,0.0,0.0,0.0,0.0,0.0,0.0,0.0,0.0,0.0,0.0,0.0,0.0,0.0,0.0,0.0,0.0,0.0,0.0,0.0,0.0,0.0,0.0,0.0,0.0,0.0,0.0,0.0,0.0,0.0,0.0,0.0,0.0,0.0,0.0,0.0,0.0,0.0,0.0,0.0,0.0,0.0,0.0,0.0,0.0,0.0,0.0,0.0,0.0,0.0,0.0,0.0,0.0,0.0,0.0,0.0,0.0,0.0,0.0,0.0,0.0,0.0,0.0,0.0,0.0,0.0,0.0,0.0,0.0,0.0,0.0,0.0,0.0,0.0,0.0,0.0,0.0,0.0,0.0,0.0,0.0,0.0,0.0,0.0,0.0,0.0,0.0,0.0,0.0,0.0,0.0,0.0,0.0,0.0,0.0,0.0,0.0,0.0,0.0,0.0,0.0,0.0,0.0,0.0,0.0,0.0,0.0,0.0,0.0,0.0,0.0,0.0,0.0,0.0,0.0,0.0,0.0,0.0,0.0,0.0,0.0,0.0,0.0,0.0,0.0,0.0,0.0,0.0,0.0,0.0,0.0,0.0,0.0,0.0,0.0,0.0,0.0,0.0,0.0,0.0,0.0,0.0,0.0,0.0,0.0,0.0,0.0,0.0,0.0,0.0,0.0,0.0,0.0,0.0,0.0,0.0,0.0,0.0,0.0,0.0,0.0,0.0,0.0,0.0,0.0,0.0,0.0,0.0,0.0,0.0,0.0,0.0,0.0,0.0,0.0,0.0,0.0,0.0,0.0,0.0,0.0,0.0,0.0,0.0,0.0,0.0,0.0,0.0,0.0,0.0,0.0,0.0,0.0,0.0,0.0,0.0,0.0,0.0,0.0,0.0,0.0,0.0,0.0,0.0,0.0,0.0,0.0,0.0,0.0,0.0,0.0,0.0,0.0,0.0,0.0,0.0,0.0,0.0,0.0,0.0,0.0,0.0,0.0,0.0,0.0,0.0,0.0,0.0,0.0,0.0,0.0,0.0,0.0,0.0,0.0,0.0,0.0,0.0,0.0,0.0,0.0,0.0,0.0,0.0,0.0,0.0,0.0,0.0,0.0,0.0,0.0,0.0,0.0,0.0,0.0,0.0,0.0,0.0,0.0,0.0,0.0,0.0,0.0,0.0,0.0,0.0,0.0,0.0,0.0,0.0,0.0,0.0,0.0,0.0,0.0,0.0,0.0,0.0,0.0,0.0,0.0,0.0,0.0,0.0,0.0,0.0,0.0,0.0,0.0,0.0,0.0,0.0,0.0,0.0,0.0,0.0,0.0,0.0,0.0,0.0,0.0,0.0,0.0,0.0,0.0,0.0,0.0,0.0,0.0,0.0,0.0,0.0,0.0,0.0,0.0,0.0,0.0,0.0,0.0,0.0,0.0,0.0,0.0,0.0,0.0,0.0,0.0,0.0,0.0,0.0,0.0,0.0,0.0,0.0,0.0,0.0,0.0,0.0,0.0,0.0,0.0,0.0,0.0,0.0,0.0,0.0,0.0,0.0,0.0,0.0,0.0,0.0,0.0,0.0,0.0,0.0,0.0,0.0,0.0,0.0,0.0,0.0,0.0,0.0,0.0,0.0,0.0,0.0,0.0,0.0,0.0,0.0,0.0,0.0,0.0,0.0,0.0,0.0,0.0,0.0,0.0,0.0,0.0,0.0,0.0,0.0,0.0,0.0,0.0,0.0,0.0,0.0,0.0,0.0,0.0,0.0,0.0,0.0,0.0,0.0,0.0,0.0,0.0,0.0,0.0,0.0,0.0,0.0,0.0,0.0,0.0,0.0,0.0,0.0,0.0,0.0,0.0,0.0,0.0,0.0,0.0,0.0,0.0,0.0,0.0,0.0,0.0,0.0,0.0,0.0,0.0,0.0,0.0,0.0,0.0,0.0,0.0,0.0,0.0,0.0,0.0,0.0,0.0,0.0,0.0,0.0,0.0,0.0,0.0,0.0,0.0,0.0,0.0,0.0,0.0,0.0,0.0,0.0,0.0,0.0,0.0,0.0,0.0,0.0,0.0,0.0,0.0,0.0,0.0,0.0,0.0,0.0,0.0,0.0,0.0,0.0,0.0,0.0,0.0,0.0,0.0,0.0,0.0,0.0,0.0,0.0,0.0,0.0,0.0,0.0,0.0,0.0,0.0,0.0,0.0,0.0,0.0,0.0,0.0,0.0,0.0,0.0,0.0,0.0,0.1844,0.0,0.0,0.0,0.0,0.0,0.0,0.0,0.0,0.0,0.0,0.0,0.0,0.0,0.0,0.0,0.0,0.0,0.0,0.0,0.0,0.0,0.0,0.0,0.0,0.0,0.0,0.0,0.0,0.0,0.0,0.0,0.0,0.0,0.0,0.0,0.0,0.0,0.0,0.0,0.0,0.0,0.0,0.0,0.0,0.0,0.0,0.0,0.0,0.0,0.0,0.0,0.0,0.0,0.0,0.0,0.0,0.0,0.0,0.0,0.0,0.0,0.0,0.0,0.0,0.0,0.0,0.0,0.0,0.0,0.0,0.0,0.0,0.0,0.0,0.0,0.0,0.0,0.0,0.0,0.0,0.0,0.0,0.0,0.0,0.0,0.0,0.0,0.0,0.0,0.0,0.0,0.0,0.0,0.0,0.0,0.0,0.0,0.0,0.0,0.0,0.0,0.0,0.0,0.0,0.0,0.0,0.0,0.0,0.0,0.0,0.2802,0.2575,0.2282,0.1994,0.1815,0.0,0.0,0.0,0.0,0.0,0.0,0.0,0.0,0.0,0.0,0.0,0.0,0.0,0.0,0.0,0.0,0.0,0.0,0.0,0.0,0.0,0.0,0.0,0.0,0.0,0.0,0.0,0.0,0.0,0.0,0.0,0.0,0.0,0.0,0.0,0.0,0.0,0.0,0.0,0.0,0.0,0.0,0.0,0.0,0.0,0.0,0.0,0.0,0.0,0.0,0.0,0.0,0.0,0.0,0.0,0.0,0.0,0.0,0.0,0.0,0.0,0.0,0.0,0.0,0.0,0.0,0.0,0.0,0.0,0.0,0.0,0.0,0.0,0.0,0.0,0.0,0.0,0.0,0.0,0.0,0.0,0.0,0.0,0.0,0.0,0.0,0.0,0.0,0.0,0.0,0.0,0.0,0.0,0.0,0.0,0.0,0.0,0.0,0.0,0.0,0.0,0.0,0.0,0.0,0.0,0.0,0.0,0.0,0.0,0.0,0.0,0.0,0.2569,0.244,0.2398,0.0,0.0,0.0,0.0,0.0,0.0,0.0,0.0,0.0,0.0,0.0,0.0,0.0,0.0,0.0,0.0,0.0,0.0,0.0,0.0,0.0,0.0,0.0,0.0,0.0,0.0,0.0,0.0,0.0,0.0,0.0,0.0,0.0,0.0,0.0,0.0,0.0,0.0,0.0,0.0,0.0,0.0,0.0,0.0,0.0,0.0,0.0,0.0,0.0,0.0,0.0,0.0,0.0,0.0,0.0,0.0,0.0,0.0,0.0,0.0,0.0,0.0,0.0,0.0,0.0,0.0,0.0,0.0,0.0,0.0,0.0,0.0,0.0,0.0,0.0,0.0,0.0,0.0,0.0,0.0,0.0,0.0,0.0,0.0,0.0,0.0,0.0,0.0,0.0,0.0,0.0,0.0,0.0,0.0,0.0,0.0,0.0,0.0,0.0,0.0,0.0,0.0,0.0,0.0,0.0,0.0,0.0,0.0,0.0,0.0,0.3095,0.3487,0.3518,0.0,0.4029,0.0,0.0,0.0,0.0,0.0,0.0,0.0,0.0,0.0,0.0,0.0,0.0,0.0,0.0,0.0,0.0,0.0,0.0,0.0,0.0,0.0,0.0,0.0,0.0,0.0,0.0,0.0,0.0,0.0,0.0,0.0,0.0,0.0,0.0,0.0,0.0,0.0,0.0,0.0,0.0,0.0,0.0,0.0,0.0,0.0,0.0,0.0,0.0,0.0,0.0,0.0,0.0,0.0,0.0,0.0,0.0,0.0,0.0,0.0,0.0,0.0,0.0,0.0,0.0,0.0,0.0,0.0,0.0,0.0,0.0,0.0,0.0,0.0,0.0,0.0,0.0,0.0,0.0,0.0,0.0,0.0,0.0,0.0,0.0,0.0,0.0,0.0,0.0,0.0,0.0,0.0,0.0,0.0,0.0,0.0,0.0,0.0,0.0,0.0,0.0,0.0,0.0,0.0,0.0,0.0,0.0,0.0,0.0,0.0,0.0,0.3497,0.3648,0.3366,0.3353,0.0,0.0,0.0,0.0,0.0,0.0,0.0,0.0,0.0,0.0,0.0,0.0,0.0,0.0,0.0,0.0,0.0,0.0,0.0,0.0,0.0,0.0,0.0,0.0,0.0,0.0,0.0,0.0,0.0,0.0,0.0,0.0,0.0,0.0,0.0,0.0,0.0,0.0,0.0,0.0,0.0,0.0,0.0,0.0,0.0,0.0,0.0,0.0,0.0,0.0,0.0,0.0,0.0,0.0,0.0,0.0,0.0,0.0,0.0,0.0,0.0,0.0,0.0,0.0,0.0,0.0,0.0,0.0,0.0,0.0,0.0,0.0,0.0,0.0,0.0,0.0,0.0,0.0,0.0,0.0,0.0,0.0,0.0,0.0,0.0,0.0,0.0,0.0,0.0,0.0,0.0,0.0,0.0,0.0,0.0,0.0,0.0,0.0,0.0,0.0,0.0,0.0,0.0,0.0,0.0,0.0,0.0,0.0,0.0,0.0,0.3805,0.3796,0.3987,0.3431,0.3268,0.3599,0.0,0.0,0.0,0.0,0.0,0.0,0.0,0.0,0.0,0.0,0.0,0.0,0.0,0.0,0.0,0.0,0.0,0.0,0.0,0.0,0.0,0.0,0.0,0.0,0.0,0.0,0.0,0.0,0.0,0.0,0.0,0.0,0.0,0.0,0.0,0.0,0.0,0.0,0.0,0.0,0.0,0.0,0.0,0.0,0.0,0.0,0.0,0.0,0.0,0.0,0.0,0.0,0.0,0.0,0.0,0.0,0.0,0.0,0.0,0.0,0.0,0.0,0.0,0.0,0.0,0.0,0.0,0.0,0.0,0.0,0.0,0.0,0.0,0.0,0.0,0.0,0.0,0.0,0.0,0.0,0.0,0.0,0.0,0.0,0.0,0.0,0.0,0.0,0.0,0.0,0.0,0.0,0.0,0.0,0.0,0.0,0.0,0.0,0.0,0.0,0.0,0.0,0.0,0.0,0.0,0.0,0.0,0.0,0.4417,0.3773,0.3886,0.4743,0.4078,0.4035,0.0,0.0,0.0,0.0,0.0,0.0,0.0,0.0,0.0,0.0,0.0,0.0,0.0,0.0,0.0,0.0,0.0,0.0,0.0,0.0,0.0,0.0,0.0,0.0,0.0,0.0,0.0,0.0,0.0,0.0,0.0,0.0,0.0,0.0,0.0,0.0,0.0,0.0,0.0,0.0,0.0,0.0,0.0,0.0,0.0,0.0,0.0,0.0,0.0,0.0,0.0,0.0,0.0,0.0,0.0,0.0,0.0,0.0,0.0,0.0,0.0,0.0,0.0,0.0,0.0,0.0,0.0,0.0,0.0,0.0,0.0,0.0,0.0,0.0,0.0,0.0,0.0,0.0,0.0,0.0,0.0,0.0,0.0,0.0,0.0,0.0,0.0,0.0,0.0,0.0,0.0,0.0,0.0,0.0,0.0,0.0,0.0,0.0,0.0,0.0,0.0,0.0,0.0,0.0,0.0,0.0,0.0,0.0,0.0,0.4014,0.3794,0.3645,0.3628,0.3658,0.3843,0.0,0.0,0.0,0.0,0.0,0.0,0.0,0.0,0.0,0.0,0.0,0.0,0.0,0.0,0.0,0.0,0.0,0.0,0.0,0.0,0.0,0.0,0.0,0.0,0.0,0.0,0.0,0.0,0.0,0.0,0.0,0.0,0.0,0.0,0.0,0.0,0.0,0.0,0.0,0.0,0.0,0.0,0.0,0.0,0.0,0.0,0.0,0.0,0.0,0.0,0.0,0.0,0.0,0.0,0.0,0.0,0.0,0.0,0.0,0.0,0.0,0.0,0.0,0.0,0.0,0.0,0.0,0.0,0.0,0.0,0.0,0.0,0.0,0.0,0.0,0.0,0.0,0.0,0.0,0.0,0.0,0.0,0.0,0.0,0.0,0.0,0.0,0.0,0.0,0.0,0.0,0.0,0.0,0.0,0.0,0.0,0.0,0.0,0.0,0.0,0.0,0.0,0.0,0.0,0.0,0.0,0.0,0.0,0.0,0.3521,0.0,0.3094,0.2852,0.3063,0.3278,0.0,0.0,0.0,0.0,0.0,0.0,0.0,0.0,0.0,0.0,0.0,0.0,0.0,0.0,0.0,0.0,0.0,0.0,0.0,0.0,0.0,0.0,0.0,0.0,0.0,0.0,0.0,0.0,0.0,0.0,0.0,0.0,0.0,0.0,0.0,0.0,0.0,0.0,0.0,0.0,0.0,0.0,0.0,0.0,0.0,0.0,0.0,0.0,0.0,0.0,0.0,0.0,0.0,0.0,0.0,0.0,0.0,0.0,0.0,0.0,0.0,0.0,0.0,0.0,0.0,0.0,0.0,0.0,0.0,0.0,0.0,0.0,0.0,0.0,0.0,0.0,0.0,0.0,0.0,0.0,0.0,0.0,0.0,0.0,0.0,0.0,0.0,0.0,0.0,0.0,0.0,0.0,0.0,0.0,0.0,0.0,0.0,0.0,0.0,0.0,0.0,0.0,0.0,0.0,0.0,0.0,0.0,0.0,0.3204,0.2867,0.2359,0.2239,0.2555,0.2327,0.2314,0.0,0.0,0.0,0.0,0.0,0.0,0.0,0.0,0.0,0.0,0.0,0.0,0.0,0.0,0.0,0.0,0.0,0.0,0.0,0.0,0.0,0.0,0.0,0.0,0.0,0.0,0.0,0.0,0.0,0.0,0.0,0.0,0.0,0.0,0.0,0.0,0.0,0.0,0.0,0.0,0.0,0.0,0.0,0.0,0.0,0.0,0.0,0.0,0.0,0.0,0.0,0.0,0.0,0.0,0.0,0.0,0.0,0.0,0.0,0.0,0.0,0.0,0.0,0.0,0.0,0.0,0.0,0.0,0.0,0.0,0.0,0.0,0.0,0.0,0.0,0.0,0.0,0.0,0.0,0.0,0.0,0.0,0.0,0.0,0.0,0.0,0.0,0.0,0.0,0.0,0.0,0.0,0.0,0.0,0.0,0.0,0.0,0.0,0.0,0.0,0.0,0.0,0.0,0.0,0.0,0.0,0.0,0.0,0.0,0.1867,0.1529,0.1157,0.0861,0.1457,0.1798,0.0,0.0,0.0,0.0,0.0,0.0,0.0,0.0,0.0,0.0,0.0,0.0,0.0,0.0,0.0,0.0,0.0,0.0,0.0,0.0,0.0,0.0,0.0,0.0,0.0,0.0,0.0,0.0,0.0,0.0,0.0,0.0,0.0,0.0,0.0,0.0,0.0,0.0,0.0,0.0,0.0,0.0,0.0,0.0,0.0,0.0,0.0,0.0,0.0,0.0,0.0,0.0,0.0,0.0,0.0,0.0,0.0,0.0,0.0,0.0,0.0,0.0,0.0,0.0,0.0,0.0,0.0,0.0,0.0,0.0,0.0,0.0,0.0,0.0,0.0,0.0,0.0,0.0,0.0,0.0,0.0,0.0,0.0,0.0,0.0,0.0,0.0,0.0,0.0,0.0,0.0,0.0,0.0,0.0,0.0,0.0,0.0,0.0,0.0,0.0,0.0,0.0,0.0,0.0,0.0,0.0,0.0,0.0,0.0,0.0978,0.061,0.0251,-0.0125,0.0499,0.0966,0.1253,0.0,0.0,0.0,0.0,0.0,0.0,0.0,0.0,0.0,0.0,0.0,0.0,0.0,0.0,0.0,0.0,0.0,0.0,0.0,0.0,0.0,0.0,0.0,0.0,0.0,0.0,0.0,0.0,0.0,0.0,0.0,0.0,0.0,0.0,0.0,0.0,0.0,0.0,0.0,0.0,0.0,0.0,0.0,0.0,0.0,0.0,0.0,0.0,0.0,0.0,0.0,0.0,0.0,0.0,0.0,0.0,0.0,0.0,0.0,0.0,0.0,0.0,0.0,0.0,0.0,0.0,0.0,0.0,0.0,0.0,0.0,0.0,0.0,0.0,0.0,0.0,0.0,0.0,0.0,0.0,0.0,0.0,0.0,0.0,0.0,0.0,0.0,0.0,0.0,0.0,0.0,0.0,0.0,0.0,0.0,0.0,0.0,0.0,0.0,0.0,0.0,0.0,0.0,0.0,0.0,0.0,0.0,0.0,0.0258,-0.0307,-0.0502,-0.0361,-0.0385,-0.0027,0.0,0.0,0.0,0.0,0.0,0.0,0.0,0.0,0.0,0.0,0.0,0.0,0.0,0.0,0.0,0.0,0.0,0.0,0.0,0.0,0.0,0.0,0.0,0.0,0.0,0.0,0.0,0.0,0.0,0.0,0.0,0.0,0.0,0.0,0.0,0.0,0.0,0.0,0.0,0.0,0.0,0.0,0.0,0.0,0.0,0.0,0.0,0.0,0.0,0.0,0.0,0.0,0.0,0.0,0.0,0.0,0.0,0.0,0.0,0.0,0.0,0.0,0.0,0.0,0.0,0.0,0.0,0.0,0.0,0.0,0.0,0.0,0.0,0.0,0.0,0.0,0.0,0.0,0.0,0.0,0.0,0.0,0.0,0.0,0.0,0.0,0.0,0.0,0.0,0.0,0.0,0.0,0.0,0.0,0.0,0.0,0.0,0.0,0.0,0.0,0.0,0.0,0.0,0.0,0.0,0.0,0.0,0.0,0.0,-0.04,-0.0537,-0.0726,-0.0935,-0.0594,-0.0202,0.0,0.0,0.0,0.0,0.0,0.0,0.0,0.0,0.0,0.0,0.0,0.0,0.0,0.0,0.0,0.0,0.0,0.0,0.0,0.0,0.0,0.0,0.0,0.0,0.0,0.0,0.0,0.0,0.0,0.0,0.0,0.0,0.0,0.0,0.0,0.0,0.0,0.0,0.0,0.0,0.0,0.0,0.0,0.0,0.0,0.0,0.0,0.0,0.0,0.0,0.0,0.0,0.0,0.0,0.0,0.0,0.0,0.0,0.0,0.0,0.0,0.0,0.0,0.0,0.0,0.0,0.0,0.0,0.0,0.0,0.0,0.0,0.0,0.0,0.0,0.0,0.0,0.0,0.0,0.0,0.0,0.0,0.0,0.0,0.0,0.0,0.0,0.0,0.0,0.0,0.0,0.0,0.0,0.0,0.0,0.0,0.0,0.0,0.0,0.0,0.0,0.0,0.0,0.0,0.0,0.0,0.0,0.0,0.0033,-0.0673,-0.0636,-0.0806,-0.1224,-0.0886,-0.0432,0.0,0.0,0.0,0.0,0.0,0.0,0.0,0.0,0.0,0.0,0.0,0.0,0.0,0.0,0.0,0.0,0.0,0.0,0.0,0.0,0.0,0.0,0.0,0.0,0.0,0.0,0.0,0.0,0.0,0.0,0.0,0.0,0.0,0.0,0.0,0.0,0.0,0.0,0.0,0.0,0.0,0.0,0.0,0.0,0.0,0.0,0.0,0.0,0.0,0.0,0.0,0.0,0.0,0.0,0.0,0.0,0.0,0.0,0.0,0.0,0.0,0.0,0.0,0.0,0.0,0.0,0.0,0.0,0.0,0.0,0.0,0.0,0.0,0.0,0.0,0.0,0.0,0.0,0.0,0.0,0.0,0.0,0.0,0.0,0.0,0.0,0.0,0.0,0.0,0.0,0.0,0.0,0.0,0.0,0.0,0.0,0.0,0.0,0.0,0.0,0.0,0.0,0.0,0.0,0.0,0.0,0.0,0.0,-0.0238,-0.0675,-0.0619,-0.0833,-0.1293,-0.118,-0.0721,0.0,0.0,0.0,0.0,0.0,0.0,0.0,0.0,0.0,0.0,0.0,0.0,0.0,0.0,0.0,0.0,0.0,0.0,0.0,0.0,0.0,0.0,0.0,0.0,0.0,0.0,0.0,0.0,0.0,0.0,0.0,0.0,0.0,0.0,0.0,0.0,0.0,0.0,0.0,0.0,0.0,0.0,0.0,0.0,0.0,0.0,0.0,0.0,0.0,0.0,0.0,0.0,0.0,0.0,0.0,0.0,0.0,0.0,0.0,0.0,0.0,0.0,0.0,0.0,0.0,0.0,0.0,0.0,0.0,0.0,0.0,0.0,0.0,0.0,0.0,0.0,0.0,0.0,0.0,0.0,0.0,0.0,0.0,0.0,0.0,0.0,0.0,0.0,0.0,0.0,0.0,0.0,0.0,0.0,0.0,0.0,0.0,0.0,0.0,0.0,0.0,0.0,0.0,0.0,0.0,0.0,0.0,0.0,-0.0234,-0.0676,-0.0646,-0.0827,-0.1306,-0.1149,-0.0842,0.0,0.0,0.0,0.0,0.0,0.0,0.0,0.0,0.0,0.0,0.0,0.0,0.0,0.0,0.0,0.0,0.0,0.0,0.0,0.0,0.0,0.0,0.0,0.0,0.0,0.0,0.0,0.0,0.0,0.0,0.0,0.0,0.0,0.0,0.0,0.0,0.0,0.0,0.0,0.0,0.0,0.0,0.0,0.0,0.0,0.0,0.0,0.0,-0.1068,0.0,0.0,0.0,0.0,0.0,0.0,0.0,0.0,0.0,0.0,0.0,0.0,0.0,0.0,0.0,0.0,0.0,0.0,0.0,0.0,0.0,0.0,0.0,0.0,0.0,0.0,0.0,0.0,0.0,0.0,0.0,0.0,0.0,0.0,0.0,0.0,0.0,0.0,0.0,0.0,0.0,0.0,0.0,0.0,0.0,0.0,0.0,0.0,0.0,0.0,0.0,0.0,0.0,0.0,0.0,0.0,0.0,0.0,0.0,-0.0235,-0.069,-0.065,-0.0825,-0.1253,-0.1175,-0.0873,0.0,0.0,0.0,0.0,0.0,0.0,0.0,0.0,0.0,0.0,0.0,0.0,0.0,0.0,0.0,0.0,0.0,0.0,0.0,0.0,0.0,0.0,0.0,0.0,0.0,0.0,0.0,0.0,0.0,0.0,0.0,0.0,0.0,0.0,0.0,0.0,0.0,0.0,0.0,0.0,0.0,0.0,0.0,0.0,0.0,0.0,0.0,0.0,0.0,0.0,0.0,0.0,0.0,0.0,0.0,0.0,0.0,0.0,0.0,0.0,0.0,0.0,0.0,0.0,0.0,0.0,0.0,0.0,0.0,0.0,0.0,0.0,0.0,0.0,0.0,0.0,0.0,0.0,0.0,0.0,0.0,0.0,0.0,0.0,0.0,0.0,0.0,0.0,0.0,0.0,0.0,0.0,0.0,0.0,0.0,0.0,0.0,0.0,0.0,0.0,0.0,0.0,0.0,0.0,0.0,0.0,0.0,0.0501,-0.0203,-0.0633,-0.0575,-0.0775,-0.1235,-0.1127,-0.0867,-0.0499,0.0,0.0,0.0,0.0,0.0,0.0,0.0,0.0,0.0,0.0,0.0,0.0,0.0,0.0,0.0,0.0,0.0,0.0,0.0,0.0,0.0,0.0,0.0,0.0,0.0,0.0,0.0,0.0,0.0,0.0,0.0,0.0,0.0,0.0,0.0,0.0,0.0,0.0,0.3269,0.195,0.0,0.0,0.0,0.0,0.0,0.0,0.0,0.0,-0.3058,0.0,0.0,0.0,0.0,0.0,0.0,0.0,0.0,0.0,0.0,0.0,0.0,0.0,0.0,0.0,0.0,0.0,0.0,0.0,0.0,0.0,0.0,0.0,0.0,0.0,0.0,0.0,0.0,0.0,0.0,0.0,0.0,0.0,0.0,0.0,0.0,0.0,0.0,0.0,0.0,0.0,0.0,0.0,0.0,0.0,0.0,0.0,0.0,0.0,0.0,0.0,0.0,0.0,0.0,0.0,0.0,0.1171,0.0376,-0.013,-0.0354,-0.0364,-0.0548,-0.0929,-0.0875,-0.0842,-0.0796,0.0,0.0,0.0,0.0,0.0,0.0,0.0,0.0,0.0,0.0,0.0,0.0,0.0,0.0,0.0,0.0,0.0,0.0,0.0,0.0,0.0,0.0,0.0,0.0,0.0,0.0,0.0,0.0,0.0,0.0,0.0,0.0,0.0,0.0,0.0,0.0,0.0,0.0,0.0,0.1003,0.0397,0.0,0.0,0.0,0.0,0.0,0.0,0.0,0.0,-0.3032,0.0,0.0,0.0,0.0,0.0,0.0,0.0,0.0,0.0,0.0,0.0,0.0,0.0,0.0,0.0,0.0,0.0,0.0,0.0,0.0,0.0,0.0,0.0,0.0,0.0,0.0,0.0,0.0,0.0,0.0,0.0,0.0,0.0,0.0,0.0,0.0,0.0,0.0,0.0,0.0,0.0,0.0,0.0,0.0,0.0,0.0,0.0,0.0,0.0,0.0,0.0,0.0,0.0,0.0,0.0,0.0998,0.0342,-0.0097,-0.0279,-0.0288,-0.0465,-0.0722,-0.0748,-0.0725,0.0,0.0,0.0,0.0,0.0,0.0,0.0,0.0,0.0,0.0,0.0,0.0,0.0,0.0,0.0,0.0,0.0,0.0,0.0,0.0,0.0,0.0,0.0,0.0,0.0,0.0,0.0,0.0,0.0,0.0,0.0,0.0,0.0,0.0,0.0,0.0,0.0,0.0,0.0,0.0,0.0471,0.0183,-0.0274,0.0,0.0,0.0,0.0,0.0,0.0,-0.2877,-0.3247,0.0,0.0,0.0,0.0,0.0,0.0,0.0,0.0,0.0,0.0,0.0,0.0,0.0,0.0,0.0,0.0,0.0,0.0,0.0,0.0,0.0,0.0,0.0,0.0,0.0,0.0,0.0,0.0,0.0,0.0,0.0,0.0,0.0,0.0,0.0,0.0,0.0,0.0,0.0,0.0,0.0,0.0,0.0,0.0,0.0,0.0,0.0,0.0,0.0,0.0,0.0,0.0,0.0,0.0,0.0,0.0736,0.0247,-0.0064,-0.0208,-0.0247,-0.0349,-0.0535,-0.0562,-0.0608,0.0,0.0,0.0,0.0,0.0,0.0,0.0,0.0,0.0,0.0,0.0,0.0,0.0,0.0,0.0,0.0,0.0,0.0,0.0,0.0,0.0,0.0,0.0,0.0,0.0,0.0,0.0,0.0,0.0,0.0,0.0,0.0,0.0,0.0,0.0,0.0,0.0,0.0,0.0,0.0,0.0,-0.0053,-0.0377,-0.1104,0.0,0.0,0.0,0.0,-0.2925,-0.3196,0.0,0.0,0.0,0.0,0.0,0.0,0.0,0.0,0.0,0.0,0.0,0.0,0.0,0.0,0.0,0.0,0.0,0.0,0.0,0.0,0.0,0.0,0.0,0.0,0.0,0.0,0.0,0.0,0.0,0.0,0.0,0.0,0.0,0.0,0.0,0.0,0.0,0.0,0.0,0.0,0.0,0.0,0.0,0.0,0.0,0.0,0.0,0.0,0.0,0.0,0.0,0.0,0.0,0.0,0.0,0.0,0.0154,0.0031,0.0,-0.0034,0.0,-0.0131,-0.0324,-0.029,-0.0378,0.0,0.0,0.0,0.0,0.0,0.0,0.0,0.0,0.0,0.0,0.0,0.0,0.0,0.0,0.0,0.0,0.0,0.0,0.0,0.0,0.0,0.0,0.0,0.0,0.0,0.0,0.0,0.0,0.0,0.0,0.0,0.0,0.0,0.0,0.0,0.0,0.0,0.0,0.0,0.0,0.0,-0.0369,-0.0473,-0.1174,-0.1726,0.0,0.0,-0.2667,-0.3026,-0.2865,0.0,0.0,0.0,0.0,0.0,0.0,0.0,0.0,0.0,0.0,0.0,0.0,0.0,0.0,0.0,0.0,0.0,0.0,0.0,0.0,0.0,0.0,0.0,0.0,0.0,0.0,0.0,0.0,0.0,0.0,0.0,0.0,0.0,0.0,0.0,0.0,0.0,0.0,0.0,0.0,0.0,0.0,0.0,0.0,0.0,0.0,0.0,0.0,0.0,0.0,0.0,0.0,0.0,0.0,0.0,0.1121,0.0,0.0,0.0,0.0,0.0,-0.0032,-0.012,-0.0194,-0.0288,0.0,0.0,0.0,0.0,0.0,0.0,0.0,0.0,0.0,0.0,0.0,0.0,0.0,0.0,0.0,0.0,0.0,0.0,0.0,0.0,0.0,0.0,0.0,0.0,0.0,0.0,0.0,0.0,0.0,0.0,0.0,0.0,0.0,0.0,0.0,0.0,0.0,0.0,0.0,0.0,0.0,0.0,-0.1187,-0.1712,0.0,0.0,0.0,-0.3082,-0.3134,0.0,0.0,0.0,0.0,0.0,0.0,0.0,0.0,0.0,0.0,0.0,0.0,0.0,0.0,0.0,0.0,0.0,0.0,0.0,0.0,0.0,0.0,0.0,0.0,0.0,0.0,0.0,0.0,0.0,0.0,0.0,0.0,0.0,0.0,0.0,0.0,0.0,0.0,0.0,0.0,0.0,0.0,0.0,0.0,0.0,0.0,0.0,0.0,0.0,0.0,0.0,0.0,0.0,0.0,0.0,0.0,0.0,0.0,0.0,0.0,0.0,0.0,0.0,0.0,-0.0079,0.0,0.0,0.0,0.0,0.0,0.0,0.0,0.0,0.0,0.0,0.0,0.0,0.0,0.0,0.0,0.0,0.0,0.0,0.0,0.0,0.0,0.0,0.0,0.0,0.0,0.0,0.0,-0.0819,0.0,0.0,0.0,0.0,0.0,0.0,0.0,0.0,0.0,0.0,0.0,0.0,0.0,0.0,-0.1379,-0.1717,-0.2074,-0.2296,0.0,0.0,-0.3338,-0.3115,-0.296,-0.2843,0.0,0.0,0.0,0.0,0.0,0.0,0.0,0.0,0.0,0.0,0.0,0.0,0.0,0.0,0.0,0.0,0.0,0.0,0.0,0.0,0.0,0.0,0.0,0.0,0.0,0.0,0.0,0.0,0.0,0.0,0.0,0.0,0.0,0.0,0.0,0.0,0.0,0.0,0.0,0.0,0.0,0.0,0.0,0.0,0.0,0.0,0.0,0.0,0.0,0.0,0.0,0.0,0.0,0.0,0.0,0.0,0.0,0.0,0.0,0.0,0.0,0.0,0.0,-0.0069,0.0,0.0,0.0,0.0,0.0,0.0,0.0,0.0,0.0,0.0,0.0,0.0,0.0,0.0,0.0,0.0,0.0,0.0,0.0,0.0,0.0,0.0,0.0,0.0,0.0,0.0,0.0,0.0,0.0,0.0,0.0,0.0,0.0,0.0,0.0,0.0,0.0,0.0,0.0,0.0,0.0,-0.1879,-0.1748,-0.2052,-0.2326,0.0,0.0,-0.3111,-0.2784,-0.2736,-0.2852,-0.3201,0.0,0.0,0.0,0.0,0.0,0.0,0.0,0.0,0.0,0.0,0.0,0.0,0.0,0.0,0.0,0.0,0.0,0.0,0.0,0.0,0.0,0.0,0.0,0.0,0.0,0.0,0.0,0.0,0.0,0.0,0.0,0.0,0.0,0.0,0.0,0.0,0.0,0.0,0.0,0.0,0.0,0.0,0.0,0.0,0.0,0.0,0.0,0.0,0.0,0.0,0.0,0.0,0.0,0.1211,0.0,0.0,0.0,0.0,0.0,0.0,0.0,0.0,-0.007,0.0,0.0,0.0,0.0,0.0,0.0,0.0,0.0,0.0,0.0,0.0,0.0,0.0,0.0,0.0,0.0,0.0,0.0,0.0,0.0,0.0,0.0,0.0,0.0,0.0,0.0,0.0,0.0,-0.1206,-0.1098,-0.107,0.0,0.0,0.0,0.0,0.0,0.0,0.0,0.0,0.0,0.0,-0.2221,-0.2352,-0.2555,0.0,0.0,-0.3245,-0.3605,-0.3357,-0.3239,-0.3198,-0.3237,-0.2982,0.0,0.0,0.0,0.0,0.0,0.0,0.0,0.0,0.0,0.0,0.0,0.0,0.0,0.0,0.0,0.0,0.0,0.0,0.0,0.0,0.0,0.0,0.0,0.0,0.0,0.0,0.0,0.0,0.0,0.0,0.0,0.0,0.0,0.0,0.0,0.0,0.0,0.0,0.0,0.0,0.0,0.0,0.0,0.0,0.0,0.0,0.0,0.0,0.0,0.0,0.0,0.0,0.1209,0.0,0.0,0.0,0.0,0.0,0.0,0.0,0.0,-0.0046,0.0,0.0,0.0,0.0,0.0,0.0,0.0,0.0,0.0,0.0,0.0,0.0,0.0,0.0,0.0,0.0,0.0,0.0,0.0,0.0,0.0,0.0,0.0,0.0,0.0,0.0,0.0,0.0,-0.1302,-0.1061,-0.0879,0.0,0.0,0.0,0.0,0.0,0.0,0.0,0.0,0.0,0.0,-0.2642,-0.2812,-0.2994,-0.3025,-0.2748,-0.3472,-0.3876,-0.3399,-0.3381,-0.3422,-0.3399,0.0,0.0,0.0,0.0,0.0,0.0,0.0,0.0,0.0,0.0,0.0,0.0,0.0,0.0,0.0,0.0,0.0,0.0,0.0,0.0,0.0,0.0,0.0,0.0,0.0,0.0,0.0,0.0,0.0,0.0,0.0,0.0,0.0,0.0,0.0,0.0,0.0,0.0,0.0,0.0,0.0,0.0,0.0,0.0,0.0,0.0,0.0,0.0,0.0,0.0,0.0,0.0,0.0,0.1224,0.0,0.0,0.0,0.0,0.0,0.0,0.0,0.0,0.0,0.0,0.0,0.0,0.0,0.0,0.0,0.0,0.0,0.0,0.0,0.0,0.0,0.0,0.0,0.0,0.0,0.0,0.0,0.0,0.0,0.0,0.0,0.0,0.0,0.0,0.0,0.0,-0.2233,-0.1786,-0.1263,0.0,0.0,0.0,0.0,0.0,0.0,0.0,0.0,0.0,0.0,-0.2852,-0.3111,-0.292,-0.3283,-0.3282,-0.2606,-0.3421,-0.3741,-0.2749,-0.2937,-0.3334,0.0,0.0,0.0,0.0,0.0,0.0,0.0,0.0,0.0,0.0,0.0,0.0,0.0,0.0,0.0,0.0,0.0,0.0,0.0,0.0,0.0,0.0,0.0,0.0,0.0,0.0,0.0,1.049,1.093,0.0,0.0,0.0,0.0,0.0,0.0,0.0,0.0,0.0,0.0,0.0,0.5174,0.4812,0.0,0.0,0.0,0.0,0.0,0.0,0.0,0.0,0.0,0.0,0.0,0.0,0.1399,0.0639,0.0205,0.0,0.0,0.0,0.0,0.0,0.0,0.0,0.0,0.0,0.0,0.0,0.0,0.0,0.0,0.0,0.0,0.0,0.0,0.0,0.0,0.0,0.0,0.0,0.0,0.0,0.0,0.0,0.0,0.0,0.0,0.0,0.0,0.0,-0.1491,0.0,0.0,0.0,0.0,0.0,0.0,0.0,0.0,0.0,0.0,0.0,-0.2614,-0.2829,-0.2891,-0.2847,-0.2609,-0.2698,-0.279,0.0,0.0,0.0,0.0,0.0,0.0,0.0,0.0,0.0,0.0,0.0,0.0,0.0,0.0,-0.5547,-0.6022,-0.6442,-0.683,-0.721,0.0,0.0,0.0,0.0,0.0,0.0,0.0,0.0,0.0,0.0,0.0,0.0,0.0,0.0,0.0,0.0,0.9883,0.0,0.0,0.0,0.0,0.0,0.0,0.0,0.0,0.6473,0.6042,0.5406,0.4884,0.4621,0.0,0.4198,0.3854,0.0,0.0,0.0,0.0,0.0,0.0,0.0,0.0,0.1789,0.1143,0.0591,0.0311,0.0307,0.0108,0.0,0.0,0.0,0.0,0.0,-0.0087,-0.0086,0.0,0.0,0.0,0.0,0.0,0.0,0.0,0.0,0.0,0.0,0.0,0.0,0.0,0.0,0.0,0.0,0.0,0.0,0.0,0.0,0.0,0.0,0.0,-0.16,0.0,0.0,0.0,0.0,0.0,0.0,0.0,0.0,0.0,-0.1895,-0.2237,-0.2631,-0.2994,-0.2826,-0.268,-0.264,0.0,0.0,0.0,0.0,0.0,0.0,0.0,-0.4214,-0.4303,-0.4475,-0.4616,-0.4704,-0.4871,-0.5009,-0.5209,0.0,0.0,-0.5862,-0.6307,-0.6712,-0.6943,-0.7511,-0.7869,-0.755,-0.7887,-0.807,0.0,0.0,0.0,0.0,0.0,0.0,0.0,0.0,0.8877,0.9492,0.0,0.9762,0.0,0.0,0.0,0.0,0.0,0.0,0.0,0.0,0.7532,0.7358,0.6379,0.561,0.5258,0.5242,0.4501,0.4022,0.3811,0.3576,0.0,0.0,0.0,0.0,0.0,0.0,0.2349,0.1654,0.1164,0.092,0.0893,0.0352,0.0,0.0,0.0,0.0,0.0,0.0,0.0,0.0,-0.0128,0.0,0.0,0.0,0.0,0.0,0.0,0.0,0.0,0.0,0.0,0.0,0.0,0.0,0.0,0.0,0.0,0.0,0.0,0.0,0.0,-0.2036,0.0,0.0,0.0,0.0,0.0,0.0,0.0,0.0,0.0,0.0,-0.2612,-0.255,-0.2618,-0.2885,0.0,0.0,0.0,0.0,-0.2881,-0.2129,-0.2938,-0.3459,-0.3011,-0.3531,-0.4053,-0.4252,0.0,0.0,-0.5345,-0.5135,-0.5035,-0.5553,-0.5523,-0.5475,-0.5419,-0.6011,-0.6519,-0.6752,-0.7331,-0.768,-0.7407,-0.7526,-0.7706,1.1065,0.0,0.0,0.0,0.0,0.9727,0.9864,0.9991,0.9937,0.9948,0.9948,0.9444,0.0,0.0,0.0,0.0,0.0,0.0,0.8194,0.7849,0.7975,0.7562,0.667,0.6453,0.5923,0.513,0.4699,0.4344,0.4087,0.373,0.3534,0.3531,0.0,0.0,0.0,0.0,0.2574,0.2358,0.1828,0.1331,0.0908,0.0747,0.044,0.0,0.0,0.0,0.0,0.0,0.0,0.0,-0.0125,0.0,0.0,0.0,0.0,0.0,0.0,0.0,0.0,0.0,0.0,0.0,0.0,0.0,0.0,0.0,0.0,0.0,0.0,0.0,-0.2054,-0.1861,-0.1853,0.0,0.0,0.0,0.0,0.0,0.0,0.0,0.0,0.0,-0.3232,-0.2823,-0.272,0.0,0.0,-0.2756,-0.2939,-0.272,-0.248,-0.2231,0.0,0.0,0.0,-0.3521,-0.3853,-0.4065,-0.4263,-0.4447,-0.4625,-0.4665,-0.4738,-0.4897,-0.5058,-0.5192,-0.539,-0.5847,-0.6253,-0.6411,-0.6705,-0.6865,-0.6782,-0.6816,-0.6929,1.2161,1.1333,1.0611,1.0328,1.037,1.037,1.0526,1.0713,1.0515,1.0478,1.0491,0.9853,0.954,0.9468,0.8999,0.0,0.0,0.0,0.8694,0.8559,0.8733,0.8485,0.799,0.7437,0.6855,0.6138,0.5249,0.4711,0.4478,0.41,0.389,0.3834,0.0,0.0,0.3512,0.3212,0.3042,0.2945,0.2416,0.1975,0.1615,0.1134,0.0609,0.0,0.0,0.0,0.0,0.0,0.0,0.0,-0.0083,-0.0136,0.0,0.0,0.0,0.0,0.0,0.0,0.0,0.0,0.0,0.0,0.0,-0.0566,-0.0737,0.0,0.0,0.0,-0.1318,-0.1588,-0.1695,-0.1847,0.0,0.0,0.0,0.0,0.0,0.0,0.0,-0.3609,-0.3661,-0.3669,-0.3517,-0.3066,-0.2991,-0.3505,-0.3039,-0.2717,-0.2885,0.0,-0.2062,-0.2066,-0.2023,-0.2228,-0.2849,-0.3283,-0.3666,-0.4063,-0.4215,-0.4296,-0.4312,-0.4409,-0.4468,-0.4505,-0.4618,-0.4794,-0.5042,-0.5446,-0.5874,-0.6122,-0.6315,-0.6422,-0.6422,-0.6414,-0.6483,1.3212,1.3083,1.2097,1.1534,1.1244,1.1256,1.1117,1.0852,1.0839,1.1086,1.1429,1.0689,1.0478,1.0677,0.9931,0.0,0.0,0.9443,0.9417,0.9168,0.9661,0.988,0.9739,0.8528,0.7885,0.7664,0.6042,0.5113,0.4926,0.4589,0.4359,0.4222,0.3725,0.3465,0.3436,0.3569,0.3547,0.3397,0.2984,0.2732,0.2666,0.1561,0.0667,0.0,0.0046,0.0,0.0,0.0,0.0,0.0,0.0,0.0,0.0,0.0,0.0,0.0,0.0,0.0,0.0,0.0,0.0,0.0,0.0,0.0,0.0,0.0,0.0,0.0,-0.1612,0.0,-0.1212,-0.2,0.0,0.0,0.0,-0.3082,-0.3273,-0.3294,-0.3411,-0.3703,0.0,0.0,-0.3517,0.0,-0.3259,-0.3451,-0.2864,-0.2567,-0.2878,-0.2282,-0.1764,-0.1758,-0.1883,-0.2097,-0.2421,-0.294,-0.3535,-0.4091,-0.428,-0.4296,-0.4296,-0.4296,-0.4312,-0.4312,-0.4312,-0.4377,-0.457,-0.4985,-0.5388,-0.5851,-0.6122,-0.6276,-0.626,-0.6284,-0.633,1.4209,1.3978,1.3525,1.2946,1.2349,1.256,1.2373,1.1962,1.2149,1.1968,1.1465,1.1068,1.0852,1.0707,1.0526,1.0515,1.0635,1.0695,1.0682,1.0621,1.0717,1.0452,0.9855,0.9452,0.8532,0.7211,0.6655,0.5965,0.5206,0.4933,0.475,0.4706,0.4408,0.4054,0.3704,0.3757,0.3682,0.3556,0.345,0.3111,0.2562,0.1805,0.1137,0.0546,0.0517,0.0359,0.0,0.0,0.0,0.0,0.0,0.0,0.0,-0.0039,0.0,0.0,0.0,0.0,0.0,0.0,0.0,0.0,0.0,-0.0641,-0.0787,0.0,-0.0823,0.0,-0.1769,-0.192,-0.1785,-0.2411,0.0,0.0,-0.3638,-0.3875,-0.4026,-0.404,-0.4082,-0.4146,-0.3925,-0.3648,-0.3321,-0.324,-0.3224,-0.3259,-0.2903,-0.2775,-0.3138,-0.2713,-0.2202,-0.192,-0.1884,-0.2012,-0.2319,-0.2952,-0.353,-0.3791,-0.4102,-0.4296,-0.4302,-0.4296,-0.4296,-0.4296,-0.4296,-0.4393,-0.4565,-0.4692,-0.4953,-0.5437,-0.5819,-0.6091,-0.6075,-0.6083,-0.6122,1.4592,1.4478,1.4189,1.3821,1.3405,1.3332,1.3017,1.265,1.2831,1.2512,1.182,1.1555,1.1389,1.1256,1.1212,1.1335,1.1467,1.1473,1.1473,1.1435,1.1473,1.1145,1.0614,1.017,0.9346,0.8189,0.7761,0.704,0.6095,0.5835,0.5518,0.5071,0.4889,0.4558,0.416,0.3959,0.3808,0.3687,0.3638,0.3271,0.2609,0.2215,0.162,0.0828,0.0935,0.0679,0.0023,0.0204,0.0224,0.0,0.0,0.0,0.0,0.0,-0.0058,0.0,0.0,0.0,0.0,0.0,0.0,0.0,0.0,0.0,0.0,0.0,-0.1297,0.0,-0.2081,-0.2242,-0.2265,-0.28,-0.3276,-0.3559,-0.3782,-0.3945,-0.4073,-0.409,-0.4144,-0.4264,-0.3943,-0.3587,-0.3258,-0.3084,-0.297,-0.297,-0.2687,-0.2667,-0.3039,-0.2657,-0.2152,-0.1984,-0.1929,-0.2019,-0.2336,-0.2803,-0.3326,-0.3797,-0.4118,-0.4356,-0.4571,-0.4617,-0.46,-0.4617,-0.4617,-0.4635,-0.4756,-0.486,-0.4996,-0.5171,-0.549,-0.575,-0.5888,-0.592,-0.5967,1.4821,1.4694,1.4442,1.4346,1.4262,1.3809,1.3465,1.3224,1.3224,1.2873,1.2397,1.2101,1.1986,1.1982,1.2017,1.2023,1.2023,1.2018,1.2,1.1934,1.1934,1.1796,1.1504,1.0796,1.0204,0.9768,0.9028,0.8166,0.7223,0.7084,0.6494,0.5544,0.5378,0.511,0.4672,0.4303,0.3998,0.379,0.3676,0.3379,0.283,0.2684,0.215,0.1182,0.1356,0.1048,0.0142,0.048,0.0478,0.0,0.0,0.0,0.0,0.0,-0.0057,0.0,-0.021,0.0,0.0,0.0,0.0,0.0,0.0,0.0,0.0,-0.1555,-0.1778,-0.2244,-0.2514,-0.2637,-0.2635,-0.3182,-0.3475,-0.3364,-0.3541,-0.3729,-0.3816,-0.3816,-0.3912,-0.419,-0.3869,-0.3525,-0.3173,-0.2851,-0.266,-0.269,-0.2444,-0.2458,-0.2853,-0.2429,-0.1982,-0.2025,-0.1988,-0.2089,-0.2381,-0.2602,-0.3023,-0.3748,-0.4044,-0.4376,-0.4767,-0.4867,-0.4915,-0.4966,-0.4963,-0.498,-0.5001,-0.5135,-0.5174,-0.5092,-0.5261,-0.5488,-0.5691,-0.5749,-0.581,1.5274,1.4694,1.464,1.449,1.4286,1.4189,1.3996,1.3761,1.3761,1.3465,1.2897,1.2451,1.2313,1.2548,1.256,1.256,1.2572,1.2752,1.262,1.224,1.224,1.2101,1.1802,1.1435,1.0888,1.0203,0.9825,0.9129,0.8216,0.818,0.7677,0.6671,0.6537,0.6028,0.5172,0.0,0.0,0.0,0.3715,0.3636,0.3437,0.3297,0.2906,0.2215,0.2054,0.0,0.0633,0.0652,0.0472,0.0,0.0,0.0,0.0,0.0,0.0,0.0,0.0,0.0,0.0,0.0,0.0,0.0,-0.043,-0.0784,-0.1584,-0.1896,-0.1928,-0.1658,-0.2681,-0.3212,-0.2816,-0.3262,-0.3589,-0.3619,-0.3662,-0.3742,-0.3854,-0.388,-0.3869,-0.3737,-0.3491,-0.3175,-0.285,-0.2553,-0.2458,-0.2645,-0.2422,-0.237,-0.2725,-0.2413,-0.2153,-0.2145,-0.2144,-0.2173,-0.225,-0.2588,-0.2867,-0.3162,-0.3471,-0.3902,-0.4361,-0.4471,-0.4595,-0.4904,-0.5001,-0.5018,-0.5018,-0.5039,-0.5144,-0.5215,-0.5302,-0.5353,-0.5449,-0.5468,-0.564,1.5904,0.0,1.4783,1.464,0.0,1.4346,1.422,1.4093,1.396,1.3682,1.3258,1.3025,1.291,1.291,1.2916,1.2837,1.2711,1.2856,1.2765,1.2512,1.2506,1.2373,1.2113,1.1934,1.1603,1.1112,1.0833,1.0226,0.9415,0.927,0.8692,0.7753,0.7174,0.6626,0.6013,0.5167,0.4414,0.3808,0.3806,0.3778,0.3774,0.3597,0.3242,0.2729,0.0,0.0,0.0,0.0,0.0,0.0,0.0,0.0,0.0,0.0,0.0,-0.0096,-0.0097,-0.0098,-0.0098,-0.0169,-0.0318,-0.0618,-0.0829,-0.1139,-0.1593,-0.1973,-0.2246,-0.2355,-0.2981,-0.3356,-0.3407,-0.364,-0.3815,-0.3835,-0.379,-0.3794,-0.3911,-0.368,-0.3494,-0.3419,-0.31,-0.2788,-0.2621,-0.2439,-0.2381,-0.2512,-0.2367,-0.2285,-0.2452,-0.2339,-0.2201,-0.2201,-0.2201,-0.2189,-0.2215,-0.2399,-0.2724,-0.2989,-0.331,-0.3688,-0.4209,-0.4496,-0.4736,-0.4964,-0.5172,-0.5339,-0.5339,-0.5339,-0.5321,-0.53,-0.5306,-0.5309,-0.5362,-0.5578,-0.5858,1.6511,1.5803,1.5182,1.4827,1.4742,1.449,1.434,1.428,0.0,0.0,0.0,1.3538,1.3393,1.3149,1.3242,1.3085,1.2789,1.2825,1.2801,1.2705,1.2705,1.2584,1.2385,1.233,1.2198,1.1986,1.1688,1.1181,1.0539,1.0308,0.9707,0.8734,0.787,0.7168,0.6642,0.5547,0.4697,0.4163,0.3986,0.3915,0.3999,0.3794,0.3479,0.31,0.3505,0.2912,0.1341,0.1589,0.1317,0.0252,0.0074,0.0,0.0,0.0,0.0,0.0,0.0,0.0,0.0,0.0,-0.0278,-0.0902,-0.1157,-0.1292,-0.1334,-0.1792,-0.2336,-0.2938,-0.3068,-0.3315,-0.377,-0.3944,-0.3994,-0.3991,-0.3907,-0.388,-0.3931,-0.3476,-0.3164,-0.313,-0.2805,-0.2484,-0.2413,-0.2393,-0.2372,-0.2383,-0.2321,-0.2246,-0.2298,-0.2263,-0.2201,-0.2201,-0.2201,-0.2194,-0.2206,-0.2268,-0.2507,-0.2904,-0.3138,-0.348,-0.403,-0.4487,-0.4766,-0.4971,-0.5318,-0.5529,-0.5669,-0.5669,-0.5631,-0.541,-0.5367,-0.5359,-0.542,-0.5812,-0.6198,1.7194,1.7138,1.6137,1.5486,1.5035,1.4742,1.4496,1.428,1.402,1.3888,1.3839,1.361,1.3495,1.342,1.3694,1.3525,1.3047,1.3252,1.3151,0.0,1.2705,1.2687,1.2638,1.2421,1.23,1.224,1.1946,1.1666,1.1346,1.1298,1.0762,0.9761,0.9206,0.8074,0.6414,0.6081,0.5608,0.4767,0.4376,0.4169,0.4166,0.4036,0.392,0.3843,0.3744,0.338,0.2656,0.2107,0.1526,0.0983,0.0351,0.0,0.0,0.0,0.0,0.0,0.0,0.0,0.0,0.0,-0.0078,-0.0308,-0.0367,-0.0493,-0.0738,-0.1264,-0.1655,-0.1791,-0.2547,-0.3141,-0.3241,-0.3702,-0.3989,-0.4004,-0.3977,-0.3988,-0.3964,-0.3439,-0.2993,-0.2844,-0.2656,-0.2373,-0.2148,-0.2346,-0.2478,-0.2408,-0.2397,-0.238,-0.236,-0.2281,-0.2213,-0.2201,-0.2201,-0.2194,-0.2208,-0.2248,-0.2359,-0.2394,-0.2667,-0.2973,-0.3439,-0.3722,-0.4111,-0.4831,-0.4983,-0.5231,-0.5566,-0.5701,-0.5653,-0.5578,-0.5615,-0.562,-0.5634,-0.5922,-0.6282,1.8848,1.7705,1.7015,1.6223,1.5315,1.5029,1.4838,1.4729,1.4611,1.4366,1.4105,1.3984,1.3863,1.3731,1.3701,1.3483,1.3083,1.3091,1.294,1.2711,1.2705,1.2705,1.2693,1.2584,1.2524,1.2506,1.2258,1.1958,1.1718,1.1561,1.1165,1.0533,0.973,0.853,0.7133,0.6493,0.6009,0.5624,0.4857,0.4476,0.4461,0.4336,0.421,0.411,0.4117,0.3785,0.3035,0.2795,0.2197,0.1141,0.0789,0.0407,0.0,0.0,0.0,0.0,0.0,0.0,0.0,0.0,-0.0027,-0.0104,-0.0161,-0.0245,-0.0375,-0.0762,-0.1168,-0.1558,-0.2109,-0.2691,-0.3276,-0.362,-0.3914,-0.426,-0.4195,-0.3991,-0.3679,-0.3136,-0.2616,-0.2208,-0.1981,-0.185,-0.1903,-0.216,-0.2404,-0.2501,-0.253,-0.2502,-0.2402,-0.235,-0.2297,-0.2312,-0.2265,-0.2228,-0.2232,-0.2248,-0.2266,-0.2279,-0.239,-0.2593,-0.2907,-0.3151,-0.3546,-0.3939,-0.4264,-0.4683,-0.5128,-0.5275,-0.5388,-0.568,-0.5701,-0.5701,-0.5744,-0.5976,-0.6371,2.0345,1.8659,1.7985,1.6951,1.5832,1.5594,1.5499,1.5404,1.522,1.4885,1.4496,1.4496,1.4332,1.4078,1.3878,1.3601,1.3296,1.3073,1.2916,1.2807,1.2795,1.2765,1.2711,1.2705,1.2705,1.2681,1.2493,1.2264,1.197,1.1706,1.1375,1.0953,1.0075,0.9101,0.8025,0.7055,0.6465,0.6197,0.5318,0.4816,0.4701,0.4603,0.4444,0.4286,0.4408,0.4128,0.3458,0.3398,0.281,0.166,0.1283,0.0837,0.0296,0.0081,0.0,0.0,0.0,0.0,0.0,0.0,0.0,0.0,-0.011,-0.0168,-0.0196,-0.0383,-0.0781,-0.1376,-0.1649,-0.2174,-0.295,-0.3314,-0.3652,-0.4205,-0.4037,-0.3735,-0.3439,-0.2797,-0.2178,-0.1726,-0.1463,-0.1401,-0.1644,-0.1887,-0.2148,-0.2377,-0.2476,-0.2451,-0.2356,-0.2362,-0.2401,-0.2429,-0.2313,-0.224,-0.229,-0.2255,-0.2236,-0.2289,-0.2361,-0.2422,-0.2562,-0.2812,-0.3105,-0.3274,-0.3609,-0.4067,-0.4491,-0.4818,-0.5079,-0.5393,-0.5545,-0.5701,-0.5723,-0.589,-0.6249,2.104,2.0852,1.9141,1.7729,1.6817,1.6749,1.6601,1.6264,1.5493,1.5077,1.5029,1.5035,1.4873,1.4651,1.456,1.4286,1.3815,1.3803,1.3525,1.3071,1.3041,1.2946,1.2735,1.2711,1.2705,1.2699,1.2662,1.2506,1.2252,1.1946,1.1465,1.084,1.0593,0.9973,0.8854,0.8053,0.7236,0.6379,0.5683,0.5114,0.4721,0.4694,0.4619,0.4467,0.4491,0.446,0.4294,0.3696,0.3244,0.3023,0.1797,0.108,0.0917,0.0362,0.0,0.0,0.0,0.0,0.0,0.0,0.0,0.0,0.0,-0.0056,-0.0168,-0.0224,-0.039,-0.0808,-0.1311,-0.1677,-0.1984,-0.246,-0.3014,-0.3572,-0.3252,-0.3,-0.3269,-0.2558,-0.1838,-0.1808,-0.1425,-0.1318,-0.14,-0.167,-0.1865,-0.1953,-0.2102,-0.2207,-0.223,-0.2293,-0.2392,-0.2546,-0.2467,-0.2321,-0.2319,-0.228,-0.2294,-0.2322,-0.2459,-0.2475,-0.2456,-0.2537,-0.2763,-0.2965,-0.317,-0.3454,-0.3935,-0.4395,-0.4801,-0.4905,-0.5236,-0.568,-0.5701,-0.5766,-0.5954,2.2536,2.1444,2.0611,1.9384,1.8133,1.7994,1.763,1.6936,1.6581,1.6069,1.5553,1.5499,1.5309,1.4927,1.4757,1.4472,1.4139,1.3979,1.3704,1.3363,1.3312,1.3161,1.297,1.2952,1.2874,1.2711,1.2705,1.2572,1.2282,1.1896,1.1483,1.1152,1.0857,1.0462,0.9933,0.9125,0.8215,0.7239,0.6566,0.5807,0.5058,0.4952,0.4836,0.4655,0.4624,0.458,0.4501,0.4153,0.379,0.3287,0.2425,0.1704,0.1229,0.0532,0.0112,0.0112,0.0028,0.0,0.0,0.0,0.0,0.0,0.0,0.0,-0.0056,-0.0084,-0.0168,-0.0393,-0.0728,-0.1091,-0.1623,-0.1928,-0.2319,-0.2875,-0.282,-0.2653,-0.2514,-0.2125,-0.1706,-0.1345,-0.115,-0.1122,-0.1318,-0.1596,-0.179,-0.1789,-0.1876,-0.1958,-0.2143,-0.2209,-0.2344,-0.2552,-0.2559,-0.2481,-0.2459,-0.2393,-0.237,-0.2366,-0.2415,-0.2436,-0.2373,-0.2364,-0.2509,-0.264,-0.2672,-0.2865,-0.3274,-0.3891,-0.4377,-0.4461,-0.4748,-0.5258,-0.5636,-0.5701,-0.5788,2.3647,2.1982,2.1663,2.0484,1.885,1.8796,1.8241,1.7326,1.6998,1.648,1.5825,1.5825,1.5594,1.5283,1.5036,1.4765,1.4512,1.4337,1.4062,1.3726,1.3713,1.3522,1.3203,1.3101,1.2981,1.2837,1.2735,1.2572,1.23,1.1916,1.1676,1.1543,1.1172,1.0863,1.0731,0.9886,0.8978,0.8117,0.7253,0.6358,0.5542,0.5289,0.5033,0.4724,0.465,0.4604,0.4498,0.4491,0.4239,0.3649,0.3067,0.2426,0.1648,0.0923,0.042,0.0252,0.014,0.0056,0.0056,0.0028,0.0,0.0,0.0,0.0,0.0,0.0,0.0,-0.014,-0.0252,-0.0588,-0.1147,-0.1287,-0.1593,-0.2263,-0.2263,-0.2012,-0.1846,-0.1706,-0.1372,-0.0981,-0.0926,-0.0982,-0.1178,-0.1372,-0.1511,-0.1511,-0.1595,-0.1708,-0.1927,-0.2052,-0.2267,-0.246,-0.2546,-0.2603,-0.2603,-0.2525,-0.2458,-0.2464,-0.2476,-0.2468,-0.2358,-0.2362,-0.2349,-0.2488,-0.2346,-0.2391,-0.2754,-0.3322,-0.3979,-0.4041,-0.4351,-0.484,-0.5345,-0.548,-0.5566,2.402,2.2773,2.2026,2.0661,1.8842,1.8888,1.8288,1.7466,1.648,1.5927,1.592,1.5872,1.5825,1.573,1.5507,1.5283,1.5051,1.5013,1.4725,1.4285,1.4272,1.3986,1.3495,1.3203,1.3083,1.3091,1.2886,1.2626,1.2361,1.2282,1.2115,1.1896,1.1573,1.1315,1.0993,1.0194,0.942,0.8772,0.7626,0.6692,0.6276,0.5701,0.5188,0.4778,0.459,0.4528,0.4498,0.4491,0.446,0.4432,0.3707,0.3067,0.2456,0.1677,0.098,0.0477,0.0252,0.0196,0.0196,0.0084,0.0,0.0,0.0,0.0,0.0,0.0,0.0,0.0,0.0,0.0,-0.0449,-0.056,-0.084,-0.1482,-0.1175,-0.1204,-0.1706,-0.1288,-0.0981,-0.0897,-0.0897,-0.0926,-0.0926,-0.0925,-0.1009,-0.1037,-0.1178,-0.1346,-0.1482,-0.1803,-0.2065,-0.2225,-0.2396,-0.2583,-0.2583,-0.2583,-0.2578,-0.2583,-0.2578,-0.2605,-0.2527,-0.2452,-0.242,-0.2384,-0.2328,-0.232,-0.2357,-0.2749,-0.3407,-0.3759,-0.4071,-0.453,-0.5058,-0.5053,-0.5231,2.407,2.2876,2.23,2.1509,2.069,2.0628,2.013,1.9201,1.8826,1.7909,1.6904,1.677,1.6393,1.5825,1.5737,1.5547,1.5356,1.5356,1.5162,1.4842,1.464,1.4356,1.401,1.3756,1.3532,1.3375,1.3272,1.3091,1.277,1.2493,1.227,1.2109,1.1908,1.1603,1.133,1.1021,1.0381,0.9442,0.8704,0.7862,0.6735,0.6163,0.5603,0.4979,0.483,0.4707,0.4641,0.4542,0.4491,0.4491,0.3873,0.343,0.3125,0.2122,0.1342,0.1007,0.056,0.0336,0.0336,0.0308,0.0224,0.014,0.014,0.0084,0.0,0.0,0.0,0.0,0.0,0.0,0.0,-0.0224,-0.0421,-0.0728,-0.0756,-0.0785,-0.0981,-0.0953,-0.0897,-0.0897,-0.0897,-0.0897,-0.0897,-0.0897,-0.0897,-0.0898,-0.0982,-0.1122,-0.1289,-0.1467,-0.1712,-0.192,-0.2163,-0.2338,-0.2366,-0.256,-0.2669,-0.2675,-0.2656,-0.2649,-0.2587,-0.2612,-0.2588,-0.2652,-0.2543,-0.2585,-0.269,-0.2931,-0.3478,-0.3736,-0.4024,-0.4158,-0.4753,-0.4836,-0.5145,2.3904,2.3078,2.2557,2.1989,2.1464,2.1275,2.0718,1.9886,1.9786,1.9063,1.787,1.7466,1.6911,1.6346,1.6292,1.6204,1.6015,1.5778,1.5452,1.522,1.5022,1.4779,1.4434,1.4188,1.3914,1.3646,1.3544,1.3336,1.3121,1.271,1.2536,1.2433,1.2174,1.1968,1.1748,1.1585,1.1027,1.0217,0.9694,0.8749,0.753,0.6738,0.6125,0.557,0.5158,0.4891,0.4701,0.4589,0.4535,0.4442,0.4098,0.3793,0.3514,0.2541,0.19,0.1733,0.1342,0.098,0.0812,0.0728,0.056,0.0308,0.0224,0.014,0.0056,0.0028,0.0,0.0,0.0,0.0,0.0,-0.0084,-0.0196,-0.0308,-0.0449,-0.0589,-0.0673,-0.0785,-0.0841,-0.0869,-0.0897,-0.0897,-0.0897,-0.0897,-0.0897,-0.0897,-0.0897,-0.0982,-0.1122,-0.1262,-0.1374,-0.1624,-0.1874,-0.2093,-0.2202,-0.2391,-0.2615,-0.2621,-0.2679,-0.2671,-0.2703,-0.2709,-0.2799,-0.289,-0.2968,-0.2984,-0.3101,-0.3312,-0.3533,-0.3793,-0.3696,-0.3715,-0.4198,-0.4661,-0.5014,2.3526,2.3361,2.2685,2.1895,2.1125,2.0765,1.9866,1.9255,1.9109,1.9109,1.8742,1.787,1.7512,1.7326,1.7326,1.7333,1.7138,1.648,1.5913,1.5635,1.5581,1.5296,1.4877,1.4528,1.4235,1.394,1.3652,1.3366,1.32,1.3071,1.2958,1.2705,1.2469,1.2277,1.2288,1.176,1.1375,1.0887,1.0177,0.9466,0.8808,0.7604,0.6789,0.6367,0.5624,0.5064,0.4786,0.472,0.4606,0.4508,0.446,0.4208,0.3683,0.3042,0.2679,0.2651,0.2512,0.215,0.1677,0.137,0.1008,0.0616,0.0336,0.0224,0.0168,0.0,0.0,0.0,0.0,0.0,0.0,0.0,0.0,-0.0196,-0.0252,-0.0393,-0.0589,-0.0701,-0.0757,-0.0869,-0.0897,-0.0897,-0.0897,-0.0897,-0.0897,-0.0897,-0.0897,-0.0898,-0.0954,-0.1122,-0.1262,-0.1346,-0.1569,-0.1792,-0.2015,-0.2212,-0.2408,-0.2577,-0.2661,-0.2674,-0.2749,-0.2817,-0.2982,-0.3117,-0.3574,-0.3631,-0.3339,-0.3539,-0.3671,-0.3815,-0.3543,-0.3516,-0.4054,-0.4621,-0.4893,2.3794,2.348,2.3224,2.2635,2.1886,2.1724,2.1345,2.0817,2.0808,2.0439,1.984,1.9476,1.8972,1.8427,1.8334,1.8334,1.8288,1.7963,1.7451,1.6803,1.6567,1.6332,1.6028,1.5259,1.4712,1.442,1.4005,1.3749,1.364,1.3477,1.3254,1.3012,1.291,1.2668,1.233,1.1974,1.1627,1.1345,1.0722,1.008,0.948,0.8663,0.7957,0.7344,0.6478,0.5918,0.5709,0.5066,0.4651,0.4501,0.4491,0.4405,0.4128,0.3655,0.3347,0.3264,0.2875,0.2597,0.2347,0.193,0.1568,0.1203,0.0813,0.0449,0.0252,0.0168,0.0112,0.0028,0.0,0.0,0.0,0.0,0.0,-0.0056,-0.014,-0.0224,-0.0364,-0.0561,-0.0701,-0.0785,-0.0841,-0.0897,-0.0897,-0.0897,-0.0897,-0.0897,-0.0897,-0.0897,-0.0898,-0.0982,-0.1038,-0.1066,-0.1289,-0.1512,-0.1681,-0.1933,-0.2184,-0.2437,-0.2579,-0.2691,-0.2775,-0.3049,-0.3217,-0.3515,-0.3987,-0.4089,-0.3827,-0.3844,-0.4052,-0.3997,-0.387,-0.4044,-0.434,-0.4605,-0.4839,2.4005,2.3758,2.3553,2.3123,2.251,2.2364,2.2062,2.1723,2.1687,2.1365,2.0853,2.0439,1.9977,1.943,1.9338,1.9338,1.9384,1.9712,1.9347,1.8334,1.7358,1.703,1.6842,1.6048,1.5534,1.5263,1.4914,1.4453,1.39,1.4013,1.3798,1.3347,1.3428,1.3219,1.2578,1.2155,1.179,1.1612,1.1116,1.0603,1.0043,0.9429,0.8761,0.8145,0.7253,0.661,0.6207,0.5555,0.5023,0.4692,0.4553,0.4491,0.446,0.4128,0.3932,0.3846,0.3602,0.3309,0.3091,0.2792,0.2391,0.2079,0.1681,0.1218,0.0844,0.0644,0.042,0.014,0.0,0.0,0.0,0.0,0.0,0.0,-0.0085,-0.014,-0.0224,-0.0421,-0.0617,-0.0701,-0.0785,-0.0841,-0.0869,-0.0897,-0.0897,-0.0897,-0.0897,-0.0897,-0.0897,-0.0897,-0.0897,-0.0926,-0.1037,-0.1205,-0.1346,-0.1598,-0.1933,-0.2242,-0.2521,-0.2635,-0.2719,-0.3246,-0.3564,-0.3996,-0.4463,-0.4449,-0.425,-0.451,-0.4721,-0.4473,-0.4252,-0.4397,-0.4589,-0.4487,-0.4698,2.4238,2.4183,2.3749,2.3316,2.2904,2.2519,2.2135,2.1778,2.1696,2.1642,2.1454,2.0808,2.043,2.0393,2.0339,2.0348,2.0529,2.1087,2.0997,1.9931,1.8603,1.7591,1.721,1.6828,1.6586,1.6385,1.6183,1.5497,1.4667,1.4908,1.4615,1.416,1.4287,1.3949,1.3324,1.2461,1.2027,1.1863,1.1389,1.099,1.0665,0.9889,0.9315,0.8983,0.8039,0.7247,0.6725,0.6233,0.562,0.4831,0.4566,0.4491,0.4491,0.4491,0.4432,0.4436,0.4494,0.4213,0.3926,0.3645,0.3426,0.297,0.2661,0.2441,0.1738,0.1312,0.0884,0.0428,0.0171,0.0,0.0,0.0,0.0,0.0,0.0,0.0,-0.017,-0.0311,-0.0453,-0.0593,-0.0675,-0.0702,-0.0815,-0.0841,-0.0869,-0.0869,-0.0869,-0.0897,-0.0897,-0.0897,-0.0897,-0.0926,-0.0954,-0.101,-0.1178,-0.1374,-0.1654,-0.1849,-0.2214,-0.2465,-0.2775,-0.3357,-0.3913,-0.4377,-0.4728,-0.4725,-0.4801,-0.4998,-0.5092,-0.4934,-0.4803,-0.4773,-0.4682,-0.4616,-0.4615,2.467,2.4565,2.422,2.3758,2.3316,2.2913,2.2501,2.2108,2.1815,2.1742,2.1607,2.1454,2.1284,2.1311,2.132,2.132,2.1365,2.1553,2.1651,2.1186,2.0121,1.9063,1.8419,1.8025,1.7879,1.7701,1.7041,1.6591,1.684,1.6353,1.6246,1.6494,1.5854,1.5328,1.4649,1.3408,1.2636,1.2185,1.169,1.128,1.0978,1.0599,1.0307,1.0131,0.9094,0.8428,0.8035,0.6769,0.5641,0.482,0.4573,0.4491,0.4491,0.4491,0.4494,0.4515,0.4593,0.4614,0.442,0.4051,0.3768,0.3688,0.3253,0.2779,0.2582,0.1981,0.1471,0.1022,0.0572,0.015,0.0,0.0,0.0,0.0,0.0,0.0,0.0,-0.0177,-0.0291,-0.032,-0.0437,-0.0518,-0.0568,-0.0677,-0.0733,-0.076,-0.0816,-0.0898,-0.0898,-0.0897,-0.0897,-0.0897,-0.0898,-0.0926,-0.101,-0.1206,-0.1374,-0.1485,-0.1793,-0.224,-0.2715,-0.3413,-0.3996,-0.455,-0.4932,-0.5011,-0.5097,-0.5233,-0.5252,-0.5216,-0.509,-0.4941,-0.4853,-0.4773,-0.4686,2.4931,2.4766,2.4569,2.4079,2.3508,2.3242,2.2913,2.2556,2.2309,2.2089,2.197,2.1934,2.1842,2.1696,2.1687,2.1687,2.1687,2.1687,2.1687,2.1553,2.0673,1.9931,1.9476,1.9231,1.9131,1.8956,1.8257,1.7979,1.7933,1.7708,1.7727,1.7644,1.7417,1.6639,1.5385,1.4448,1.3432,1.2668,1.2066,1.1712,1.1551,1.1132,1.0953,1.0789,1.0054,0.9474,0.8742,0.7085,0.5669,0.4918,0.458,0.4491,0.4491,0.4491,0.4518,0.4576,0.4621,0.4689,0.477,0.4464,0.4342,0.4372,0.4025,0.3704,0.3376,0.2891,0.2431,0.1567,0.1048,0.0555,0.0186,0.0062,0.0,0.0,0.0,0.0,0.0,0.0,-0.0149,-0.0209,-0.027,-0.0359,-0.0381,-0.0526,-0.0609,-0.0691,-0.0775,-0.0825,-0.0873,-0.0871,-0.0897,-0.0897,-0.0897,-0.0898,-0.0926,-0.1066,-0.1206,-0.1289,-0.1541,-0.1959,-0.2545,-0.3299,-0.3996,-0.455,-0.4994,-0.5301,-0.5274,-0.5274,-0.5285,-0.5248,-0.5169,-0.5082,-0.4977,-0.4803,-0.4745,2.5225,2.4946,2.4812,2.4354,2.3691,2.3535,2.327,2.3004,2.2858,2.2648,2.2391,2.23,2.2071,2.1751,2.1733,2.1687,2.1687,2.1687,2.1687,2.1463,2.0952,2.0484,2.0439,2.0167,2.0113,2.0022,2.0031,1.9384,1.8964,1.9147,1.8964,1.8814,1.8913,1.784,1.6397,1.5383,1.4337,1.3203,1.2578,1.2221,1.2043,1.1632,1.1411,1.1236,1.0821,0.992,0.8874,0.7431,0.6088,0.4931,0.4635,0.4552,0.4542,0.4542,0.4593,0.468,0.4702,0.4769,0.4985,0.4927,0.4941,0.502,0.5036,0.4877,0.4239,0.3854,0.3261,0.2325,0.171,0.1191,0.0566,0.0256,0.0,0.0,0.0,0.0,0.0094,0.0061,-0.006,-0.0154,-0.0186,-0.0248,-0.0309,-0.037,-0.0427,-0.0504,-0.0617,-0.0723,-0.077,-0.0819,-0.0844,-0.0897,-0.0897,-0.0897,-0.0897,-0.0898,-0.1038,-0.1178,-0.1429,-0.1792,-0.2266,-0.2991,-0.3799,-0.4439,-0.4774,-0.5022,-0.5132,-0.516,-0.5246,-0.53,-0.5212,-0.5137,-0.5037,-0.4816,-0.4691,2.5837,2.5708,2.5093,2.4684,2.4427,2.3773,2.3453,2.3352,2.305,2.2904,2.2721,2.2446,2.2263,2.2135,2.1888,2.1687,2.1751,2.1742,2.1687,2.1687,2.1553,2.141,2.1221,2.0718,2.0718,2.0907,2.0529,2.0439,2.0619,2.0257,2.0393,2.0737,2.0056,1.9216,1.7786,1.647,1.5118,1.3811,1.3089,1.2624,1.2344,1.212,1.1846,1.1605,1.1152,1.0346,0.9316,0.8505,0.7431,0.6107,0.5162,0.4817,0.4781,0.4694,0.4721,0.4836,0.4938,0.4982,0.5069,0.5079,0.5117,0.5264,0.5209,0.5108,0.5107,0.4525,0.4037,0.3451,0.2927,0.2127,0.1278,0.1057,0.0933,0.0767,0.0395,0.026,0.0589,0.0,0.0,0.0,0.0,0.0,0.0,-0.0218,-0.0278,-0.0305,-0.042,-0.056,-0.0637,-0.074,-0.079,-0.0841,-0.0897,-0.0897,-0.0897,-0.0897,-0.0954,-0.1038,-0.1261,-0.1512,-0.1987,-0.2434,-0.3158,-0.3855,-0.4494,-0.4688,-0.4912,-0.5105,-0.5219,-0.525,-0.5264,-0.5127,-0.4999,-0.4791,-0.4654,2.6195,2.5947,2.5359,2.4959,2.4702,2.4106,2.3831,2.3785,2.3611,2.3361,2.3169,2.2931,2.2748,2.2574,2.2364,2.2272,2.2208,2.2034,2.1861,2.1742,2.1687,2.1687,2.1642,2.1275,2.1275,2.1607,2.123,2.132,2.1419,2.1275,2.1186,2.1642,2.1186,2.0259,1.9026,1.7754,1.6374,1.4949,1.3917,1.3298,1.2911,1.259,1.2271,1.1868,1.1469,1.0831,1.0065,0.9353,0.8316,0.7076,0.6045,0.5283,0.4965,0.485,0.488,0.4968,0.4975,0.5093,0.5179,0.5182,0.5192,0.5382,0.531,0.533,0.5338,0.499,0.4622,0.4184,0.3644,0.3009,0.2108,0.1975,0.1776,0.1239,0.0862,0.0663,0.0567,0.0,0.0,0.0,0.0,0.0,0.0,0.0,-0.0159,-0.0221,-0.0246,-0.0392,-0.0525,-0.0602,-0.0706,-0.0785,-0.0841,-0.0897,-0.0897,-0.0897,-0.0897,-0.0954,-0.1037,-0.1233,-0.1513,-0.1961,-0.2406,-0.3158,-0.3938,-0.4467,-0.4691,-0.4912,-0.5128,-0.5218,-0.5209,-0.5102,-0.4953,-0.4779,-0.463,2.6379,2.6067,2.5617,2.5221,2.484,2.4486,2.4248,2.4233,2.4211,2.3889,2.3593,2.3538,2.3178,2.295,2.2867,2.2867,2.2675,2.2428,2.2053,2.1723,2.1687,2.1687,2.1687,2.1642,2.1597,2.1687,2.1597,2.1687,2.1687,2.1687,2.1597,2.1687,2.1687,2.09,1.9847,1.896,1.7721,1.627,1.5298,1.437,1.3854,1.3359,1.2858,1.209,1.1784,1.144,1.0865,1.0164,0.9187,0.8027,0.726,0.6325,0.545,0.4962,0.4985,0.5117,0.5091,0.5148,0.5306,0.5254,0.5237,0.5388,0.5388,0.5388,0.5359,0.5332,0.5079,0.4724,0.4294,0.3924,0.3066,0.2941,0.2467,0.1825,0.152,0.1114,0.0573,0.0298,0.0,0.0,0.0,0.0,0.0,0.0,0.0,0.0,0.0,-0.0215,-0.0358,-0.0463,-0.0571,-0.0674,-0.0729,-0.0869,-0.0897,-0.0897,-0.0897,-0.0897,-0.0926,-0.1038,-0.1206,-0.1513,-0.1987,-0.2629,-0.3325,-0.3855,-0.4356,-0.4632,-0.4846,-0.5105,-0.5221,-0.5155,-0.4981,-0.4771,-0.4638,2.6449,2.6417,2.5736,2.5378,2.5267,2.49,2.4605,2.4427,2.4291,2.407,2.3834,2.3595,2.3363,2.3041,2.2922,2.2748,2.2584,2.2428,2.2153,2.1797,2.1742,2.1742,2.1687,2.1687,2.1687,2.1687,2.1687,2.1687,2.1687,2.1687,2.1687,2.1687,2.1687,2.1141,2.0427,1.9686,1.875,1.7443,1.6713,1.5913,1.4719,1.4078,1.3383,1.2425,1.2081,1.1811,1.1524,1.1147,1.042,0.9287,0.8997,0.8015,0.6767,0.5732,0.5378,0.5322,0.5386,0.5406,0.5404,0.5385,0.5365,0.5388,0.5395,0.5395,0.5395,0.5412,0.5339,0.5385,0.5202,0.4924,0.4089,0.3949,0.3466,0.2811,0.2359,0.2219,0.1902,0.1297,0.0671,0.0,0.0,0.0,0.0,0.0,0.0,0.0,0.0,0.0,-0.0215,-0.0298,-0.0347,-0.0455,-0.0617,-0.0757,-0.0897,-0.0897,-0.0897,-0.0897,-0.0897,-0.0897,-0.1066,-0.1206,-0.1625,-0.2211,-0.2713,-0.3186,-0.3685,-0.4187,-0.4601,-0.4869,-0.505,-0.5224,-0.503,-0.4836,-0.4678,2.6758,2.6717,2.6028,2.5607,2.5378,2.495,2.4688,2.4517,2.4381,2.4387,2.4345,2.4143,2.3904,2.3747,2.3623,2.3345,2.2977,2.2904,2.2565,2.2135,2.1998,2.1861,2.1723,2.1696,2.1687,2.1687,2.1687,2.1687,2.1687,2.1687,2.1687,2.1687,2.1687,2.1454,2.097,2.0355,1.9348,1.8285,1.7672,1.6619,1.4886,1.4323,1.3473,1.2806,1.2417,1.2187,1.1801,1.1692,1.0984,1.0029,0.9764,0.8979,0.7969,0.716,0.6437,0.5911,0.5769,0.5702,0.56,0.558,0.5578,0.5435,0.5402,0.5395,0.5419,0.5474,0.5583,0.5654,0.5698,0.5557,0.5089,0.5018,0.4556,0.3774,0.324,0.2922,0.2561,0.1868,0.1323,0.0756,0.0,0.0,0.0,0.0,0.0,0.0,0.0,0.0,0.0,-0.0153,-0.0207,-0.0347,-0.0483,-0.0647,-0.0815,-0.0841,-0.0841,-0.0869,-0.0897,-0.0897,-0.0926,-0.1066,-0.1262,-0.1653,-0.2127,-0.2601,-0.3183,-0.3769,-0.4187,-0.466,-0.4968,-0.5182,-0.5074,-0.4934,-0.4755,2.7077,2.7015,2.6391,2.594,2.5552,2.5247,2.4904,2.4702,2.4587,2.466,2.4818,2.4669,2.4503,2.4426,2.427,2.3944,2.3547,2.3398,2.2931,2.2483,2.2153,2.1961,2.187,2.1714,2.1687,2.1687,2.1687,2.1687,2.1687,2.1687,2.1687,2.1687,2.1687,2.1687,2.1481,2.0953,1.983,1.9132,1.8548,1.7265,1.5389,1.4239,1.3514,1.2918,1.2824,1.2549,1.2171,1.1988,1.1517,1.0835,1.0439,0.999,0.9055,0.8797,0.8107,0.6899,0.6537,0.618,0.5891,0.5884,0.5862,0.5651,0.5569,0.5525,0.5535,0.5623,0.5735,0.5787,0.5847,0.5847,0.5702,0.5811,0.5334,0.4675,0.4021,0.3584,0.3212,0.2754,0.2432,0.1758,0.0964,0.0,0.0,0.0,0.0,0.0,0.0,0.0,0.0,0.0,-0.0152,-0.0265,-0.0404,-0.0568,-0.0677,-0.0786,-0.0785,-0.0813,-0.0841,-0.0897,-0.0897,-0.0926,-0.1121,-0.1317,-0.1625,-0.2127,-0.2738,-0.3322,-0.3821,-0.4349,-0.4908,-0.5167,-0.514,-0.5039,-0.4848,2.7313,2.7276,2.688,2.6465,2.6097,2.5984,2.5692,2.5175,2.4932,2.4802,2.4842,2.48,2.4645,2.4455,2.4417,2.4091,2.3632,2.3279,2.3116,2.2823,2.2254,2.2053,2.2099,2.1824,2.1714,2.1687,2.1687,2.1687,2.1687,2.1687,2.1687,2.1687,2.1687,2.1687,2.1642,2.1454,2.1257,2.0766,2.0535,1.9203,1.6876,1.5364,1.4245,1.3535,1.2997,1.2826,1.2675,1.2435,1.1933,1.1721,1.1604,1.1138,1.0384,1.0157,0.9771,0.8848,0.7872,0.6813,0.6379,0.6292,0.6218,0.6029,0.5962,0.5923,0.5834,0.584,0.5905,0.5952,0.5966,0.6003,0.5966,0.5966,0.5551,0.525,0.4949,0.4691,0.435,0.369,0.3347,0.3103,0.2367,0.1207,0.0,0.0,0.0,0.0,0.0,0.0,0.0,0.0,0.0,-0.021,-0.0293,-0.0432,-0.0568,-0.065,-0.0729,-0.0729,-0.0785,-0.0869,-0.0897,-0.0897,-0.0897,-0.1093,-0.1345,-0.1569,-0.1986,-0.2625,-0.3375,-0.4015,-0.4515,-0.4959,-0.5281,-0.5135,-0.4954,2.7806,2.7653,2.7049,2.657,2.6224,2.5916,2.5641,2.5331,2.5186,2.5188,2.5199,2.5178,2.4925,2.4665,2.4581,2.4445,2.4201,2.3802,2.3579,2.3321,2.275,2.2336,2.2172,2.1897,2.1696,2.1687,2.1687,2.1687,2.1687,2.1687,2.1687,2.1687,2.1687,2.1687,2.1687,2.1687,2.123,2.0501,1.9653,1.876,1.7614,1.625,1.5102,1.4865,1.3703,1.3372,1.3272,1.2645,1.2301,1.2118,1.2118,1.1863,1.1397,1.1166,1.0876,0.9997,0.953,0.8594,0.7399,0.7009,0.6708,0.637,0.6291,0.6187,0.6094,0.6027,0.6081,0.6156,0.6197,0.6156,0.6152,0.6162,0.6007,0.5771,0.5559,0.5489,0.5176,0.4698,0.4234,0.4038,0.3738,0.2516,0.142,0.0,0.0,0.0,0.0,0.0,0.0,0.0,0.0,-0.0183,-0.0239,-0.0293,-0.0404,-0.0513,-0.0591,-0.0646,-0.0701,-0.0785,-0.0869,-0.0897,-0.0869,-0.0869,-0.1065,-0.1233,-0.14,-0.2068,-0.2959,-0.3569,-0.4125,-0.4553,-0.4996,-0.5186,-0.5013,2.8184,2.7921,2.7304,2.6779,2.6349,2.5939,2.5628,2.5411,2.5391,2.5489,2.5586,2.5479,2.5235,2.503,2.4824,2.4766,2.4805,2.4445,2.4256,2.394,2.3436,2.287,2.2575,2.2171,2.1806,2.1696,2.1687,2.1687,2.1687,2.1687,2.1687,2.1687,2.1687,2.1687,2.1687,2.1678,2.1391,2.082,1.9522,1.8827,1.8372,1.7029,1.6221,1.5604,1.4847,1.3988,1.3817,1.3426,1.2958,1.2449,1.2412,1.2278,1.1959,1.1856,1.1654,1.0997,1.0665,1.0058,0.9011,0.8322,0.7621,0.7273,0.6864,0.6913,0.6798,0.6457,0.6187,0.6388,0.6279,0.6286,0.6296,0.6289,0.6202,0.5999,0.5767,0.5819,0.578,0.5387,0.5084,0.4944,0.4585,0.3914,0.2894,0.2024,0.0,0.0,0.0,0.0,0.0,0.0,0.0,0.0,0.0,0.0,-0.0234,-0.0346,-0.0455,-0.0536,-0.0591,-0.0674,-0.0759,-0.0814,-0.0841,-0.0841,-0.0869,-0.0953,-0.1149,-0.1846,-0.2512,-0.2986,-0.3508,-0.4187,-0.4631,-0.4895,-0.5091,2.8291,2.8252,2.7789,2.735,2.6871,2.6512,2.6093,2.5645,2.5635,2.5635,2.5693,2.5645,2.5489,2.5284,2.5186,2.5088,2.4913,2.4486,2.4522,2.438,2.388,2.3383,2.301,2.2594,2.208,2.1823,2.1705,2.1687,2.1687,2.1741,2.1696,2.1687,2.1696,2.1687,2.1687,2.1687,2.1633,2.1228,2.0409,1.9676,1.9164,1.8087,1.7123,1.6057,1.5819,1.5372,1.3831,1.3949,1.3666,1.2833,1.2703,1.2603,1.2325,1.2225,1.2035,1.1846,1.1407,1.0972,1.0438,0.9766,0.9531,0.9123,0.8571,0.7899,0.7702,0.6984,0.671,0.6598,0.6451,0.6335,0.6335,0.63,0.63,0.6219,0.606,0.606,0.6103,0.6096,0.587,0.5816,0.5304,0.4509,0.3855,0.2902,0.1828,0.0,0.0,0.0,0.0,0.0,0.0,0.0,0.0,0.0,0.0,-0.0147,-0.0263,-0.0347,-0.0401,-0.0512,-0.065,-0.0705,-0.0786,-0.0841,-0.0869,-0.0869,-0.0953,-0.1483,-0.1986,-0.2348,-0.2922,-0.3786,-0.4453,-0.4843,-0.503,2.8301,2.8252,2.7894,2.7412,2.6982,2.6562,2.6143,2.5723,2.5684,2.5684,2.5684,2.5684,2.5635,2.5538,2.5391,2.5333,2.5323,2.4848,2.4925,2.4802,2.4382,2.3975,2.3627,2.3075,2.2454,2.2233,2.1977,2.183,2.1919,2.183,2.183,2.183,2.1785,2.1696,2.1687,2.1687,2.1687,2.1585,2.116,2.0519,1.9955,1.8965,1.8164,1.798,1.6397,1.6119,1.5285,1.4707,1.3977,1.3285,1.2936,1.2744,1.2569,1.2398,1.2311,1.2305,1.1898,1.1787,1.1515,1.072,0.9895,0.9744,0.9286,0.8846,0.8556,0.7825,0.7246,0.6942,0.6641,0.6602,0.6486,0.6374,0.63,0.63,0.63,0.63,0.63,0.63,0.6254,0.6034,0.5483,0.4771,0.42,0.364,0.2528,0.0,0.0,0.0,0.0,0.0,0.0,0.0,0.0,0.0,0.0,0.0,0.0,-0.0178,-0.0233,-0.0347,-0.0517,-0.0676,-0.0757,-0.0814,-0.0841,-0.0869,-0.0953,-0.1149,-0.1456,-0.1874,-0.2653,-0.3594,-0.4205,-0.4766,-0.4976,2.8301,2.8262,2.8022,2.7607,2.7158,2.6621,2.6221,2.5947,2.5742,2.5684,2.5684,2.5684,2.5684,2.5635,2.5538,2.5479,2.5538,2.5314,2.5314,2.5169,2.4909,2.4545,2.4155,2.3702,2.3102,2.2785,2.2415,2.2238,2.2185,2.2008,2.2008,2.2008,2.1919,2.182,2.1687,2.1687,2.1687,2.1595,2.1319,2.1007,2.0489,1.9624,1.8955,1.9021,1.7889,1.7047,1.6477,1.5742,1.4815,1.3968,1.3316,1.2945,1.2699,1.2505,1.2338,1.2305,1.2305,1.2305,1.1966,1.1434,1.0602,1.0757,1.042,0.9926,0.9425,0.8933,0.8422,0.7639,0.7297,0.6949,0.6802,0.6486,0.6335,0.6335,0.6296,0.63,0.63,0.63,0.63,0.6209,0.5698,0.5348,0.5031,0.4458,0.3218,0.2037,0.093,0.0389,0.0,0.0,0.0,0.0,0.0,0.0,0.0,0.0,0.0,-0.0091,-0.015,-0.0207,-0.0351,-0.0517,-0.0621,-0.0617,-0.0673,-0.0813,-0.0897,-0.1009,-0.1204,-0.1428,-0.2347,-0.332,-0.4085,-0.4636,-0.4935,2.8301,2.8301,2.8271,2.8018,2.762,2.6758,2.6396,2.626,2.5898,2.5684,2.5684,2.5684,2.5684,2.5693,2.5635,2.5635,2.5684,2.5635,2.5635,2.5499,2.5295,2.5035,2.4718,2.4279,2.3739,2.3218,2.2938,2.2723,2.2407,2.2403,2.2349,2.2195,2.2097,2.1909,2.1731,2.1687,2.1687,2.1632,2.1319,2.1172,2.0854,2.0225,1.9805,1.9368,1.9065,1.8328,1.7392,1.6602,1.5696,1.4735,1.3655,1.3147,1.2832,1.2538,1.2365,1.2305,1.2305,1.2305,1.2268,1.2187,1.2003,1.1887,1.1419,1.1215,1.107,1.0506,0.9649,0.8899,0.8295,0.7618,0.7126,0.6616,0.6518,0.6401,0.6369,0.63,0.63,0.63,0.63,0.618,0.6219,0.6131,0.5857,0.5277,0.3947,0.2645,0.1318,0.0653,0.0433,0.0215,0.0177,0.0,0.0,0.0,0.0,0.0,0.0,0.0,-0.0062,-0.0122,-0.0181,-0.0297,-0.0378,-0.0426,-0.0537,-0.0683,-0.0734,-0.0813,-0.1009,-0.1288,-0.2096,-0.2986,-0.3815,-0.4443,-0.4685,2.8301,2.8301,2.8301,2.8213,2.8008,2.748,2.6934,2.6377,2.5957,2.5684,2.5684,2.5684,2.5684,2.5684,2.5684,2.5684,2.5684,2.5684,2.5684,2.5684,2.5586,2.5518,2.5228,2.4794,2.4325,2.3867,2.362,2.3231,2.2681,2.2793,2.2764,2.258,2.223,2.1963,2.1776,2.1687,2.1687,2.1678,2.1522,2.1401,2.1117,2.079,2.0462,2.0032,1.9852,1.9203,1.8263,1.7499,1.6388,1.5368,1.4275,1.3467,1.3105,1.2797,1.2543,1.2371,1.2305,1.2305,1.2305,1.2268,1.2268,1.2293,1.2321,1.2068,1.1548,1.1488,1.0852,1.0147,0.9384,0.8741,0.8359,0.7243,0.6821,0.6627,0.652,0.6362,0.63,0.63,0.6257,0.606,0.5983,0.575,0.5518,0.5487,0.4472,0.3554,0.2331,0.1257,0.0806,0.0437,0.0253,0.0179,0.0,0.0,0.0,0.0,0.0,0.0,0.0,-0.0032,-0.0094,-0.0153,-0.0209,-0.0291,-0.0405,-0.0519,-0.0653,-0.0785,-0.0841,-0.1204,-0.1902,-0.2681,-0.3541,-0.4067,-0.4336,2.8164,2.8271,2.8135,2.8066,2.8037,2.7836,2.7256,2.6572,2.5966,2.5762,2.5908,2.5771,2.5684,2.5684,2.5684,2.5684,2.5684,2.5684,2.5684,2.5684,2.5684,2.5654,2.5509,2.5285,2.487,2.4484,2.4235,2.3861,2.3235,2.3294,2.3124,2.2757,2.2318,2.2052,2.1874,2.1776,2.1687,2.1678,2.1614,2.1549,2.1365,2.1163,2.1078,2.0842,2.0521,1.9918,1.9305,1.8304,1.7038,1.6084,1.507,1.4042,1.3607,1.3123,1.2826,1.2549,1.2345,1.2331,1.2305,1.2452,1.2478,1.2498,1.2777,1.2647,1.2245,1.2387,1.2039,1.1364,1.0508,0.9775,0.9131,0.7906,0.7483,0.7323,0.6889,0.6691,0.6644,0.6655,0.6572,0.6311,0.6035,0.5695,0.5349,0.5201,0.4938,0.4155,0.3396,0.2351,0.127,0.0782,0.0444,0.0367,0.0255,0.0,0.0,0.0,0.0,0.0,0.0,0.0,0.0,-0.0063,-0.0122,-0.0149,-0.0264,-0.0434,-0.0623,-0.0757,-0.0785,-0.1037,-0.154,-0.2347,-0.3236,-0.371,-0.4073,2.793,2.8203,2.7842,2.7748,2.7728,2.7679,2.7373,2.6953,2.6103,2.6006,2.6338,2.5849,2.5684,2.5684,2.5684,2.5684,2.5684,2.5684,2.5684,2.5684,2.5684,2.5684,2.5684,2.5606,2.5284,2.5146,2.4904,2.4479,2.3867,2.3553,2.326,2.2836,2.2407,2.2185,2.2052,2.1874,2.1776,2.1731,2.1678,2.1686,2.1601,2.1408,2.1549,2.1444,2.1124,2.093,2.0443,1.964,1.8506,1.7446,1.6343,1.5175,1.4265,1.3488,1.3126,1.2788,1.2536,1.2405,1.2405,1.263,1.2697,1.2737,1.3026,1.312,1.3174,1.3225,1.2987,1.2546,1.1823,1.0721,0.9723,0.9101,0.8513,0.8045,0.7461,0.7312,0.7226,0.7185,0.7055,0.6859,0.6596,0.63,0.6093,0.583,0.5442,0.5007,0.4304,0.3532,0.238,0.1118,0.0804,0.0568,0.0489,0.0336,0.0257,0.018,0.0,0.0,0.0,0.0,0.0,0.0,0.0,0.0,0.0,-0.029,-0.0481,-0.0617,-0.0729,-0.1009,-0.126,-0.1958,-0.2847,-0.3516,-0.3932,2.8184,2.8242,2.7894,2.7728,2.7679,2.7334,2.7295,2.7344,2.6582,2.6299,2.6357,2.5879,2.5693,2.5684,2.5684,2.5684,2.5684,2.5684,2.5684,2.5684,2.5684,2.5684,2.5684,2.5654,2.5449,2.5332,2.5195,2.4941,2.3965,2.3594,2.3237,2.2769,2.2618,2.2407,2.2185,2.2008,2.1874,2.1776,2.1731,2.1776,2.1874,2.1796,2.1985,2.1951,2.1742,2.1592,2.1314,2.0452,1.941,1.8697,1.7217,1.602,1.5207,1.4431,1.3819,1.3287,1.2966,1.2663,1.267,1.2737,1.2824,1.2965,1.324,1.3427,1.356,1.3658,1.3789,1.3329,1.2904,1.1844,1.0986,1.0335,0.9554,0.882,0.8208,0.7792,0.7708,0.7495,0.7404,0.7156,0.6933,0.6798,0.6576,0.6329,0.5949,0.5685,0.5156,0.4381,0.3409,0.212,0.1292,0.1083,0.0652,0.0532,0.0454,0.0372,0.0296,0.0,0.0,0.0,0.0,0.0,0.0,0.0,0.0,-0.0175,-0.0282,-0.0422,-0.0538,-0.0674,-0.0953,-0.1679,-0.2402,-0.3098,-0.3849,2.8047,2.8041,2.7578,2.7412,2.7363,2.7129,2.7178,2.7256,2.668,2.6387,2.6338,2.5937,2.5684,2.5684,2.5684,2.5684,2.5684,2.5684,2.5684,2.5684,2.5684,2.5684,2.5684,2.5664,2.5586,2.5518,2.543,2.5244,2.4287,2.3652,2.329,2.2925,2.2882,2.2671,2.2451,2.2274,2.2132,2.1954,2.1874,2.183,2.1919,2.2052,2.222,2.234,2.2138,2.2091,2.2092,2.1096,2.057,1.9949,1.8498,1.7348,1.628,1.5053,1.4179,1.3641,1.3313,1.3119,1.3094,1.3112,1.3132,1.3246,1.3588,1.3775,1.3854,1.3913,1.3979,1.3853,1.3487,1.3014,1.2275,1.1544,1.0602,0.9624,0.8998,0.8336,0.8078,0.7824,0.7585,0.7379,0.7242,0.7126,0.6937,0.6667,0.6402,0.6072,0.5537,0.4766,0.3907,0.2876,0.2163,0.1795,0.1164,0.0695,0.0652,0.0572,0.0416,0.0334,0.0,0.0,0.0,0.0,0.0,0.0,0.0,-0.0118,-0.0202,-0.0258,-0.0373,-0.0512,-0.0844,-0.1596,-0.2237,-0.2764,-0.3541,2.7712,2.763,2.7158,2.6973,2.6973,2.6943,2.6953,2.6924,2.6553,2.6387,2.6299,2.5928,2.5684,2.5684,2.5684,2.5684,2.5684,2.5684,2.5684,2.5684,2.5684,2.5684,2.5684,2.5674,2.5625,2.5654,2.5567,2.5361,2.4853,2.4131,2.3422,2.311,2.2925,2.2803,2.2662,2.253,2.2397,2.222,2.2043,2.1954,2.2008,2.2097,2.2274,2.2441,2.2492,2.2526,2.2625,2.2327,2.1888,2.1117,2.0183,1.8967,1.7259,1.5636,1.4688,1.4113,1.3882,1.3629,1.3584,1.362,1.3622,1.3804,1.4089,1.4226,1.4231,1.4161,1.4195,1.413,1.3737,1.3568,1.296,1.2347,1.154,1.0668,0.9895,0.9262,0.8837,0.8402,0.7904,0.7705,0.7627,0.7497,0.73,0.7055,0.6915,0.6485,0.6071,0.5355,0.4694,0.3846,0.3008,0.2483,0.1565,0.0975,0.0895,0.0772,0.0574,0.0449,0.0363,0.0,0.0,0.0,0.0,0.0,0.0,0.0,-0.0119,0.0,0.0,-0.0401,-0.0823,-0.1546,-0.2128,-0.2516,-0.3375,2.7863,2.7129,2.6709,2.6533,2.6533,2.6543,2.6543,2.6533,2.6445,2.6367,2.6299,2.5957,2.5684,2.5684,2.5684,2.5684,2.5684,2.5684,2.5684,2.5684,2.5684,2.5684,2.5684,2.5684,2.5684,2.5684,2.5577,2.5274,2.4658,2.4062,2.3574,2.314,2.3013,2.2969,2.2838,2.2706,2.2618,2.2485,2.2353,2.2309,2.2485,2.2574,2.2706,2.2838,2.2925,2.2925,2.2965,2.2882,2.2548,2.2087,2.1304,1.9978,1.8313,1.6727,1.5975,1.5635,1.479,1.4429,1.4154,1.4184,1.4199,1.4193,1.4372,1.4497,1.4524,1.4405,1.4279,1.4166,1.4039,1.387,1.3652,1.3088,1.2485,1.1623,1.0847,1.0246,0.9641,0.8886,0.8261,0.8089,0.7965,0.7829,0.7667,0.7522,0.7378,0.7165,0.6937,0.6503,0.609,0.5352,0.3943,0.3192,0.1892,0.1295,0.1215,0.1016,0.0813,0.0653,0.0526,0.0405,0.0253,0.0,0.0,0.0,0.0,0.0,0.0,0.0,0.0,0.0,-0.049,-0.1088,-0.1693,-0.216,-0.3183,2.8074,2.7352,2.6684,2.6279,2.6152,2.6299,2.6279,2.6113,2.6094,2.6094,2.6084,2.5801,2.5684,2.5684,2.5684,2.5684,2.5684,2.5684,2.5684,2.5684,2.5684,2.5684,2.5684,2.5684,2.5684,2.5664,2.5469,2.5059,2.4443,2.3994,2.3584,2.3169,2.3091,2.3047,2.2925,2.2925,2.2838,2.2706,2.2696,2.2794,2.2882,2.2882,2.2838,2.2969,2.3057,2.3101,2.3101,2.3101,2.2974,2.2409,2.1532,2.0545,1.9103,1.7859,1.696,1.6553,1.5988,1.5482,1.5042,1.4871,1.4864,1.4819,1.4752,1.4866,1.4699,1.4573,1.4531,1.4412,1.4124,1.3955,1.3955,1.3519,1.3045,1.2314,1.1757,1.1241,1.012,0.903,0.8588,0.8376,0.8292,0.8189,0.8043,0.7901,0.7765,0.7635,0.7425,0.7333,0.7024,0.6651,0.5295,0.4091,0.2926,0.2054,0.1883,0.153,0.1018,0.0855,0.0693,0.0525,0.0,0.0,0.0,0.0,0.0,0.0,0.0,0.0,0.0,0.0,-0.0297,-0.0525,-0.1148,-0.1778,-0.2663,2.8397,2.7706,2.6863,2.6182,2.5781,2.6123,2.6094,2.5791,2.5878,2.5985,2.6053,2.5985,2.5878,2.5732,2.5684,2.5684,2.5684,2.5684,2.5684,2.5684,2.5684,2.5684,2.5684,2.5684,2.5684,2.5586,2.5332,2.4922,2.4368,2.3994,2.3594,2.3188,2.3101,2.3101,2.3101,2.3101,2.3057,2.3013,2.3003,2.3057,2.3013,2.2925,2.2882,2.2925,2.2969,2.3101,2.3101,2.3101,2.3101,2.2655,2.1897,2.1128,2.0145,1.9082,1.8211,1.7621,1.7342,1.6684,1.6126,1.6103,1.5707,1.5379,1.5284,1.5166,1.4992,1.4824,1.4783,1.4622,1.4334,1.4166,1.4124,1.3997,1.3476,1.3045,1.2577,1.1886,1.0506,0.9253,0.8955,0.87,0.8524,0.8432,0.8344,0.8245,0.8153,0.8028,0.791,0.7795,0.7591,0.7186,0.6356,0.538,0.4428,0.3632,0.2685,0.2041,0.1453,0.1057,0.089,0.0641,0.0,0.0,0.0,0.0,0.0,0.0,0.0,0.0,0.0,0.0,-0.0123,-0.0303,-0.0701,-0.1349,-0.2032,2.8863,2.7334,2.7085,2.6536,2.5801,2.584,2.5762,2.5878,2.661,2.6924,2.6924,2.6829,2.6552,2.5732,2.5684,2.5684,2.5732,2.5781,2.5732,2.5684,2.5684,2.5684,2.5684,2.5684,2.5684,2.5547,2.5264,2.4844,2.4492,2.4043,2.3594,2.3169,2.312,2.311,2.3101,2.3101,2.3101,2.3101,2.3101,2.3101,2.3101,2.3057,2.3047,2.3047,2.3101,2.3101,2.3101,2.3101,2.3101,2.2892,2.2494,2.197,2.1294,2.0346,1.9448,1.8845,1.8551,1.7887,1.7432,1.7359,1.6976,1.6165,1.6057,1.5816,1.5526,1.509,1.4999,1.4957,1.4664,1.4412,1.4328,1.4166,1.3779,1.3519,1.3137,1.1886,1.0593,0.9864,0.9437,0.9007,0.862,0.8584,0.8553,0.8492,0.8472,0.8344,0.8208,0.8098,0.8047,0.7704,0.7314,0.6557,0.5696,0.423,0.2928,0.2514,0.2,0.1488,0.1054,0.0805,0.0564,0.0368,0.0253,0.0251,0.0105,0.0,0.0,0.0,0.0,0.0,0.0,-0.0158,-0.0484,-0.085,-0.1475]}]]